[[{"header":{"parameterUnit":"m.s-1","parameterCategory":1,"la1":30.6,"la2":29.2853,"lo1":-89.7004,"lo2":-87.6739,"dy":0.0162,"dx":0.0183,"nx":112,"ny":82,"refTime":"2026-05-02T12:00:00:Z","depth":0,"parameterNumber":2,"parameterNumberName":"U-component_of_WINDS"},"data":[0.0,0.0,0.0,0.0,0.0,0.0,0.0,0.0,0.0,0.0,0.0,0.0,0.0,0.0,0.0,0.0,0.0,0.0,0.0,0.0,0.0,0.0,0.0,0.0,0.0,0.0,0.0,0.0,0.0,0.0,0.0,0.0,0.0,0.0,0.0,0.0,0.0,0.0,0.0,0.0,0.0,0.0,0.0,0.0,0.0,0.0,0.0,0.0,0.0,0.0,0.0,0.0,0.0,0.0,0.0,0.0,0.0,0.0,0.0,0.0,0.0,0.0,0.0,0.0,0.0,0.0,0.0,0.0,0.0,0.0,0.0,0.0,0.0,0.0,0.0,0.0,0.0,0.0,0.0,0.0,0.0,0.0,0.0,0.0,0.0,0.0,0.0,0.0,0.0,0.0,0.0,-2.178,-2.4014,-2.5222,-2.5017,-2.4896,-2.338,-2.0037,0.0,0.0,0.0,0.0,0.0,0.0,0.0,0.0,0.0,0.0,0.0,0.0,0.0,0.0,0.0,0.0,0.0,0.0,0.0,0.0,0.0,0.0,0.0,0.0,0.0,0.0,0.0,0.0,0.0,0.0,0.0,0.0,0.0,0.0,0.0,0.0,0.0,0.0,0.0,0.0,0.0,0.0,0.0,0.0,0.0,0.0,0.0,0.0,0.0,0.0,0.0,0.0,0.0,0.0,0.0,0.0,0.0,0.0,0.0,0.0,0.0,0.0,0.0,0.0,0.0,0.0,0.0,0.0,0.0,0.0,0.0,0.0,0.0,0.0,0.0,0.0,0.0,0.0,0.0,0.0,0.0,0.0,0.0,0.0,0.0,0.0,0.0,0.0,0.0,0.0,0.0,0.0,0.0,0.0,0.0,0.0,0.0,0.0,0.0,0.0,0.0,0.0,0.0,0.0,-2.0379,-2.4231,-2.563,-2.5948,-2.5061,-2.4924,-2.346,-2.0096,0.0,0.0,0.0,0.0,0.0,0.0,0.0,0.0,0.0,0.0,0.0,0.0,0.0,0.0,0.0,0.0,0.0,0.0,0.0,0.0,0.0,0.0,0.0,0.0,0.0,0.0,0.0,0.0,0.0,0.0,0.0,0.0,0.0,0.0,0.0,0.0,0.0,0.0,0.0,0.0,0.0,0.0,0.0,0.0,0.0,0.0,0.0,0.0,0.0,0.0,0.0,0.0,0.0,0.0,0.0,0.0,0.0,0.0,0.0,0.0,0.0,0.0,0.0,0.0,0.0,0.0,0.0,0.0,0.0,0.0,0.0,0.0,0.0,0.0,0.0,0.0,0.0,0.0,0.0,0.0,0.0,0.0,0.0,0.0,0.0,0.0,0.0,0.0,0.0,0.0,0.0,0.0,0.0,0.0,0.0,0.0,0.0,0.0,0.0,0.0,0.0,0.0,0.0,-1.9556,-2.1745,-2.4958,-2.5625,-2.5633,-2.5095,-2.4999,-2.3511,-2.0108,-1.8228,0.0,0.0,0.0,0.0,0.0,0.0,0.0,0.0,0.0,0.0,0.0,0.0,0.0,0.0,0.0,0.0,0.0,0.0,0.0,0.0,0.0,0.0,0.0,0.0,0.0,0.0,0.0,0.0,0.0,0.0,0.0,0.0,0.0,0.0,0.0,0.0,0.0,0.0,0.0,0.0,0.0,0.0,0.0,0.0,0.0,0.0,0.0,0.0,0.0,0.0,0.0,0.0,0.0,0.0,0.0,0.0,0.0,0.0,0.0,0.0,0.0,0.0,0.0,0.0,0.0,0.0,0.0,0.0,0.0,0.0,0.0,0.0,0.0,0.0,0.0,0.0,0.0,0.0,0.0,0.0,0.0,0.0,0.0,0.0,0.0,0.0,0.0,0.0,0.0,0.0,0.0,0.0,0.0,0.0,0.0,0.0,0.0,0.0,0.0,0.0,0.0,0.0,-2.2078,-2.3184,-2.5456,-2.5459,-2.5335,-2.5394,-2.4784,-2.3209,-2.0384,-1.8009,0.0,0.0,0.0,0.0,0.0,0.0,0.0,0.0,0.0,0.0,0.0,0.0,0.0,0.0,0.0,0.0,0.0,0.0,0.0,0.0,0.0,0.0,0.0,0.0,0.0,0.0,0.0,0.0,0.0,0.0,0.0,0.0,0.0,0.0,0.0,0.0,0.0,0.0,0.0,0.0,0.0,0.0,0.0,0.0,0.0,0.0,0.0,0.0,0.0,0.0,0.0,0.0,0.0,0.0,0.0,0.0,0.0,0.0,0.0,0.0,0.0,0.0,0.0,0.0,0.0,0.0,0.0,0.0,0.0,0.0,0.0,0.0,0.0,0.0,0.0,0.0,0.0,0.0,0.0,0.0,0.0,0.0,0.0,0.0,0.0,0.0,0.0,0.0,0.0,0.0,0.0,0.0,0.0,0.0,0.0,0.0,0.0,0.0,0.0,0.0,0.0,0.0,-2.3154,-2.4768,-2.6433,-2.5811,-2.5577,-2.624,-2.4074,-2.2224,-2.1177,-1.7252,0.0,0.0,0.0,0.0,0.0,0.0,0.0,0.0,0.0,0.0,0.0,0.0,0.0,0.0,0.0,0.0,0.0,0.0,0.0,0.0,0.0,0.0,0.0,0.0,0.0,0.0,0.0,0.0,0.0,0.0,0.0,0.0,0.0,0.0,0.0,0.0,0.0,0.0,0.0,0.0,0.0,0.0,0.0,0.0,0.0,0.0,0.0,0.0,0.0,0.0,0.0,0.0,0.0,0.0,0.0,0.0,0.0,0.0,0.0,0.0,0.0,0.0,0.0,0.0,0.0,0.0,0.0,0.0,0.0,0.0,0.0,0.0,0.0,0.0,0.0,0.0,0.0,0.0,0.0,0.0,0.0,0.0,0.0,0.0,0.0,0.0,0.0,0.0,0.0,0.0,0.0,0.0,0.0,0.0,0.0,0.0,0.0,0.0,0.0,0.0,0.0,0.0,-2.2495,-2.4165,0.0,-2.5561,-2.5404,-2.5619,-2.467,-2.3026,-2.0607,0.0,0.0,0.0,0.0,0.0,0.0,0.0,0.0,0.0,0.0,0.0,0.0,0.0,0.0,0.0,0.0,0.0,0.0,0.0,0.0,0.0,0.0,0.0,0.0,0.0,0.0,0.0,0.0,0.0,0.0,0.0,0.0,0.0,0.0,0.0,0.0,0.0,0.0,0.0,0.0,0.0,0.0,0.0,0.0,0.0,0.0,0.0,0.0,0.0,0.0,0.0,0.0,0.0,0.0,0.0,0.0,0.0,0.0,0.0,0.0,0.0,0.0,0.0,0.0,0.0,0.0,0.0,0.0,0.0,0.0,0.0,0.0,0.0,0.0,0.0,0.0,0.0,0.0,0.0,0.0,0.0,0.0,0.0,0.0,0.0,0.0,0.0,0.0,0.0,0.0,0.0,0.0,0.0,0.0,0.0,0.0,0.0,0.0,0.0,0.0,0.0,0.0,-2.0518,-2.2681,-2.4432,0.0,-2.5561,-2.5293,-2.5215,-2.4092,-2.2431,-2.0145,0.0,0.0,0.0,0.0,0.0,0.0,0.0,0.0,0.0,0.0,0.0,0.0,0.0,0.0,0.0,0.0,0.0,0.0,0.0,0.0,0.0,0.0,0.0,0.0,0.0,0.0,0.0,0.0,0.0,0.0,0.0,0.0,0.0,0.0,0.0,0.0,0.0,0.0,0.0,0.0,0.0,0.0,0.0,0.0,0.0,0.0,0.0,0.0,0.0,0.0,0.0,0.0,0.0,0.0,0.0,0.0,0.0,0.0,0.0,0.0,0.0,0.0,0.0,0.0,0.0,0.0,0.0,0.0,0.0,0.0,0.0,0.0,0.0,0.0,0.0,0.0,0.0,0.0,0.0,0.0,0.0,0.0,0.0,0.0,0.0,0.0,0.0,0.0,0.0,0.0,0.0,0.0,0.0,0.0,0.0,0.0,0.0,0.0,0.0,0.0,0.0,0.0,-2.1453,-2.4062,-2.5974,-2.6717,-2.5952,-2.5335,-2.5203,-2.2015,-2.0026,0.0,0.0,0.0,0.0,0.0,0.0,0.0,0.0,0.0,0.0,0.0,0.0,0.0,0.0,0.0,0.0,0.0,0.0,0.0,0.0,0.0,0.0,0.0,0.0,0.0,0.0,0.0,0.0,0.0,0.0,0.0,0.0,0.0,0.0,0.0,0.0,0.0,0.0,0.0,0.0,0.0,0.0,0.0,0.0,0.0,0.0,0.0,0.0,0.0,0.0,0.0,0.0,0.0,0.0,0.0,0.0,0.0,0.0,0.0,0.0,0.0,0.0,0.0,0.0,0.0,0.0,0.0,0.0,0.0,0.0,0.0,0.0,0.0,0.0,0.0,0.0,0.0,0.0,0.0,0.0,0.0,0.0,0.0,0.0,0.0,0.0,0.0,0.0,0.0,0.0,0.0,0.0,0.0,0.0,0.0,0.0,0.0,0.0,0.0,0.0,0.0,0.0,0.0,-2.0557,-2.3168,-2.5074,-2.5806,-2.5592,-2.5099,-2.4344,-2.2724,-2.0994,-1.9192,0.0,0.0,0.0,0.0,0.0,0.0,0.0,0.0,0.0,0.0,0.0,0.0,0.0,0.0,0.0,0.0,0.0,0.0,0.0,0.0,0.0,0.0,0.0,0.0,0.0,0.0,0.0,0.0,0.0,0.0,0.0,0.0,0.0,0.0,0.0,0.0,0.0,0.0,0.0,0.0,0.0,0.0,0.0,0.0,0.0,0.0,0.0,0.0,0.0,0.0,0.0,0.0,0.0,0.0,0.0,0.0,0.0,0.0,0.0,0.0,0.0,0.0,0.0,0.0,0.0,0.0,0.0,0.0,0.0,0.0,0.0,0.0,0.0,0.0,0.0,0.0,0.0,0.0,0.0,0.0,0.0,0.0,0.0,0.0,0.0,0.0,0.0,0.0,0.0,0.0,0.0,0.0,0.0,0.0,0.0,0.0,0.0,0.0,0.0,0.0,0.0,0.0,-2.0167,-2.2778,-2.4685,-2.542,-2.5466,-2.503,-2.4024,-2.2797,-2.1116,-1.8882,0.0,0.0,0.0,0.0,0.0,0.0,0.0,0.0,0.0,0.0,0.0,0.0,0.0,0.0,0.0,0.0,0.0,0.0,0.0,0.0,0.0,0.0,0.0,0.0,0.0,0.0,0.0,0.0,0.0,0.0,0.0,0.0,0.0,0.0,0.0,0.0,0.0,0.0,0.0,0.0,0.0,0.0,0.0,0.0,0.0,0.0,0.0,0.0,0.0,0.0,0.0,0.0,0.0,0.0,0.0,0.0,0.0,0.0,0.0,0.0,0.0,0.0,0.0,0.0,0.0,0.0,0.0,0.0,0.0,0.0,0.0,0.0,0.0,0.0,0.0,0.0,0.0,0.0,0.0,0.0,0.0,0.0,0.0,0.0,0.0,0.0,0.0,0.0,0.0,0.0,0.0,0.0,0.0,0.0,0.0,0.0,0.0,0.0,0.0,0.0,0.0,0.0,-2.0266,-2.2759,-2.4592,-2.5418,-2.5492,-2.5103,-2.4091,-2.2421,-2.067,-1.8926,0.0,0.0,0.0,0.0,0.0,0.0,0.0,0.0,0.0,0.0,0.0,0.0,0.0,0.0,0.0,0.0,0.0,0.0,0.0,0.0,0.0,0.0,0.0,0.0,0.0,0.0,0.0,0.0,0.0,0.0,0.0,0.0,0.0,0.0,0.0,0.0,0.0,0.0,0.0,0.0,0.0,0.0,0.0,0.0,0.0,0.0,0.0,0.0,0.0,0.0,0.0,0.0,0.0,0.0,0.0,0.0,0.0,0.0,0.0,0.0,-2.0705,0.0,0.0,0.0,0.0,0.0,0.0,0.0,0.0,0.0,0.0,0.0,0.0,0.0,0.0,0.0,0.0,0.0,0.0,0.0,0.0,0.0,0.0,0.0,0.0,0.0,0.0,0.0,0.0,0.0,0.0,0.0,0.0,0.0,0.0,0.0,0.0,0.0,0.0,0.0,0.0,0.0,-2.1024,-2.2603,-2.394,-2.542,-2.5521,-2.5147,-2.4233,-2.2516,-2.0736,-1.899,-1.6253,0.0,0.0,0.0,0.0,0.0,0.0,0.0,0.0,0.0,0.0,0.0,0.0,0.0,0.0,0.0,0.0,0.0,0.0,0.0,0.0,0.0,0.0,0.0,0.0,0.0,0.0,0.0,0.0,0.0,0.0,0.0,0.0,0.0,0.0,0.0,0.0,0.0,0.0,0.0,0.0,0.0,0.0,0.0,0.0,0.0,0.0,0.0,0.0,0.0,0.0,0.0,0.0,0.0,0.0,0.0,0.0,0.0,0.0,0.0,0.0,-2.3446,0.0,0.0,0.0,0.0,0.0,0.0,0.0,0.0,0.0,0.0,0.0,0.0,0.0,0.0,0.0,0.0,0.0,0.0,0.0,0.0,0.0,0.0,0.0,0.0,0.0,0.0,0.0,0.0,0.0,0.0,0.0,0.0,0.0,0.0,0.0,0.0,0.0,0.0,0.0,0.0,-2.1362,-2.2936,-2.4216,-2.5516,-2.5591,-2.5346,-2.4878,-2.3164,-2.1567,-2.0222,-1.7309,0.0,0.0,0.0,0.0,0.0,0.0,0.0,0.0,0.0,0.0,0.0,0.0,0.0,0.0,0.0,0.0,0.0,0.0,0.0,0.0,0.0,0.0,0.0,0.0,0.0,0.0,0.0,0.0,0.0,0.0,0.0,0.0,0.0,0.0,0.0,0.0,0.0,0.0,0.0,0.0,0.0,0.0,0.0,0.0,0.0,0.0,0.0,0.0,0.0,0.0,0.0,0.0,0.0,-2.9338,-2.9494,-2.9669,-3.0392,-3.0803,-3.0861,-2.9417,-2.8773,-2.8556,-2.626,0.0,0.0,0.0,0.0,0.0,0.0,0.0,0.0,0.0,0.0,0.0,0.0,0.0,0.0,0.0,0.0,0.0,0.0,0.0,0.0,0.0,0.0,0.0,0.0,-2.5395,-2.4946,0.0,0.0,0.0,0.0,0.0,0.0,0.0,0.0,0.0,0.0,0.0,0.0,-2.1698,-2.3425,-2.4725,-2.5601,-2.5652,-2.5595,-2.5518,-2.4012,-2.262,-2.159,-1.8662,-1.6833,0.0,0.0,0.0,0.0,0.0,0.0,0.0,0.0,0.0,0.0,0.0,0.0,0.0,0.0,0.0,0.0,0.0,0.0,0.0,0.0,0.0,0.0,0.0,0.0,0.0,0.0,0.0,0.0,0.0,0.0,0.0,0.0,-1.659,-1.8543,0.0,0.0,0.0,0.0,0.0,0.0,0.0,0.0,0.0,0.0,0.0,0.0,0.0,-2.8088,-2.9085,-2.9884,-3.1113,-3.2733,-3.3495,-3.4256,-3.4997,-3.5094,-3.5564,-3.6267,-3.6033,0.0,-3.039,-2.9336,0.0,0.0,0.0,0.0,0.0,0.0,0.0,0.0,0.0,0.0,0.0,0.0,0.0,0.0,0.0,0.0,0.0,0.0,0.0,0.0,0.0,0.0,-2.7446,-2.6804,-2.6745,-2.6667,0.0,-2.4098,-2.1486,-1.8279,-1.766,0.0,0.0,0.0,0.0,0.0,0.0,0.0,-2.2604,-2.3791,-2.4725,-2.5601,-2.5697,-2.5652,-2.56,-2.4663,-2.3385,-2.1694,-2.0389,-1.9007,-1.7481,-1.6383,0.0,0.0,0.0,0.0,0.0,0.0,0.0,0.0,0.0,0.0,0.0,0.0,0.0,0.0,0.0,0.0,0.0,0.0,0.0,0.0,0.0,0.0,0.0,0.0,0.0,0.0,0.0,0.0,0.0,-1.7176,-1.985,-2.0612,-2.1139,-2.1256,0.0,0.0,0.0,0.0,0.0,0.0,0.0,0.0,0.0,-2.9259,-3.0509,-3.2051,-3.3905,-3.4276,-3.5076,-3.6325,-3.6717,-3.7088,-3.7497,-3.8434,-3.8551,-3.8103,-3.9546,-3.8277,-3.5037,-3.3223,-3.1128,-2.8972,0.0,0.0,0.0,0.0,-2.7246,-2.742,-2.87,-2.8899,0.0,-2.7928,0.0,0.0,0.0,0.0,0.0,0.0,0.0,0.0,0.0,0.0,-3.0339,-2.9952,-2.9872,-2.9736,-2.9248,-2.7889,-2.5589,0.0,-2.127,-2.0745,-1.8053,0.0,0.0,0.0,0.0,-2.22,-2.429,-2.4888,-2.5446,-2.6283,-2.5972,-2.5697,-2.5654,-2.482,-2.375,-2.2474,-2.1049,-1.99,-1.9082,-1.7313,-1.6162,0.0,0.0,0.0,0.0,0.0,0.0,0.0,0.0,0.0,0.0,0.0,0.0,0.0,0.0,0.0,0.0,0.0,0.0,0.0,0.0,0.0,0.0,0.0,0.0,0.0,0.0,0.0,0.0,-1.9987,-2.2212,-2.2445,-2.3637,-2.4106,0.0,0.0,0.0,0.0,0.0,0.0,-2.8577,-3.008,-3.1681,-3.3378,-3.4276,-3.5662,-3.7614,-3.7848,-3.8375,-3.9235,-3.947,-3.9684,-3.9958,-4.1207,-4.109,-3.9997,-4.1674,-4.1205,-3.906,-3.6678,-3.4295,-3.2049,-3.1231,-3.0372,-2.9708,-3.0588,-3.0869,-3.1046,-3.2502,-3.2988,-3.2753,-3.1553,-3.0273,-2.8835,-2.6948,0.0,0.0,0.0,0.0,-2.9414,-3.0073,-3.1321,-3.2433,-3.2436,-3.2434,-3.2257,-3.1615,-3.0819,-2.9024,0.0,-2.4626,-2.4199,-2.1411,0.0,0.0,0.0,0.0,-2.4562,-2.5876,-2.6215,-2.6478,-2.6866,-2.6361,-2.5913,-2.5718,-2.5048,-2.4163,-2.3073,-2.1731,-2.0753,-2.0242,-1.84,-1.7265,-1.7007,0.0,0.0,0.0,0.0,0.0,0.0,0.0,0.0,0.0,0.0,0.0,0.0,0.0,0.0,0.0,0.0,0.0,0.0,0.0,0.0,0.0,0.0,0.0,0.0,0.0,0.0,0.0,0.0,0.0,-2.4163,-2.6506,0.0,0.0,0.0,0.0,-2.9202,-2.9358,-3.0489,-3.2947,-3.3944,-3.5232,-3.6989,-3.7888,-3.8396,-3.8533,-3.9292,-4.0112,-4.0973,-4.181,-4.265,-4.3452,-4.353,-4.353,-4.3393,-4.2708,-4.1869,-4.0836,-3.9118,-3.734,-3.5641,-3.4783,-3.3905,-3.324,-3.412,-3.4432,-3.4567,-3.5483,-3.5794,-3.5775,-3.5697,-3.3961,-3.1874,-3.1758,-3.0607,0.0,0.0,-3.1192,-3.1915,-3.1953,-3.2655,-3.3338,-3.3338,-3.3338,-3.3318,-3.3279,-3.2597,-3.0956,0.0,-2.6836,-2.6547,-2.5551,0.0,-2.5432,-2.5447,-2.622,-2.6835,-2.6926,-2.7597,-2.7762,-2.6983,-2.6866,-2.6537,-2.5757,-2.5591,-2.4812,-2.3108,-2.2918,-2.2083,-2.0363,-2.0167,-1.9716,-1.8873,-1.7106,0.0,0.0,0.0,0.0,0.0,0.0,0.0,0.0,0.0,0.0,0.0,0.0,0.0,0.0,0.0,0.0,0.0,0.0,0.0,0.0,0.0,0.0,0.0,0.0,0.0,0.0,0.0,0.0,-2.7639,-3.0021,0.0,-2.9572,-3.0743,-3.1718,-3.2012,-3.3085,-3.4354,-3.5837,-3.6735,-3.7986,-3.9684,-4.0055,-4.0758,-4.187,-4.2162,-4.2474,-4.2788,-4.3099,-4.3391,-4.3725,-4.4289,-4.4231,-4.3705,-4.3957,-4.3587,-4.2729,-4.2124,-4.0211,-3.7633,-3.7322,-3.703,-3.6776,-3.7108,-3.7205,-3.7244,-3.7575,-3.7672,-3.7575,-3.7028,-3.5837,-3.4606,-3.4606,-3.3807,-3.3066,-3.3904,-3.3964,-3.3905,-3.4452,-3.4841,-3.5075,-3.5075,-3.4645,-3.4237,-3.4237,-3.3554,-3.2576,-3.1364,-2.9785,-2.8226,-2.6781,-2.6993,-2.7185,-2.6615,-2.7249,-2.7961,-2.8542,-2.8375,-2.8308,-2.8541,-2.7567,-2.6788,-2.6498,-2.5987,-2.4927,-2.3178,-2.3056,-2.2256,-2.0449,-1.9322,-1.8844,-1.9067,-1.6844,-1.5102,0.0,0.0,0.0,0.0,0.0,0.0,0.0,0.0,0.0,0.0,0.0,0.0,0.0,0.0,0.0,0.0,0.0,0.0,0.0,0.0,0.0,0.0,0.0,0.0,0.0,0.0,-2.9045,-2.9904,-3.2539,-3.3709,-3.2265,-3.3964,-3.5271,-3.5543,-3.6384,-3.7497,-3.8941,-3.9294,-4.0211,-4.1929,-4.1988,-4.2534,-4.3686,-4.3997,-4.4133,-4.4133,-4.4445,-4.4582,-4.4602,-4.5187,-4.5129,-4.4582,-4.4875,-4.468,-4.4114,-4.3821,-4.2358,-4.0289,-3.9997,-3.9879,-3.986,-3.9548,-3.943,-3.943,-3.943,-3.9255,-3.8903,-3.8336,-3.7575,-3.6872,-3.6872,-3.6462,-3.613,-3.6716,-3.6462,-3.6072,-3.6364,-3.6441,-3.6363,-3.607,-3.5563,-3.5135,-3.5135,-3.4452,-3.3846,-3.3846,-3.1992,-3.008,-2.8929,-2.8964,-2.8941,-2.8374,-2.8736,-2.9292,-2.9852,-2.9433,-2.9189,-2.9476,-2.8191,-2.7217,-2.6924,-2.6167,-2.4957,-2.3217,-2.3098,-2.2308,-2.0502,-1.9377,-1.9034,-1.957,-1.7348,-1.5572,-1.4337,0.0,0.0,0.0,0.0,0.0,0.0,0.0,0.0,0.0,0.0,0.0,0.0,0.0,0.0,0.0,0.0,0.0,0.0,0.0,0.0,0.0,0.0,0.0,-2.5863,-2.8089,-3.0041,-3.0898,-3.4021,-3.5778,-3.4901,-3.7166,-3.9001,-3.978,-3.9118,-3.9782,-4.2318,-4.1635,-4.1968,-4.3686,-4.3744,-4.3744,-4.3783,-4.4621,-4.5049,-4.5049,-4.5909,-4.63,-4.63,-4.63,-4.63,-4.6241,-4.5402,-4.5049,-4.4972,-4.4133,-4.3783,-4.3684,-4.2786,-4.2435,-4.2337,-4.1498,-4.1168,-4.1148,-4.1148,-4.0561,-3.9858,-3.9878,-3.9331,-3.8689,-3.8689,-3.8669,-3.863,-3.863,-3.8611,-3.8415,-3.7555,-3.7321,-3.7087,-3.6246,-3.6012,-3.5992,-3.5992,-3.5349,-3.4744,-3.4744,-3.3358,-3.2169,-3.211,-3.1407,-3.0839,-3.08,-3.0796,0.0,-3.0799,-3.0808,-3.0484,-2.9635,-2.8756,-2.7898,-2.7002,-2.6205,-2.4978,-2.3207,-2.3129,-2.2344,-2.0563,-2.0505,-2.0499,-2.0469,-1.8751,-1.6994,-1.5248,0.0,0.0,0.0,0.0,0.0,0.0,0.0,0.0,0.0,0.0,0.0,0.0,0.0,0.0,0.0,0.0,0.0,0.0,0.0,0.0,0.0,0.0,-2.9395,-2.9395,-3.1094,-3.3144,-3.5252,-3.7438,-3.8434,-3.7615,-3.9274,-4.0504,-4.0738,-4.0543,-4.1265,-4.3235,-4.3118,-4.3489,-4.4602,-4.4641,-4.4953,-4.5578,-4.5812,-4.5948,-4.5948,-4.6183,-4.63,-4.63,-4.63,-4.63,-4.628,-4.6046,-4.5948,-4.5929,-4.5675,-4.5597,-4.5441,-4.3938,-4.3333,-4.3313,-4.3061,-4.2591,-4.2045,-4.2045,-4.1479,-4.0854,-4.1479,-4.1108,-4.0406,-4.0406,-3.9977,-3.9468,-3.9468,-3.906,-3.8533,-3.8298,-3.777,-3.7243,-3.7009,-3.6461,-3.5992,-3.5992,-3.5817,-3.5641,-3.5641,-3.4744,-3.3573,-3.2325,-3.1895,-3.1522,-3.0894,-3.0794,0.0,-3.0799,-3.0808,-3.0702,-3.0464,-2.9659,-2.8795,-2.7918,-2.7061,-2.5582,-2.3246,-2.3692,-2.2971,-2.0593,-2.0495,-2.0198,-1.9565,-1.7856,-1.6705,0.0,0.0,0.0,0.0,0.0,0.0,0.0,0.0,0.0,0.0,0.0,0.0,0.0,0.0,0.0,0.0,0.0,0.0,0.0,0.0,0.0,0.0,-3.0353,-3.2401,-3.3866,-3.4627,-3.574,-3.7614,-3.9,-3.9761,-3.9665,-4.0855,-4.1635,-4.1635,-4.1988,-4.2786,-4.4172,-4.4231,-4.4641,-4.5519,-4.5539,-4.5792,-4.63,-4.63,-4.63,-4.63,-4.63,-4.63,-4.63,-4.63,-4.63,-4.63,-4.63,-4.63,-4.63,-4.63,-4.63,0.0,0.0,0.0,0.0,0.0,-4.3372,-4.2942,-4.2942,-4.2611,-4.2261,-4.2786,-4.2357,-4.1635,-4.1635,-4.1049,-4.0346,-4.0346,-4.0016,-3.9567,-3.9196,-3.8726,-3.816,-3.7477,-3.6911,-3.6441,-3.607,-3.5992,-3.5992,-3.5992,-3.5582,0.0,-3.3437,-3.2579,-3.1934,-3.1422,-3.1029,-3.0809,-3.0799,-3.0808,-3.08,-3.0793,-3.0027,-2.9145,-2.8269,-2.7392,0.0,0.0,0.0,-2.3382,-2.1141,-2.0693,0.0,0.0,0.0,0.0,0.0,0.0,0.0,0.0,-1.5536,-1.5067,0.0,0.0,0.0,0.0,0.0,0.0,0.0,0.0,0.0,0.0,0.0,0.0,0.0,0.0,0.0,0.0,-3.328,-3.5096,-3.8298,-3.8238,-3.8121,-3.8806,-3.9605,-4.0405,-4.1168,-4.2045,-4.2591,-4.2689,-4.3411,-4.4231,-4.5109,0.0,0.0,0.0,0.0,-4.63,-4.63,-4.63,-4.6358,-4.6456,-4.6456,-4.6456,-4.6456,-4.6456,-4.6397,-4.63,-4.63,-4.63,-4.63,-4.63,-4.63,-4.6222,-4.5441,-4.5148,-4.5031,-4.4172,-4.384,-4.384,-4.384,0.0,0.0,-4.3801,-4.3255,-4.2552,-4.2552,-4.1947,-4.1246,-4.1246,-4.1187,-4.0914,-4.0151,-3.9878,-3.9429,-3.7946,-3.7438,-3.7087,-3.6305,-3.607,-3.5992,-3.5992,-3.5992,-3.5758,-3.4977,-3.3476,-3.2325,-3.213,-3.1441,-3.0906,-3.0801,-3.081,-3.0798,-3.0804,0.0,0.0,-2.8424,-2.7548,-2.6322,-2.4647,-2.4355,-2.3595,-2.2155,-2.1258,-2.0791,-2.0791,-2.0705,-2.0262,-1.95,-1.9487,-1.9854,-2.0502,-1.8034,-1.7027,0.0,0.0,0.0,0.0,0.0,0.0,0.0,0.0,0.0,0.0,0.0,0.0,0.0,0.0,0.0,-3.3827,-3.6112,-3.8064,-3.937,-4.0639,-4.1225,-4.068,-4.1361,-4.1967,-4.2123,-4.2942,-4.3743,-4.4444,-4.466,-4.5129,-4.6007,-4.6046,-4.6124,-4.628,-4.63,-4.63,-4.63,-4.63,-4.6651,-4.7352,0.0,0.0,-4.7352,-4.7352,-4.6963,-4.63,-4.63,-4.63,-4.63,-4.63,-4.63,-4.628,-4.6105,-4.6046,-4.5948,-4.507,-4.4758,-4.4758,-4.4758,-4.4289,-4.3821,-4.4524,-4.4153,-4.345,-4.345,-4.2845,0.0,-4.2142,-4.1635,-4.1051,-4.0894,-4.0327,-3.9722,-3.939,-3.8277,-3.7243,-3.7087,-3.65,-3.5992,-3.5992,-3.5992,-3.5952,-3.5789,-3.4896,-3.371,-3.2306,-3.1967,-3.1591,-3.0888,-3.0794,-3.08,-3.0798,-3.0652,-3.0197,-2.9321,-2.8444,-2.7236,-2.5543,-2.4121,-2.3517,-2.3887,-2.307,-2.2603,-2.2603,-2.1919,-2.1464,-2.1296,-2.1294,-2.1385,-2.1472,-1.9571,-1.9431,0.0,0.0,0.0,0.0,0.0,0.0,0.0,0.0,0.0,0.0,0.0,-2.877,-3.0527,0.0,-3.4744,-3.6891,-3.8355,-3.9644,-4.0912,-4.224,-4.2728,-4.1849,-4.2123,-4.2572,-4.3001,-4.343,-4.4055,-4.4932,-4.5402,-4.5831,-4.628,-4.63,-4.63,-4.63,-4.63,-4.6515,-4.6944,-4.6944,-4.7373,-4.8193,-4.8193,-4.8193,-4.8193,-4.8193,-4.7959,-4.7549,-4.7549,-4.7549,-4.751,-4.712,-4.669,-4.63,-4.63,-4.63,-4.6241,-4.5812,-4.5656,-4.5656,-4.5656,-4.5363,-4.507,-4.5519,-4.5051,-4.4348,-4.4348,-4.3743,-4.2962,-4.2513,-4.2084,-4.1654,-4.1207,-4.0777,-4.0346,-3.9897,-3.8843,-3.783,-3.7399,-3.6617,-3.5992,-3.5992,-3.6009,-3.6004,-3.6001,-3.565,-3.4908,-3.3601,-3.2656,-3.1948,-3.1519,-3.1075,-3.0791,-3.0791,-3.0804,-3.0451,-2.9574,-2.8308,-2.7197,-2.6342,-2.4705,-2.3945,-2.4374,-2.3556,-2.3109,-2.3109,-2.2661,-2.2443,-2.2459,-2.2459,-2.2672,-2.3079,-2.2211,-2.2027,0.0,0.0,0.0,0.0,0.0,0.0,0.0,0.0,-2.6389,-2.8148,-3.0392,-3.2498,-3.3904,-3.5563,-3.7476,-3.9683,-4.019,-4.0912,-4.2669,-4.3509,-4.3684,-4.2982,-4.2767,-4.2982,-4.386,-4.3801,-4.4133,-4.5168,-4.5909,-4.63,-4.63,-4.63,-4.63,-4.63,-4.6456,-4.6885,-4.7586,-4.7762,-4.8232,-4.9052,-4.9052,-4.9052,-4.9052,-4.9052,-4.8954,-4.8798,-4.8798,-4.8798,-4.8759,-4.8096,-4.7334,-4.6554,-4.6554,-4.6456,-4.63,-4.63,-4.63,-4.63,-4.63,-4.63,-4.63,-4.63,-4.5812,-4.5246,-4.5246,-4.4641,-4.3762,-4.2903,-4.2533,-4.2201,-4.1324,-4.1109,-4.0914,-4.0229,-3.9429,-3.8591,-3.7731,-3.6872,-3.6207,-3.6031,-3.6007,-3.6001,-3.5997,-3.599,-3.5693,-3.4835,-3.3362,-3.2281,-3.2125,-3.1334,-3.0801,-3.0801,-3.0801,-3.0451,-2.9574,-2.821,-2.7333,-2.7158,-2.5738,-2.4881,-2.4881,-2.4062,-2.3591,-2.3564,-2.3589,-2.3589,-2.3564,-2.3589,-2.3944,-2.4647,-2.4647,-2.4273,-2.3287,-2.3383,-2.4164,-2.4946,-2.5786,-2.723,0.0,0.0,-3.1738,-3.3476,-3.5291,-3.6638,-3.6833,-3.8238,-3.9722,-4.0777,-4.1596,-4.2728,-4.4463,-4.4795,-4.4816,-4.4717,-4.4036,-4.3899,-4.4777,-4.4153,-4.4387,-4.6027,-4.6241,-4.63,-4.63,-4.63,-4.63,-4.63,-4.7042,-4.7508,-4.7606,-4.831,-4.9091,-4.9948,-4.9948,-4.9948,-4.9948,-4.9948,-4.954,-4.8798,-4.8798,-4.8798,-4.8798,-4.8701,-4.8193,-4.745,-4.745,-4.6983,-4.63,-4.63,-4.63,-4.63,-4.63,-4.63,-4.63,-4.63,-4.6222,-4.6144,-4.6144,-4.5558,-4.468,-4.3801,-4.3001,-4.2201,-4.1324,-4.1109,-4.109,-4.0973,-4.0288,-3.9449,-3.863,-3.777,-3.6931,-3.6148,-3.5991,-3.6006,-3.6009,-3.6005,-3.5693,-3.4835,-3.3871,-3.2966,-3.2203,-3.1334,-3.0801,-3.0801,-3.0801,-3.0451,-2.9574,-2.9321,-2.8873,-2.8093,-2.7158,-2.6613,-2.6613,-2.5835,-2.5349,-2.5221,-2.5299,-2.5299,-2.5221,-2.5299,-2.5399,-2.5543,-2.5543,-2.5504,-2.6312,-2.6761,0.0,0.0,-2.9708,-3.1231,-3.3163,-3.4003,-3.4725,-3.5955,-3.7575,-3.8746,-3.8746,-3.9741,-4.0834,0.0,-4.2591,-4.3587,-4.4834,-4.499,-4.499,-4.499,-4.4231,-4.4036,-4.4914,-4.468,-4.4972,-4.6202,-4.63,-4.63,-4.63,-4.6788,-4.7061,-4.7061,-4.7861,-4.8545,-4.905,-4.9382,-4.9989,-5.0867,-5.0867,-5.0867,-5.0867,-5.0867,-5.0653,-5.0301,-5.0301,-5.0028,-4.9558,-4.9558,-4.9052,-4.8252,-4.7781,-4.7372,-4.7002,-4.6495,-4.63,-4.63,-4.63,-4.63,-4.63,-4.63,-4.63,-4.63,-4.63,-4.6046,-4.5578,-4.4699,-4.3821,-4.2962,-4.2084,-4.1479,-4.1109,-4.1109,-4.0424,-3.9702,-3.937,-3.8258,-3.7184,-3.6833,-3.6341,-3.6002,-3.5995,-3.5964,-3.5819,-3.5448,-3.4659,-3.3795,-3.2954,-3.2094,-3.1369,-3.086,-3.0801,-3.0645,-3.0295,-2.9788,-2.934,-2.8989,-2.8104,-2.7612,-2.7656,-2.6765,-2.6262,-2.6269,-2.5754,-2.5467,-2.5439,-2.5467,-2.5499,-2.5525,-2.5525,-2.5525,-2.8303,0.0,0.0,-3.1308,-3.3006,-3.4647,-3.5271,-3.6267,-3.7222,-3.7867,-3.9156,-4.0151,-4.0151,-4.0678,-4.1461,-4.2572,-4.3099,-4.3801,-4.5168,-4.4933,-4.4738,-4.4971,-4.4231,-4.4036,-4.4914,-4.499,-4.5363,-4.6222,-4.63,-4.63,-4.63,-4.7139,-4.7606,-4.7606,-4.8603,-4.9462,-5.0085,-5.0338,-5.0789,-5.1394,-5.1394,-5.1394,-5.1394,-5.1394,-5.1394,-5.1394,-5.1394,-5.1043,-5.0455,-5.0455,-4.995,-4.9091,-4.8523,-4.8016,-4.7528,-4.6885,-4.6515,-4.63,-4.63,-4.63,-4.63,-4.63,-4.63,-4.63,-4.63,-4.63,-4.6066,-4.4953,-4.4192,-4.343,-4.2337,-4.1576,-4.1109,-4.1109,-4.062,-4.0093,-3.9858,-3.8843,-3.7848,-3.7399,-3.6788,-3.6272,-3.6034,-3.5942,-3.5907,-3.5904,-3.5351,-3.4586,-3.3534,-3.2423,-3.1505,-3.0879,-3.0801,-3.0801,-3.0801,-3.0185,-2.9805,-2.9805,-2.8929,-2.844,-2.8478,-2.7555,-2.7043,-2.7071,-2.642,-2.6082,-2.6065,-2.6082,-2.6094,-2.6083,-2.6083,-2.6083,0.0,0.0,-3.2226,-3.3103,-3.5271,-3.7184,-3.7223,-3.8492,-3.9683,-3.9722,-4.0444,-4.1051,-4.1051,-4.109,-4.1656,-4.3374,-4.2962,-4.3333,-4.589,-4.4816,-4.4055,-4.4894,-4.4231,-4.4036,0.0,-4.499,-4.5363,-4.6222,-4.63,-4.63,-4.63,-4.7139,-4.7606,-4.7606,-4.9206,-5.0065,-5.0104,-5.0945,-5.1375,-5.1394,-5.1394,-5.1394,-5.1394,-5.1394,-5.1394,-5.1394,-5.1394,-5.1375,-5.1355,-5.1355,-5.0848,-5.0065,-5.0026,-4.9031,-4.7606,-4.7567,-4.7022,-4.63,-4.63,-4.63,-4.63,-4.63,-4.63,-4.63,-4.63,-4.63,-4.5948,-4.4211,-4.3725,-4.3295,-4.1597,-4.1129,-4.1109,-4.1109,-4.109,-4.0836,-3.9976,-3.9761,-3.9234,-3.7614,-3.7276,-3.6994,-3.6144,-3.5936,-3.5904,-3.5892,-3.5869,-3.5265,-3.3612,-3.1895,-3.084,-3.0801,-3.0801,-3.0801,-3.0801,-3.0655,-3.0577,-3.0577,-2.9678,-2.9177,-2.9162,-2.8336,-2.7827,-2.7769,-2.7803,-2.7783,-2.7725,-2.7783,-2.7826,-2.7825,-2.7825,-2.7825,0.0,0.0,-3.4315,-3.6345,-3.7906,-3.9117,-3.9683,-4.0268,-4.0503,-3.9917,-4.0034,-4.0073,-3.9548,-3.9879,-4.0815,-4.2552,-4.2591,-4.3313,-4.5929,-4.4797,-4.3801,-4.4094,-4.4387,0.0,0.0,0.0,0.0,-4.6222,-4.63,-4.6554,-4.7139,-4.7959,-4.8662,-4.9245,-5.0377,-5.0965,-5.0965,-5.1258,-5.1394,-5.1394,-5.1394,-5.1394,-5.1394,-5.1394,-5.1394,-5.1394,-5.1394,-5.1394,-5.1394,-5.1394,-5.1238,-5.0906,-5.0338,-4.9753,-4.9128,-4.8016,-4.7411,-4.7081,-4.6495,-4.63,-4.63,-4.63,-4.63,-4.63,-4.63,-4.63,-4.6066,-4.4894,-4.4153,-4.343,-4.2259,-4.1537,-4.1109,-4.1109,-4.1109,-4.103,-4.0728,-4.0219,-3.9632,-3.908,-3.802,-3.7139,-3.6842,-3.6306,-3.5904,-3.5892,-3.5402,-3.4645,-3.3534,-3.2384,-3.1447,-3.086,-3.0712,-3.0668,-3.0668,-3.0599,-3.0531,-3.0531,-3.0158,-2.9962,-3.0057,-2.9102,-2.8591,-2.8658,-2.8073,-2.7756,-2.772,-2.7756,-2.7773,-2.776,-2.776,-2.776,-3.3105,-3.4725,-3.6189,-3.8454,-3.9644,-4.0405,-4.0973,-4.0855,-4.0483,-3.9917,-3.9312,-3.8746,-3.824,-3.8297,-3.9214,-4.1557,-4.1439,-4.2279,-4.5792,-4.4524,-4.3469,-4.4094,-4.4387,-4.4445,0.0,0.0,0.0,-4.6222,-4.63,-4.6671,-4.7547,-4.8369,-4.9208,-5.0065,-5.0945,-5.1394,-5.1394,-5.1394,-5.1394,-5.1394,-5.1394,-5.1394,-5.1394,-5.1394,-5.1394,-5.1394,-5.1394,-5.1394,-5.1394,-5.1394,-5.1394,-5.1336,-5.0789,-5.0377,-4.9967,-4.8894,-4.8113,-4.7489,-4.6593,-4.63,-4.63,-4.63,-4.63,-4.63,-4.63,-4.63,-4.6124,-4.5246,-4.4602,-4.3899,-4.2708,-4.1986,-4.1498,-4.1168,-4.1106,-4.1103,-4.1095,-4.066,-4.0166,-3.9867,-3.8634,-3.7578,-3.7245,-3.6475,-3.5899,-3.5892,-3.5421,-3.4781,-3.3943,-3.2778,-3.1807,-3.124,-3.081,-3.0552,-3.0552,-3.0482,-3.0423,-3.0423,-3.0333,-3.0304,-3.0389,-2.973,-2.941,-2.9481,-2.89,-2.8599,-2.8599,-2.8599,-2.8599,-2.8599,-2.8599,-2.8599,-3.4413,-3.613,-3.7828,-3.9468,-4.0483,-4.109,-4.1031,-4.0366,-3.9702,-3.9624,-3.8277,-3.7087,0.0,0.0,-3.7027,-4.0367,-3.9684,-4.0485,-4.5539,-4.4094,-4.3157,0.0,0.0,0.0,0.0,0.0,0.0,-4.63,0.0,-4.6749,-4.7625,-4.8427,-4.9267,-5.0143,-5.0965,-5.1394,-5.1394,-5.1394,-5.1394,-5.1394,-5.1394,-5.1394,-5.1394,-5.1394,-5.1394,-5.1394,-5.1394,-5.1394,-5.1394,-5.1394,-5.1394,-5.1394,-5.1394,-5.0887,-5.0163,-5.0124,-4.907,-4.7547,-4.6671,-4.6339,-4.63,-4.63,-4.63,-4.63,-4.63,-4.63,-4.6124,-4.5246,-4.499,-4.46,-4.2845,-4.2394,-4.218,-4.1303,-4.1101,-4.1092,-4.1092,-4.1103,-4.0859,-4.0021,-3.9136,-3.821,-3.7349,-3.6482,-3.5908,-3.5908,-3.5908,-3.5597,-3.47,-3.3093,-3.1995,-3.1921,-3.1097,-3.055,-3.0492,-3.037,-3.0296,-3.0296,-3.0241,-3.0211,-3.0211,-3.0211,-3.0211,-3.0211,-3.0211,-3.0211,-3.0211,-3.0211,-3.0211,-3.0211,-3.0211,-3.0211,-3.6951,-3.8375,-3.9429,-4.0503,-4.0934,-4.0934,-4.0288,-3.9507,-3.8531,-3.7241,-3.5602,-3.4198,0.0,0.0,0.0,-3.7926,-3.9509,0.0,-4.4875,-4.4758,0.0,0.0,0.0,-4.546,-4.5029,-4.5597,0.0,0.0,-4.7276,-4.7627,-4.8447,-4.9306,-5.0163,-5.1043,-5.1277,-5.1394,-5.1394,-5.1394,-5.1394,-5.1394,-5.1394,-5.1394,-5.1394,-5.1394,-5.1394,-5.1394,-5.1394,-5.1394,-5.1394,-5.1394,-5.1394,-5.1394,-5.1394,-5.1258,-5.0984,-5.0338,-4.9421,-4.8388,-4.7549,-4.6846,-4.63,-4.63,-4.63,-4.63,-4.63,-4.63,-4.6124,-4.5246,-4.499,-4.46,-4.2845,-4.2391,-4.2173,-4.1312,-4.1109,-4.1096,-4.1108,-4.1103,-4.1039,-4.0811,-3.9541,-3.8213,-3.7356,-3.6476,-3.5908,-3.5908,-3.5908,-3.5597,-3.47,-3.4156,-3.3351,-3.2034,-3.156,-3.1066,-3.0411,-3.0279,-3.0221,-3.0221,-3.0206,-3.0211,-3.0211,-3.0211,-3.0211,-3.0211,-3.0211,-3.0211,-3.0211,-3.0211,-3.0211,-3.0211,-3.0211,-3.0211,-3.863,-3.9741,-4.0483,-4.0973,-4.0816,-4.021,-3.898,-3.775,-3.6385,-3.4647,-3.2929,0.0,0.0,0.0,0.0,0.0,0.0,0.0,-4.4524,-4.499,-4.5148,0.0,-4.6007,0.0,-4.5617,-4.6007,-4.6651,0.0,-4.7606,-4.8113,-4.9306,-4.9831,-5.0494,-5.1375,-5.1394,-5.1394,-5.1394,-5.1394,-5.1394,-5.1394,-5.1394,-5.1394,-5.1394,-5.1394,-5.1394,-5.1394,0.0,-5.1394,-5.1394,-5.1394,-5.1394,-5.1394,-5.1394,-5.1394,-5.1336,-5.0848,-4.9872,-4.874,-4.8271,-4.7315,-4.63,-4.63,-4.6554,-4.6807,-4.6417,-4.63,-4.6202,-4.5714,-4.5574,-4.5258,-4.3892,-4.3513,-4.3195,-4.1965,-4.1661,-4.1571,-4.1176,-4.1049,-4.0901,-4.0517,-3.9678,-3.8646,-3.7409,-3.6745,-3.6258,-3.5866,-3.582,-3.5612,-3.5119,-3.4667,-3.4017,-3.2982,-3.2081,-3.1353,-3.0874,-3.0444,-3.0211,-3.0211,-3.0211,-3.0211,-3.0211,-3.0211,-3.0211,-3.0211,-3.0211,-3.0211,-3.0211,-3.0211,-3.0211,-3.0211,-3.0211,-3.0211,-3.9741,-4.0522,-4.1109,-4.1109,-4.0444,-3.9331,-3.7536,-3.5779,-3.3964,-3.1992,0.0,-2.9085,-2.9085,0.0,-3.1601,-3.5094,0.0,-4.0016,-4.4075,-4.4854,-4.5285,-4.6046,-4.6222,-4.63,-4.63,-4.6397,-4.6827,-4.7684,-4.7879,-4.8562,-5.0026,-5.0202,-5.0612,-5.1375,-5.1394,-5.1394,-5.1394,-5.1394,-5.1394,-5.1394,-5.1394,-5.1394,-5.1394,-5.1394,-5.1394,-5.1394,-5.1394,-5.1394,-5.1394,-5.1394,-5.1394,-5.1394,-5.1394,-5.1394,-5.1394,-5.1394,-5.0301,-4.8798,-4.8798,-4.7783,-4.6475,-4.6475,-4.6905,-4.7313,-4.6671,-4.6397,-4.63,-4.63,-4.6294,-4.6108,-4.5228,-4.4946,-4.4504,-4.2916,-4.246,-4.2175,-4.138,-4.1038,-4.0655,-3.9893,-3.9695,-3.9194,-3.7748,-3.7195,-3.6718,-3.5968,-3.576,-3.566,-3.5577,-3.4925,-3.437,-3.4122,-3.2745,-3.179,-3.1675,-3.0968,-3.0472,-3.0376,-3.0376,-3.0319,-3.0211,-3.0211,-3.0211,-3.0211,-3.0211,-3.0211,-3.0211,-3.0211,-3.0211,-3.0211,-3.0211,-3.0211,-4.0639,-4.0973,-4.1109,-4.1109,-4.0444,-3.9175,-3.6773,-3.488,0.0,0.0,0.0,-2.6371,-2.6371,-2.7678,0.0,-3.3299,0.0,0.0,0.0,0.0,-4.5068,0.0,0.0,0.0,0.0,0.0,0.0,0.0,0.0,-4.9792,-5.0085,-5.0789,-5.1238,-5.1394,-5.1394,-5.1394,-5.1394,-5.1394,-5.1394,-5.1394,-5.1394,-5.1394,-5.1394,-5.1394,-5.1394,-5.1394,-5.1394,0.0,-5.1394,-5.1394,-5.1394,-5.1394,-5.1394,-5.1394,-5.1394,-5.1394,-5.0301,-4.8798,-4.8798,-4.8174,-4.7372,-4.7372,-4.6983,-4.6632,-4.7198,-4.6866,-4.63,-4.63,-4.6294,-4.6108,-4.5228,-4.496,-4.4614,-4.3494,-4.2763,-4.221,-4.184,-4.1226,-4.0692,-4.0537,-3.9942,-3.9354,-3.9063,-3.7807,-3.6784,-3.6629,-3.603,-3.5571,-3.5451,-3.5353,-3.4998,-3.4193,-3.3779,-3.3261,-3.2546,-3.2355,-3.1954,-3.1236,-3.1236,-3.0949,-3.023,-3.0211,-3.0211,-3.0211,-3.0211,-3.0211,-3.0211,-3.0211,-3.0211,-3.0211,-3.0211,-3.0211,-4.0803,-4.1074,-4.1109,-4.1109,-3.978,-3.7806,-3.5196,0.0,0.0,0.0,0.0,-2.4348,-2.4358,0.0,0.0,0.0,0.0,0.0,0.0,0.0,0.0,0.0,0.0,0.0,0.0,0.0,0.0,0.0,0.0,-4.9813,-5.0731,-5.118,-5.1394,-5.1394,-5.1394,-5.1394,-5.1394,-5.1394,-5.1394,-5.1394,-5.1394,-5.1394,-5.1394,-5.1394,-5.1394,-5.1394,-5.1394,0.0,-5.1394,-5.1394,-5.1394,-5.1394,-5.1394,-5.1394,-5.1394,-5.1394,-5.0301,-4.8798,-4.8798,-4.7978,-4.7057,-4.7908,-4.7626,-4.7042,-4.7469,-4.6999,-4.6288,-4.6164,-4.6138,-4.6029,-4.5533,-4.5376,-4.5084,-4.4184,-4.3012,-4.1923,-4.1298,-4.0899,-4.063,-4.0602,-4.0301,-3.9895,-3.9463,-3.8653,-3.7751,-3.6884,-3.6395,-3.5919,-3.5369,-3.5371,-3.5244,-3.4728,-3.4263,-3.3834,-3.3414,-3.2967,-3.2527,-3.2107,-3.1687,-3.1274,-3.0892,-3.0433,-3.0211,-3.0211,-3.0211,-3.0211,-3.0211,-3.0211,-3.0211,-3.0211,-3.0211,-3.0211,-4.0548,-4.0901,-4.1051,-4.0875,-3.9058,-3.6554,-3.3674,-3.0529,0.0,0.0,0.0,-2.2799,-2.2802,0.0,0.0,0.0,0.0,0.0,0.0,0.0,0.0,0.0,0.0,0.0,0.0,0.0,0.0,0.0,0.0,0.0,-5.1336,-5.1394,-5.1394,-5.1394,-5.1394,-5.1394,-5.1394,-5.1394,-5.1394,-5.1394,-5.1394,-5.1394,-5.1394,-5.1394,-5.1394,-5.1394,-5.1394,0.0,-5.1394,-5.1394,-5.1394,-5.1394,-5.1394,-5.1394,-5.1394,-5.1394,-5.0301,-4.8796,-4.8788,-4.7789,-4.6765,-4.8199,-4.8029,-4.7338,-4.7696,-4.7039,-4.618,-4.6021,-4.5969,-4.5928,-4.5828,-4.5757,-4.5452,-4.4452,-4.3127,-4.18,-4.0708,-4.0508,-4.053,-4.0476,-4.0492,-4.0328,-3.97,-3.9345,-3.8647,-3.7148,-3.6715,-3.6239,-3.5313,-3.5289,-3.5312,-3.5218,-3.4636,-3.4254,-3.4254,-3.3635,-3.3158,-3.2986,-3.2336,-3.1904,-3.1771,-3.0911,-3.0452,-3.0472,-3.0307,-3.0211,-3.0211,-3.0211,-3.0211,-3.0211,-3.0211,-3.0211,-3.9797,-4.0457,-4.0914,-4.0112,-3.8609,-3.6398,-3.2914,0.0,0.0,0.0,-2.2428,-2.183,-2.1835,-2.2678,0.0,0.0,0.0,0.0,0.0,0.0,0.0,0.0,0.0,0.0,0.0,0.0,0.0,0.0,0.0,0.0,-5.1394,-5.1394,-5.1394,-5.1394,-5.1394,-5.1394,-5.1394,-5.1394,-5.1394,-5.1394,-5.1394,-5.1394,-5.1394,-5.1394,-5.1394,-5.1394,-5.1394,0.0,0.0,-5.1394,-5.1394,-5.1394,-5.1394,-5.1394,-5.1394,-5.1394,-5.0301,-4.8792,-4.8727,-4.8096,-4.7435,-4.8239,-4.7479,-4.6504,-4.7977,-4.725,-4.5928,-4.5917,-4.5871,-4.5816,-4.5803,-4.5757,-4.529,-4.3696,-4.3019,-4.2288,-4.0735,-4.0379,-4.0328,-4.0319,-4.0319,-4.029,-4.0223,-3.9544,-3.8694,-3.7757,-3.6984,-3.6192,-3.5305,-3.5218,-3.5218,-3.5209,-3.5133,-3.5095,-3.5095,-3.5018,-3.4655,-3.3929,-3.3823,-3.3414,-3.2623,-3.1744,-3.1331,-3.1389,-3.0605,-3.0211,-3.0211,-3.0211,-3.0211,-3.0211,-3.0211,-3.0211,-3.9342,-4.0325,-4.0842,-4.0008,-3.8046,-3.5557,-3.2614,0.0,-2.5828,-2.3434,-2.1836,-2.0864,-2.09,-2.1629,-2.3128,0.0,0.0,0.0,0.0,0.0,0.0,0.0,0.0,0.0,0.0,0.0,0.0,0.0,0.0,0.0,-5.0508,-5.1067,-5.1394,-5.1394,-5.1394,-5.1394,-5.1394,-5.1394,-5.1394,-5.1394,-5.1394,-5.1394,-5.1394,-5.1394,-5.1394,-5.1394,-5.1394,0.0,0.0,-5.1394,-5.1394,-5.1392,-5.1302,-5.1327,-5.1332,-5.0717,-4.9747,-4.8655,-4.8119,-4.7641,-4.7315,-4.7527,-4.7159,-4.686,-4.808,-4.7214,-4.5808,-4.5684,-4.563,-4.5599,-4.5518,-4.5493,-4.5043,-4.3354,-4.2881,-4.2355,-4.0709,-4.0328,-4.0301,-4.0301,-4.0301,-4.0301,-4.0301,-4.0014,-3.9317,-3.7903,-3.7426,-3.6738,-3.5381,-3.5209,-3.5209,-3.5209,-3.5209,-3.5209,-3.5209,-3.5209,-3.5057,-3.4732,-3.4273,-3.3834,-3.3509,-3.2642,-3.2203,-3.2222,-3.1408,-3.0987,-3.0987,-3.0452,-3.0211,-3.0204,-3.0698,-3.0932,-3.8006,-3.9295,-4.0004,-3.9173,-3.7131,-3.4672,0.0,0.0,-2.4923,-2.3215,-2.1508,-2.0308,-2.036,-2.1069,-2.2213,-2.3957,0.0,-2.7573,0.0,0.0,0.0,0.0,0.0,0.0,0.0,0.0,0.0,0.0,0.0,0.0,-4.9495,-5.0153,-5.0792,-5.1313,-5.1388,-5.1388,-5.1333,-5.1388,-5.1388,-5.1333,-5.1388,-5.1394,-5.1394,-5.1394,-5.1394,-5.1394,-5.1394,0.0,0.0,-5.1108,-5.0993,-5.0978,-5.0568,-5.0481,-5.0511,-4.9761,-4.897,-4.8167,-4.7533,-4.7236,-4.7126,-4.6974,-4.6934,-4.7069,-4.7673,-4.683,-4.5657,-4.5505,-4.5464,-4.5419,-4.5319,-4.5307,-4.4934,-4.3501,-4.2966,-4.2412,-4.0979,-4.0473,-4.0301,-4.0301,-4.0301,-4.0301,-4.0301,-4.0301,-3.9804,-3.8304,-3.7865,-3.7196,-3.5774,-3.5354,-3.5209,-3.5209,-3.5209,-3.5209,-3.5209,-3.5209,-3.5209,-3.5209,-3.4674,-3.435,-3.435,-3.3547,-3.3081,-3.3081,-3.226,-3.184,-3.184,-3.1221,-3.0908,-3.0927,-3.1493,-3.1737,-3.5407,-3.6958,-3.8112,-3.7249,-3.5753,-3.3814,0.0,-2.7857,-2.4911,-2.317,-2.1466,-2.0288,-2.0292,-2.0966,-2.2066,-2.3821,-2.5552,0.0,0.0,0.0,0.0,0.0,0.0,0.0,0.0,0.0,0.0,0.0,0.0,0.0,-4.8505,-4.8524,-4.9348,-5.1141,-5.133,-5.1333,-5.1203,-5.133,-5.133,-5.1203,-5.1333,-5.1394,-5.1394,-5.1394,-5.1394,-5.1394,0.0,0.0,0.0,-5.0401,-5.0043,-5.0018,-4.8933,-4.8603,-4.8709,-4.856,-4.7955,-4.7195,-4.7126,-4.7064,-4.6974,-4.6855,-4.6801,-4.6781,-4.6664,-4.6059,-4.5389,-4.5408,-4.5348,-4.5307,-4.5307,-4.5307,-4.5067,-4.4197,-4.3386,-4.2565,-4.1686,-4.0864,-4.0301,-4.0301,-4.0301,-4.0301,-4.0301,-4.0301,-3.9995,-3.9126,-3.8247,-3.7406,-3.6596,-3.5736,-3.5209,-3.5209,-3.5209,-3.5209,-3.5209,-3.5209,-3.5209,-3.5209,-3.519,-3.519,-3.519,-3.4407,-3.3995,-3.3995,-3.3119,-3.2699,-3.2699,-3.2615,-3.2572,-3.2572,-3.2589,-3.2547,-3.2759,-3.3868,-3.4548,-3.372,-3.2607,-3.1182,-2.9242,-2.6573,-2.4189,-2.3037,-2.1466,-2.0308,-2.0308,-2.05,-2.1615,-2.4466,-2.588,0.0,0.0,0.0,0.0,0.0,0.0,0.0,0.0,0.0,0.0,0.0,0.0,0.0,-4.7482,-4.8124,-4.904,-5.0218,-5.0291,-5.0559,-5.1063,-5.1113,-5.1113,-5.1063,-5.1118,-5.1132,-5.1113,-5.0553,-5.0304,0.0,0.0,0.0,-4.9394,-4.909,-4.8997,-4.8952,-4.8534,-4.8448,-4.8477,-4.7746,-4.7327,-4.7036,-4.638,-4.646,-4.6758,-4.6081,-4.6225,-4.6549,-4.5963,-4.5599,-4.5398,-4.5338,-4.5317,-4.5307,-4.5307,-4.5307,-4.5067,-4.4197,-4.3386,-4.2565,-4.1686,-4.0864,-4.0301,-4.0301,-4.0301,-4.0301,-4.0301,-4.0301,-3.9995,-3.9126,-3.8266,-3.7406,-3.6596,-3.5736,-3.5209,-3.5209,-3.5209,-3.5209,-3.5209,-3.5209,-3.5209,-3.5209,-3.5209,-3.5209,-3.5209,-3.4961,-3.4827,-3.4827,-3.4006,-3.357,-3.3519,-3.2904,-3.2891,-3.343,-3.3413,-3.3682,0.0,-3.1414,-3.1951,-3.1465,-3.0617,-2.949,-2.7841,-2.5725,-2.3764,-2.2566,-2.1235,-2.0308,-2.0308,-2.0558,-2.1538,-2.3962,-2.562,0.0,0.0,0.0,0.0,0.0,0.0,0.0,0.0,0.0,0.0,0.0,0.0,0.0,-4.6484,-4.7078,-4.7811,-4.8676,-4.9089,-4.9676,-5.0468,-5.0518,-5.0518,-5.0468,-5.0524,-5.0373,-5.0042,-4.9543,-4.9315,0.0,0.0,-4.8505,0.0,-4.8124,-4.7994,-4.7958,-4.7478,-4.7349,-4.7442,-4.7086,-4.697,-4.695,-4.6659,-4.6661,-4.6666,-4.6061,-4.5963,-4.6018,-4.5501,-4.5359,-4.5348,-4.5317,-4.5307,-4.5307,-4.5307,-4.5307,-4.5067,-4.4197,-4.3386,-4.2565,-4.1686,-4.0864,-4.0301,-4.0301,-4.0301,-4.0301,-4.0301,-4.0301,-4.011,-3.9565,-3.8744,-3.7884,-3.7063,-3.6214,-3.5564,-3.5248,-3.5209,-3.5209,-3.5209,-3.5209,-3.5209,-3.5209,-3.5209,-3.5209,-3.5209,-3.5209,-3.5209,-3.5209,-3.4716,-3.4432,-3.438,-3.3786,-3.3754,-3.4215,-3.4215,-3.4462,0.0,-2.9236,-2.9865,-2.9865,-2.9256,-2.8242,-2.6678,-2.5087,0.0,-2.1831,-2.0865,-2.0346,-2.0462,-2.1038,-2.1889,-2.3067,-2.5293,0.0,0.0,0.0,0.0,0.0,0.0,0.0,0.0,0.0,0.0,0.0,0.0,0.0,-4.5594,-4.5594,-4.597,-4.6778,-4.7778,-4.869,-4.9486,-4.9608,-4.9608,-4.9486,-4.9615,-4.9268,-4.8477,-4.8419,-4.84,0.0,0.0,-4.8283,-4.8239,-4.7352,-4.7036,-4.6987,-4.5997,-4.5714,-4.5965,-4.6647,-4.6896,-4.6993,-4.7732,-4.7434,-4.6665,-4.6557,-4.595,-4.5307,-4.5307,-4.5307,-4.5307,-4.5307,-4.5307,-4.5307,-4.5307,-4.5307,-4.5105,-4.4274,-4.3443,-4.2584,-4.1762,-4.0903,-4.0301,-4.0301,-4.0301,-4.0301,-4.0301,-4.0301,-4.0301,-4.0301,-3.9565,-3.8706,-3.7903,-3.7043,-3.6194,-3.5373,-3.5248,-3.5209,-3.5209,-3.5209,-3.5209,-3.5209,-3.5209,-3.5209,-3.5209,-3.5209,-3.5201,-3.5201,-3.5198,-3.5191,-3.5191,-3.5066,-3.4955,-3.4908,-3.4908,-3.4908,-2.3836,0.0,-2.4582,-2.4582,-2.4432,-2.4182,0.0,-2.287,-2.1985,0.0,0.0,-2.0692,-2.1985,-2.1812,-2.2831,-2.6953,-2.8679,0.0,0.0,0.0,0.0,0.0,0.0,0.0,0.0,0.0,0.0,0.0,0.0,-4.5594,-4.5594,-4.5594,-4.5691,-4.5893,-4.6141,-4.6976,-4.8447,-4.8472,-4.8472,-4.8447,-4.8472,-4.84,-4.8169,-4.7571,-4.7282,0.0,-4.6576,-4.6286,-4.6267,-4.6045,-4.5957,-4.5943,-4.5706,-4.6035,-4.6658,-4.6845,-4.7242,-4.7751,-4.7933,-4.7403,-4.6518,-4.5835,-4.547,-4.5307,-4.5307,-4.5307,-4.5307,-4.5307,-4.5307,-4.5307,-4.5307,-4.5307,-4.525,-4.5029,-4.3864,-4.2737,-4.2545,-4.1342,-4.0301,-4.0301,-4.0301,-4.0301,-4.0301,-4.0301,-4.0301,-4.0301,-3.9565,-3.8935,-3.8725,-3.7398,-3.6424,-3.6214,-3.5602,-3.5209,-3.5209,-3.5209,-3.5209,-3.5209,-3.5209,-3.5209,-3.5209,-3.5209,-3.5193,-3.5198,-3.5101,-3.5057,-3.5057,-3.4955,-3.4917,-3.4908,-3.4908,-3.4908,-2.1523,-2.2774,-2.3947,-2.3947,-2.4255,-2.4332,-2.3567,0.0,0.0,0.0,0.0,0.0,-2.2566,0.0,0.0,0.0,0.0,0.0,0.0,0.0,0.0,0.0,0.0,0.0,0.0,0.0,0.0,0.0,0.0,-4.5594,-4.5594,-4.5594,-4.5594,-4.5594,-4.5594,-4.622,-4.7548,-4.7548,-4.7548,-4.7548,-4.7548,-4.7336,-4.6932,-4.649,-4.6297,0.0,-4.5806,-4.5594,-4.5594,-4.5594,-4.5594,-4.5633,-4.6028,-4.649,-4.6981,-4.7722,-4.8222,-4.8556,-4.8524,-4.7648,-4.6428,-4.5575,-4.5307,-4.5307,-4.5307,-4.5307,-4.5307,-4.5307,-4.5307,-4.5307,-4.5307,-4.5307,-4.5201,-4.48,-4.373,-4.2698,-4.2297,-4.1208,-4.0301,-4.0301,-4.0301,-4.0301,-4.0301,-4.0301,-4.0301,-4.0301,-3.99,-3.9451,-3.9049,-3.8209,-3.734,-3.6576,-3.608,-3.5621,-3.5229,-3.5209,-3.5209,-3.5209,-3.5204,-3.5196,-3.5196,-3.5179,-3.5145,-3.512,-3.5048,-3.4973,-3.4945,-3.4917,-3.4908,-3.4908,-3.4908,-3.4908,-2.0615,-2.2942,-2.5212,-2.4827,-2.5481,-2.5813,-2.4259,0.0,0.0,0.0,0.0,0.0,0.0,0.0,0.0,0.0,0.0,0.0,0.0,0.0,0.0,0.0,0.0,0.0,0.0,0.0,0.0,0.0,0.0,-4.5594,-4.5594,-4.5594,-4.5594,-4.5594,-4.5594,-4.5951,-4.6701,-4.6701,-4.6701,-4.6701,-4.6701,-4.6317,-4.5594,-4.5594,-4.5594,-4.5614,0.0,0.0,-4.5806,-4.5941,-4.5979,-4.6056,-4.6797,-4.7154,-4.7442,-4.8808,-4.9333,-4.9358,-4.9026,-4.7939,-4.6538,-4.5602,-4.5307,-4.5307,-4.5307,-4.5307,-4.5307,-4.5307,-4.5307,-4.5307,-4.5307,-4.5307,-4.5105,-4.4369,-4.3482,-4.2603,-4.1858,-4.096,-4.0301,-4.0301,-4.0301,-4.0301,-4.0301,-4.0301,-4.0301,-4.0301,-4.0301,-4.0034,-3.9298,-3.9088,-3.8457,-3.7035,-3.6653,-3.6194,-3.545,-3.5286,-3.5201,-3.5193,-3.5198,-3.52,-3.5191,-3.5129,-3.5066,-3.5001,-3.4992,-3.4955,-3.4908,-3.4908,-3.4908,-3.4908,-3.4908,-3.4908,-2.2023,-2.3832,-2.4788,-2.2615,-2.3293,-2.4221,-2.322,0.0,0.0,0.0,0.0,0.0,0.0,0.0,0.0,0.0,0.0,0.0,0.0,0.0,0.0,0.0,0.0,0.0,0.0,0.0,0.0,0.0,0.0,-4.5594,-4.5594,-4.5594,-4.5594,-4.5594,-4.5594,-4.5671,-4.5806,-4.5806,-4.5806,-4.5806,-4.5806,-4.5729,-4.5594,-4.5594,-4.5594,-4.5633,0.0,-4.6701,-4.6759,-4.7432,-4.7721,-4.774,-4.7855,-4.8375,-4.9038,-4.923,-4.9717,-5.0087,-4.8531,-4.7818,-4.736,-4.5793,-4.5307,-4.5307,-4.5307,-4.5307,-4.5307,-4.5307,-4.5307,-4.5307,-4.5307,-4.5307,-4.5269,-4.5125,-4.3921,-4.2756,-4.2622,-4.1399,-4.0301,-4.0301,-4.0301,-4.0301,-4.0301,-4.0301,-4.0301,-4.0301,-4.0301,-4.0244,-4.011,-3.947,-3.8897,-3.8648,-3.734,-3.6443,-3.6309,-3.5621,-3.5193,-3.5198,-3.5208,-3.5164,-3.5129,-3.5057,-3.5011,-3.5001,-3.4945,-3.4917,-3.4908,-3.4908,-3.4908,-3.4908,-3.4908,-3.4908,-2.1235,-2.3024,-2.437,-2.3201,-2.4875,-2.6587,-2.576,0.0,0.0,0.0,0.0,0.0,0.0,0.0,0.0,0.0,0.0,0.0,0.0,0.0,0.0,0.0,0.0,0.0,0.0,0.0,0.0,0.0,0.0,0.0,-4.5594,-4.5594,-4.5594,-4.5594,-4.5594,-4.5594,-4.5594,-4.5594,-4.5594,-4.5614,-4.6086,-4.6297,-4.6297,-4.6297,-4.6547,-4.6971,0.0,-4.7288,-4.6923,-4.7288,-4.7163,-4.6836,-4.7759,-4.8068,-4.8097,-4.891,-4.9135,-4.8928,-4.8097,-4.7207,-4.6328,-4.5545,-4.5307,-4.5307,-4.5307,-4.5307,-4.5307,-4.5307,-4.5307,-4.5307,-4.5307,-4.5307,-4.5307,-4.5307,-4.4017,-4.2794,-4.2794,-4.1476,-4.0301,-4.0301,-4.0301,-4.0301,-4.0301,-4.0301,-4.0301,-4.0301,-4.0301,-4.0301,-4.0301,-3.9938,-3.9527,-3.9049,-3.8304,-3.7474,-3.6576,-3.6101,-3.5647,-3.5185,-3.5101,-3.5066,-3.5001,-3.4955,-3.4945,-3.4945,-3.4917,-3.4908,-3.4908,-3.4908,-3.4908,-3.4908,-3.4908,-3.4908,-2.0769,-2.247,-2.4187,-2.4586,0.0,-2.8453,-2.8222,0.0,0.0,0.0,0.0,0.0,0.0,0.0,0.0,0.0,0.0,0.0,0.0,0.0,0.0,0.0,0.0,0.0,0.0,0.0,0.0,0.0,0.0,0.0,-4.5594,-4.5594,-4.5594,-4.5594,-4.5594,-4.5594,-4.5594,-4.5806,-4.5806,-4.5614,-4.6278,-4.6605,-4.6605,-4.6605,-4.6932,-4.7528,-4.774,-4.7471,-4.6904,-4.7096,-4.6797,-4.6317,-4.7596,-4.7665,-4.7213,-4.8607,-4.8551,-4.7788,-4.7788,-4.6825,-4.5545,-4.5364,-4.5307,-4.5307,-4.5307,-4.5307,-4.5307,-4.5307,-4.5307,-4.5307,-4.5307,-4.5307,-4.5307,-4.5307,-4.415,-4.3023,-4.2832,-4.1628,-4.054,-4.0339,-4.0301,-4.0301,-4.0301,-4.0301,-4.0301,-4.0301,-4.0301,-4.0301,-4.0301,-4.0301,-4.0034,-3.9374,-3.9126,-3.8391,-3.6903,-3.6535,-3.609,-3.5426,-3.5134,-3.4964,-3.4889,-3.4908,-3.4908,-3.4908,-3.4908,-3.4908,-3.4908,-3.4908,-3.4908,-3.4908,-3.4908,-3.4908,-2.2197,-2.3336,-2.4471,-2.6024,-2.6601,0.0,-2.8665,-2.9011,0.0,-3.1006,0.0,0.0,0.0,0.0,0.0,0.0,0.0,0.0,0.0,0.0,0.0,0.0,0.0,0.0,0.0,0.0,0.0,0.0,0.0,0.0,-4.5594,-4.5594,-4.5594,-4.5594,-4.5594,-4.5594,-4.5594,-4.6394,-4.6394,-4.5594,-4.5671,-4.5691,-4.5691,-4.5691,-4.5729,-4.5825,-4.6644,-4.6942,-4.6962,-4.7721,-4.799,-4.7923,-4.8058,-4.8,-4.7926,-4.8786,-4.8551,-4.7788,-4.7788,-4.7177,-4.629,-4.5545,-4.5307,-4.5307,-4.5307,-4.5307,-4.5307,-4.5307,-4.5307,-4.5307,-4.5307,-4.5307,-4.5307,-4.5307,-4.459,-4.3701,-4.2966,-4.2068,-4.1189,-4.0435,-4.0301,-4.0301,-4.0301,-4.0301,-4.0301,-4.0301,-4.0301,-4.0301,-4.0301,-4.0301,-4.0282,-4.0205,-3.9489,-3.863,-3.7698,-3.6814,-3.6273,-3.6226,-3.5438,-3.4964,-3.4889,-3.4908,-3.4908,-3.4908,-3.4908,-3.4908,-3.4908,-3.4908,-3.4908,-3.4908,-3.4908,-3.4908,-2.1081,-2.3004,-2.5005,-2.5635,-2.7385,0.0,0.0,-3.1102,-3.1968,0.0,0.0,0.0,0.0,0.0,0.0,0.0,0.0,0.0,0.0,0.0,0.0,0.0,0.0,0.0,0.0,0.0,0.0,0.0,0.0,0.0,-4.5594,-4.5594,-4.5594,-4.5594,-4.5594,-4.5594,-4.5594,-4.5932,-4.5932,-4.5614,-4.6144,-4.6413,-4.6413,-4.6413,-4.6682,-4.7163,-4.7509,-4.7355,-4.6923,-4.7231,-4.7028,-4.6547,-4.6445,-4.702,-4.7867,-4.7595,-4.7256,-4.6997,-4.6997,-4.6443,-4.5698,-4.5392,-4.5307,-4.5307,-4.5307,-4.5307,-4.5307,-4.5307,-4.5307,-4.5307,-4.5307,-4.5307,-4.5307,-4.5307,-4.4628,-4.3911,-4.3605,-4.2469,-4.1399,-4.1113,-4.0635,-4.0301,-4.0301,-4.0301,-4.0301,-4.0301,-4.0301,-4.0301,-4.0301,-4.0301,-4.0301,-4.0301,-3.948,-3.8794,-3.8423,-3.7566,-3.6815,-3.6273,-3.541,-3.4927,-3.4908,-3.4908,-3.4908,-3.4908,-3.4908,-3.4908,-3.4908,-3.4908,-3.4908,-3.4908,-3.4908,-3.4821,-2.0673,-2.2754,-2.5043,-2.5577,0.0,0.0,-3.2519,-3.3526,-3.468,0.0,0.0,0.0,0.0,0.0,0.0,0.0,0.0,0.0,0.0,0.0,0.0,0.0,0.0,0.0,0.0,0.0,0.0,0.0,0.0,0.0,0.0,-4.5594,-4.5594,-4.5594,-4.5594,-4.5594,-4.5594,-4.5594,-4.5594,-4.5614,-4.6201,-4.649,-4.649,-4.649,-4.6797,-4.7317,-4.7317,-4.7009,-4.649,-4.649,-4.6106,-4.5541,-4.5438,-4.6098,-4.7023,-4.6645,-4.6347,-4.6156,-4.6405,-4.5965,-4.5307,-4.5307,-4.5307,-4.5307,-4.5307,-4.5307,-4.5307,-4.5307,-4.5307,-4.5307,-4.5307,-4.5307,-4.5307,-4.5307,-4.4838,-4.4284,-4.3739,-4.2717,-4.1743,-4.1227,-4.0692,-4.0301,-4.0301,-4.0301,-4.0301,-4.0301,-4.0301,-4.0301,-4.0263,-4.0263,-4.0253,-4.0234,-3.9652,-3.9261,-3.9174,-3.8412,-3.764,-3.7021,-3.5931,-3.5192,-3.4908,-3.4908,-3.4908,-3.4908,-3.4908,-3.4908,-3.4908,-3.4908,-3.4908,-3.4908,-3.4908,-3.4801,-2.1504,-2.2797,-2.4529,0.0,0.0,0.0,0.0,0.0,0.0,0.0,0.0,0.0,0.0,0.0,0.0,0.0,0.0,0.0,0.0,0.0,0.0,0.0,0.0,0.0,0.0,0.0,0.0,0.0,0.0,0.0,0.0,-4.5594,-4.5594,-4.5594,-4.5594,-4.5594,-4.5594,-4.5594,-4.5594,-4.5594,-4.5594,-4.5594,-4.5594,-4.5594,-4.5594,-4.5594,-4.5594,-4.5594,-4.5594,-4.5594,-4.5513,-4.54,-4.5409,-4.5348,-4.5403,-4.6194,-4.5984,-4.5411,-4.6214,-4.5965,-4.5307,-4.5307,-4.5307,-4.5307,-4.5307,-4.5307,-4.5307,-4.5307,-4.5307,-4.5307,-4.5307,-4.5307,-4.5307,-4.5307,-4.5307,-4.4838,-4.3176,-4.2813,-4.2316,-4.0645,-4.0301,-4.0301,-4.0301,-4.0301,-4.0301,-4.0301,-4.0301,-4.0291,-4.0206,-4.0196,-4.0176,-4.0117,-4.0106,-4.0067,-3.9996,-3.9275,-3.8779,-3.8709,-3.7144,-3.5836,-3.4946,-3.4908,-3.4908,-3.4908,-3.4908,-3.4908,-3.4908,-3.4908,-3.4908,-3.4908,-3.4908,-3.4791,-2.1677,-2.4082,0.0,0.0,0.0,0.0,0.0,0.0,0.0,0.0,0.0,0.0,0.0,0.0,0.0,0.0,0.0,0.0,0.0,0.0,0.0,0.0,0.0,0.0,0.0,0.0,0.0,0.0,0.0,0.0,0.0,-4.5594,-4.5594,-4.5594,-4.5594,-4.5594,-4.5594,-4.5594,-4.5594,-4.5594,-4.5594,-4.5594,-4.5594,-4.5594,-4.5594,-4.5594,-4.5594,-4.5594,-4.5605,-4.5559,-4.5485,-4.54,-4.5409,-4.5348,-4.5326,-4.5564,-4.5488,-4.5326,-4.5564,-4.5488,-4.5307,-4.5307,-4.5307,-4.5307,-4.5307,-4.5307,-4.5307,-4.5307,-4.5307,-4.5307,-4.5307,-4.5307,-4.5307,-4.5307,-4.5307,-4.4991,-4.3873,-4.3195,-4.2469,-4.1361,-4.0692,-4.0301,-4.0301,-4.0301,-4.0272,-4.0244,-4.0263,-4.0291,-4.0206,-4.0157,-4.0127,-4.0106,-4.0057,-3.9943,-3.9747,-3.9596,-3.9101,-3.8122,-3.7727,-3.7016,-3.5855,-3.523,-3.4908,-3.4908,-3.4908,-3.4908,-3.4908,-3.4908,-3.4831,-3.4689,-3.4689,-3.4454,-2.2962,0.0,0.0,0.0,0.0,0.0,0.0,0.0,0.0,0.0,0.0,0.0,0.0,0.0,0.0,0.0,0.0,0.0,0.0,0.0,0.0,0.0,0.0,0.0,0.0,0.0,0.0,0.0,0.0,0.0,0.0,-4.5594,-4.5594,-4.5594,-4.5594,-4.5594,-4.5594,-4.5594,-4.5594,-4.5594,-4.5594,-4.5594,-4.5594,-4.5594,-4.5594,-4.5594,-4.5568,-4.5568,-4.5559,-4.5486,-4.5438,-4.5409,-4.5379,-4.5328,-4.5307,-4.5307,-4.5307,-4.5307,-4.5307,-4.5307,-4.5307,-4.5307,-4.5307,-4.5307,-4.5307,-4.5307,-4.5307,-4.5307,-4.5307,-4.5307,-4.5307,-4.5307,-4.5307,-4.5307,-4.5307,-4.4972,-4.3787,-4.3138,-4.245,-4.1246,-4.0635,-4.0301,-4.0301,-4.0301,-4.0291,-4.0206,-4.0186,-4.0166,-4.0137,-4.0057,-3.9975,-3.9859,-3.9826,-3.9682,-3.9377,-3.9439,-3.9127,-3.8339,-3.8098,-3.7636,-3.6863,-3.6017,-3.5584,-3.5584,-3.5536,-3.5536,-3.5584,-3.5536,-3.5488,-3.5388,-3.5388,-3.5151,-2.4865,0.0,0.0,0.0,0.0,0.0,0.0,0.0,0.0,0.0,0.0,0.0,0.0,0.0,0.0,0.0,0.0,0.0,0.0,0.0,0.0,0.0,0.0,0.0,0.0,0.0,0.0,0.0,0.0,0.0,0.0,-4.5594,-4.5594,-4.5594,-4.5594,-4.5594,-4.5594,-4.5594,-4.5594,-4.5594,-4.5594,-4.5594,-4.5594,-4.5594,-4.5594,-4.5586,-4.5522,-4.5495,-4.5485,-4.5429,-4.5408,-4.5379,-4.5328,-4.5307,-4.5307,-4.5307,-4.5307,-4.5307,-4.5307,-4.5307,-4.5307,-4.5307,-4.5307,-4.5307,-4.5307,-4.5307,-4.5307,-4.5307,-4.5307,-4.5307,-4.5307,-4.5307,-4.5307,-4.5307,-4.5307,-4.4857,-4.3252,-4.2851,-4.2335,-4.0721,-4.0339,-4.0301,-4.0301,-4.0282,-4.0263,-4.0196,-4.0077,-3.9986,-3.9965,-3.9911,-3.9758,-3.9483,-3.9446,-3.9326,-3.898,-3.8999,-3.8966,-3.8924,-3.8257,-3.7854,-3.784,-3.7034,-3.6584,-3.6602,-3.6546,-3.6546,-3.6602,-3.6528,-3.6515,-3.6576,-3.6576,-3.6427,0.0,0.0,0.0,0.0,0.0,0.0,0.0,0.0,0.0,0.0,0.0,0.0,0.0,0.0,0.0,0.0,0.0,0.0,0.0,0.0,0.0,0.0,0.0,0.0,0.0,0.0,0.0,0.0,0.0,0.0,-4.5594,-4.5594,-4.5594,-4.5594,-4.5594,-4.5594,-4.5594,-4.5594,-4.5594,-4.5594,-4.5594,-4.5594,-4.5594,-4.5594,-4.5568,-4.5513,-4.5504,-4.5476,-4.5419,-4.5409,-4.5408,-4.5379,-4.5328,-4.5307,-4.5307,-4.5307,-4.5307,-4.5307,-4.5307,-4.5307,-4.5307,-4.5307,-4.5307,-4.5307,-4.5307,-4.5307,-4.5307,-4.5307,-4.5307,-4.5307,-4.5307,-4.5307,-4.5307,-4.5307,-4.5307,-4.501,-4.3968,-4.3252,-4.2488,-4.1437,-4.0731,-4.0301,-4.0301,-4.0253,-4.0196,-4.0137,-4.0015,-3.9859,-3.9712,-3.9623,-3.9471,-3.9149,-3.9122,-3.8999,-3.8718,-3.8865,-3.8826,-3.8401,-3.8361,-3.8285,-3.8113,-3.709,-3.6546,-3.6602,-3.6584,-3.6584,-3.6602,-3.6528,-3.644,-3.6287,-3.6287,-3.6146,0.0,0.0,0.0,0.0,0.0,0.0,0.0,0.0,0.0,0.0,0.0,0.0,0.0,0.0,0.0,0.0,0.0,0.0,0.0,0.0,0.0,0.0,0.0,0.0,0.0,0.0,0.0,0.0,0.0,-4.5594,-4.5594,-4.5594,-4.5594,-4.5594,-4.5594,-4.5594,-4.5594,-4.5594,-4.5594,-4.5594,-4.5594,-4.5594,-4.5594,-4.5568,-4.5522,-4.5495,-4.5467,-4.5429,-4.54,-4.5369,-4.5348,-4.5348,-4.5317,-4.5307,-4.5307,-4.5307,-4.5307,-4.5307,-4.5307,-4.5307,-4.5307,-4.5307,-4.5307,-4.5307,-4.5307,-4.5307,-4.5307,-4.5307,-4.5307,-4.5307,-4.5307,-4.5307,-4.5307,-4.5307,-4.5307,-4.5048,-4.4178,-4.3367,-4.2545,-4.1667,-4.0845,-4.0301,-4.0301,-4.0225,-4.0147,-4.0117,-3.9889,-3.9658,-3.9563,-3.9377,-3.9136,-3.8828,-3.8818,-3.8703,-3.8433,-3.8544,-3.8515,-3.8225,-3.8289,-3.8305,-3.8209,-3.7627,-3.7338,-3.7374,-3.7374,-3.7374,-3.7374,-3.7338,-3.7262,-3.7163,-3.7163,-3.7085,0.0,0.0,0.0,0.0,0.0,0.0,0.0,0.0,0.0,0.0,0.0,0.0,0.0,0.0,0.0,0.0,0.0,0.0,0.0,0.0,0.0,0.0,0.0,0.0,0.0,0.0,0.0,0.0,0.0,-4.5383,-4.5383,-4.5383,-4.5306,-4.5171,-4.5171,-4.5248,-4.5364,-4.5383,-4.546,-4.5594,-4.5594,-4.5586,-4.5577,-4.5513,-4.5485,-4.5485,-4.5429,-4.5379,-4.5388,-4.5317,-4.5307,-4.5307,-4.5307,-4.5307,-4.5307,-4.5307,-4.5307,-4.5307,-4.5307,-4.5307,-4.5307,-4.5307,-4.5307,-4.5307,-4.5307,-4.5307,-4.5307,-4.5307,-4.5307,-4.5307,-4.5307,-4.5307,-4.5307,-4.5307,-4.5307,-4.5105,-4.438,-4.3577,-4.2756,-4.1896,-4.096,-4.0301,-4.0263,-4.0166,-4.0086,-4.0015,-3.9705,-3.9458,-3.9357,-3.9095,-3.8814,-3.8554,-3.8541,-3.8449,-3.8225,-3.8209,-3.8209,-3.8209,-3.8209,-3.8209,-3.8209,-3.8209,-3.8209,-3.8209,-3.8209,-3.8209,-3.8209,-3.8209,-3.8209,-3.8209,-3.8209,-3.8209,0.0,0.0,0.0,0.0,0.0,0.0,0.0,0.0,0.0,0.0,0.0,0.0,0.0,0.0,0.0,0.0,0.0,0.0,0.0,0.0,0.0,0.0,0.0,0.0,0.0,0.0,0.0,0.0,-4.447,-4.447,-4.447,-4.447,-4.4143,-4.3451,-4.3431,-4.3778,-4.447,-4.447,-4.4855,-4.5594,-4.5594,-4.5568,-4.5513,-4.5438,-4.5419,-4.541,-4.539,-4.5378,-4.5317,-4.5307,-4.5307,-4.5307,-4.5307,-4.5307,-4.5307,-4.5307,-4.5307,-4.5307,-4.5307,-4.5307,-4.5307,-4.5307,-4.5307,-4.5307,-4.5307,-4.5307,-4.5307,-4.5307,-4.5307,-4.5307,-4.5307,-4.5307,-4.5307,-4.5307,-4.5307,-4.5269,-4.5144,-4.4456,-4.3605,-4.2775,-4.138,-4.0253,-4.0147,-4.0117,-3.9975,-3.9635,-3.952,-3.9318,-3.8792,-3.8673,-3.8538,-3.8272,-3.8257,-3.8241,-3.8209,-3.8209,-3.8209,-3.8209,-3.8209,-3.8209,-3.8209,-3.8209,-3.8209,-3.8209,-3.8209,-3.8209,-3.8209,-3.8209,-3.8209,-3.8209,-3.8209,-3.8209,-2.526,-2.8813,0.0,0.0,0.0,0.0,0.0,0.0,0.0,0.0,0.0,0.0,0.0,0.0,0.0,0.0,0.0,0.0,0.0,0.0,0.0,0.0,0.0,0.0,0.0,0.0,0.0,0.0,-4.3624,-4.3624,-4.3624,-4.3624,-4.347,-4.3104,-4.3104,-4.3278,-4.3624,-4.3624,-4.3816,-4.4201,-4.4165,-4.4369,-4.4822,-4.472,-4.494,-4.54,-4.5359,-4.5328,-4.5307,-4.5307,-4.5307,-4.5307,-4.5307,-4.5307,-4.5307,-4.5307,-4.5307,-4.5307,-4.5307,-4.5307,-4.5307,-4.5307,-4.5307,-4.5307,-4.5307,-4.5307,-4.5307,-4.5307,-4.5307,-4.5307,-4.5307,-4.5307,-4.5246,-4.5057,-4.5023,-4.4988,-4.4826,-4.4387,-4.3574,-4.2125,-4.113,-4.0352,-3.9762,-3.9651,-3.9556,-3.932,-3.9127,-3.8909,-3.8631,-3.8462,-3.8322,-3.8225,-3.8209,-3.8209,-3.8209,-3.8209,-3.8209,-3.8209,-3.8209,-3.8209,-3.8209,-3.8209,-3.8209,-3.8209,-3.8209,-3.8209,-3.8209,-3.8209,-3.8209,-3.8209,-3.8209,-3.8209,-2.5394,-2.7832,-2.9981,0.0,0.0,0.0,0.0,0.0,0.0,0.0,0.0,0.0,0.0,0.0,0.0,0.0,0.0,0.0,0.0,0.0,0.0,0.0,0.0,0.0,0.0,0.0,0.0,0.0,-4.2777,-4.2777,-4.2777,-4.2777,-4.2662,-4.245,-4.2431,-4.2547,-4.2777,-4.2989,-4.3104,-4.3104,-4.3032,-4.3325,-4.394,-4.4059,-4.445,-4.5052,-4.5222,-4.5307,-4.5307,-4.5307,-4.5307,-4.5307,-4.5307,-4.5307,-4.5307,-4.5307,-4.5307,-4.5307,-4.5307,-4.5307,-4.5307,-4.5307,-4.5307,-4.5307,-4.5307,-4.5307,-4.5307,-4.5307,-4.5307,-4.5286,-4.5194,-4.5173,-4.5098,-4.4763,-4.4701,-4.4637,-4.4438,-4.4058,-4.3342,-4.19,-4.1255,-4.0669,-3.9769,-3.9573,-3.9424,-3.9027,-3.8759,-3.8569,-3.851,-3.8322,-3.8209,-3.8209,-3.8209,-3.8209,-3.8209,-3.8209,-3.8209,-3.8209,-3.8209,-3.8209,-3.8209,-3.8209,-3.8209,-3.8209,-3.8209,-3.8209,-3.8209,-3.8209,-3.8209,-3.8209,-3.8209,-3.8209,-2.2336,-2.4293,0.0,0.0,0.0,0.0,0.0,0.0,0.0,0.0,0.0,0.0,0.0,0.0,0.0,0.0,0.0,0.0,0.0,0.0,0.0,0.0,0.0,0.0,0.0,0.0,0.0,0.0,-4.1865,-4.1865,-4.1865,-4.1865,-4.1489,-4.0669,-4.065,-4.1027,-4.1865,-4.2701,-4.3104,-4.3104,-4.3032,-4.2989,-4.2994,-4.3752,-4.4086,-4.4131,-4.4934,-4.5307,-4.5307,-4.5307,-4.5307,-4.5307,-4.5307,-4.5307,-4.5307,-4.5307,-4.5307,-4.5307,-4.5307,-4.5307,-4.5307,-4.5307,-4.5307,-4.5307,-4.5307,-4.5307,-4.5307,-4.5307,-4.5307,-4.5235,-4.4922,-4.4831,-4.4751,-4.4479,-4.4411,-4.443,-4.4397,-4.374,-4.3125,-4.3018,-4.228,-4.1394,-4.0568,-4.0332,-3.9871,-3.8783,-3.8615,-3.851,-3.8257,-3.8209,-3.8209,-3.8209,-3.8209,-3.8209,-3.8209,-3.8209,-3.8209,-3.8209,-3.8209,-3.8209,-3.8209,-3.8209,-3.8209,-3.8209,-3.8209,-3.8209,-3.8209,-3.8209,-3.8209,-3.8209,-3.8209,-3.8209,-2.1427,-2.3216,0.0,0.0,0.0,0.0,0.0,0.0,0.0,0.0,0.0,0.0,0.0,0.0,0.0,0.0,0.0,0.0,0.0,0.0,0.0,0.0,0.0,0.0,0.0,0.0,0.0,0.0,0.0,-4.0969,-4.0969,-4.0969,-4.0823,-4.0516,-4.0496,-4.065,-4.095,-4.1272,-4.1429,-4.1429,-4.1323,-4.1539,-4.2076,-4.2307,-4.3005,-4.4025,-4.4331,-4.4781,-4.5307,-4.5307,-4.5307,-4.5307,-4.5307,-4.5307,-4.5307,-4.5307,-4.5307,-4.5307,-4.5307,-4.5307,-4.5307,-4.5307,-4.5307,-4.5307,-4.5307,-4.5307,-4.5307,-4.5307,-4.5151,-4.4946,-4.4831,-4.4676,-4.4484,-4.4206,-4.3983,-4.3807,-4.3807,-4.3742,-4.3506,-4.2943,-4.2406,-4.173,-4.0856,-4.063,-4.039,-3.9883,-3.9813,-3.9779,-3.9694,-3.926,-3.897,-3.897,-3.8517,-3.8209,-3.8209,-3.8209,-3.8209,-3.8209,-3.8209,-3.8209,-3.8209,-3.8209,-3.8209,-3.8209,-3.8209,-3.8209,-3.8209,-3.8209,-3.8209,-3.8209,-3.8209,-3.8209,-2.035,0.0,0.0,0.0,0.0,0.0,0.0,0.0,0.0,0.0,0.0,0.0,0.0,0.0,0.0,0.0,0.0,0.0,0.0,0.0,0.0,0.0,0.0,0.0,0.0,0.0,0.0,0.0,0.0,0.0,-4.0496,-4.0496,-4.0496,-4.0496,-4.0496,-4.0496,-4.0496,-4.0507,-4.0502,-4.0502,-4.0351,-4.0594,-4.1159,-4.1409,-4.2106,-4.3176,-4.3472,-4.4246,-4.5307,-4.5307,-4.5307,-4.5307,-4.5307,-4.5307,-4.5307,-4.5307,-4.5307,-4.5307,-4.5307,-4.5307,-4.5307,-4.5307,-4.5307,-4.5307,-4.5307,-4.5307,-4.5286,-4.5162,-4.4969,-4.4751,-4.4591,-4.4332,-4.4038,-4.3876,-4.3666,-4.3515,-4.3515,-4.3666,-4.3645,-4.3056,-4.2722,-4.2246,-4.1338,-4.1087,-4.0907,-4.0546,-4.0492,-4.0492,-4.0492,-4.0075,-3.9659,-3.9423,-3.8933,-3.8499,-3.8227,-3.8209,-3.8209,-3.8209,-3.8209,-3.8209,-3.8209,-3.8209,-3.8209,-3.8209,-3.8209,-3.8209,-3.8209,-3.8209,-3.8209,-3.8209,-3.8209,-3.8209,0.0,0.0,0.0,0.0,0.0,0.0,0.0,0.0,0.0,0.0,0.0,0.0,0.0,0.0,0.0,0.0,0.0,0.0,0.0,0.0,0.0,0.0,0.0,0.0,0.0,0.0,0.0,0.0,-4.0496,-4.0496,-4.0496,-4.0496,-4.0496,-4.0496,-4.0496,-4.0496,-4.0496,-4.0507,-4.0502,-4.0502,-4.037,-4.0307,-4.0326,-4.1122,-4.1476,-4.1552,-4.2393,-4.3692,-4.5231,-4.525,-4.5288,-4.5307,-4.5307,-4.5307,-4.5307,-4.5307,-4.5307,-4.5307,-4.5307,-4.5307,-4.5307,-4.5307,-4.5307,-4.5307,-4.5307,-4.5297,-4.5224,-4.4879,-4.4788,-4.465,-4.4121,-4.3749,-4.3515,-4.3515,-4.3515,-4.3515,-4.3515,-4.3497,-4.348,-4.3394,-4.3305,-4.2923,-4.2087,-4.1814,-4.1469,-4.0691,-4.0564,-4.0564,-4.0564,-4.0546,-4.0239,-3.9514,-3.9405,-3.9078,-3.8281,-3.8209,-3.8209,-3.8209,-3.8209,-3.8209,-3.8209,-3.8209,-3.8209,-3.8209,-3.8209,-3.8209,-3.8209,-3.8209,-3.8209,-3.8209,-3.8209,-3.8209,-2.01,0.0,0.0,0.0,0.0,0.0,0.0,0.0,0.0,0.0,0.0,0.0,0.0,0.0,0.0,0.0,0.0,0.0,0.0,0.0,0.0,0.0,0.0,0.0,0.0,0.0,0.0,0.0,-4.0496,-4.0496,-4.0496,-4.0496,-4.0496,-4.0496,-4.0496,-4.05,-4.0507,-4.0458,-4.0396,-4.0342,-4.0318,-4.031,-4.031,-4.052,-4.096,-4.1514,-4.1743,-4.2469,-4.3539,-4.4131,-4.4723,-4.5307,-4.5307,-4.5307,-4.5307,-4.5307,-4.5307,-4.5307,-4.5307,-4.5307,-4.5307,-4.5307,-4.5307,-4.5307,-4.5307,-4.5121,-4.4922,-4.4831,-4.4525,-4.4117,-4.373,-4.3565,-4.3515,-4.3515,-4.3515,-4.3515,-4.3515,-4.3463,-4.3411,-4.3412,-4.3251,-4.305,-4.2814,-4.2667,-4.2484,-4.2266,-4.223,-4.223,-4.223,-4.1741,-4.1071,-4.0275,-3.9713,-3.9078,-3.8281,-3.8209,-3.8209,-3.8209,-3.8209,-3.8209,-3.8209,-3.8209,-3.8209,-3.8209,-3.8209,-3.8209,-3.8209,-3.8209,-3.8209,-3.8209,-3.8209,-3.8209,-2.1139,0.0,0.0,0.0,0.0,0.0,0.0,-2.7852,0.0,0.0,0.0,0.0,0.0,0.0,0.0,0.0,0.0,0.0,0.0,0.0,0.0,0.0,0.0,0.0,0.0,-4.0496,-4.0496,-4.0496,-4.0496,-4.0496,-4.0496,-4.0496,-4.0496,-4.0496,-4.05,-4.0495,-4.0502,-4.0415,-4.0334,-4.0307,-4.0291,-4.0301,-4.0301,-4.0301,-4.0559,-4.0998,-4.0998,-4.1476,-4.2316,-4.3157,-4.3997,-4.4781,-4.5163,-4.5307,-4.5307,-4.5307,-4.5307,-4.5307,-4.5307,-4.5307,-4.5307,-4.5307,-4.5307,-4.5267,-4.5132,-4.4957,-4.4751,-4.4538,-4.4147,-4.3749,-4.3548,-4.3515,-4.3515,-4.3515,-4.3515,-4.3515,-4.3515,-4.3393,-4.3323,-4.3323,-4.3215,-4.3086,-4.303,-4.2938,-4.2901,-4.2901,-4.2901,-4.2901,-4.2901,-4.2484,-4.1759,-4.0619,-4.013,-3.9405,-3.8299,-3.8209,-3.8209,-3.8209,-3.8209,-3.8209,-3.8209,-3.8209,-3.8209,-3.8209,-3.8209,-3.8209,-3.8209,-3.8209,-3.8209,-3.8209,-3.8209,-3.8209,-2.2485,-2.3201,0.0,0.0,0.0,0.0,-2.7607,-2.739,0.0,0.0,0.0,0.0,0.0,0.0,0.0,0.0,0.0,0.0,0.0,0.0,0.0,0.0,0.0,0.0,-4.0227,-4.0227,-4.0265,-4.0362,-4.0458,-4.0496,-4.0496,-4.0489,-4.0508,-4.0508,-4.0479,-4.0493,-4.0485,-4.037,-4.0307,-4.0298,-4.031,-4.0301,-4.0301,-4.0301,-4.0301,-4.0301,-4.0301,-4.0711,-4.1418,-4.2297,-4.3195,-4.4083,-4.4953,-4.5307,-4.5307,-4.5307,-4.5307,-4.5307,-4.5307,-4.5286,-4.5246,-4.5246,-4.5224,-4.5151,-4.4843,-4.4726,-4.4599,-4.4091,-4.3732,-4.3515,-4.3515,-4.3515,-4.3515,-4.3515,-4.3515,-4.3515,-4.3515,-4.3339,-4.3214,-4.3214,-4.3123,-4.303,-4.2919,-4.2901,-4.2901,-4.2901,-4.2901,-4.2901,-4.2901,-4.2829,-4.2176,-4.0655,-4.042,-3.9804,-3.8317,-3.8209,-3.8209,-3.8209,-3.8209,-3.8209,-3.8209,-3.8209,-3.8209,-3.8209,-3.8209,-3.8209,-3.8209,-3.8209,-3.8209,-3.8209,-3.8209,-3.8209,-2.5697,-2.5851,-2.6024,-2.5654,0.0,0.0,-2.4317,-2.4812,-2.5885,0.0,0.0,0.0,0.0,0.0,0.0,0.0,0.0,0.0,0.0,0.0,0.0,0.0,0.0,0.0,-3.8488,-3.8488,-3.8777,-3.9477,-4.0131,-4.0496,-4.0496,-4.0495,-4.0499,-4.0499,-4.0449,-4.0388,-4.0334,-4.0316,-4.0308,-4.0301,-4.031,-4.0301,-4.0301,-4.0301,-4.0301,-4.0301,-4.0301,-4.0377,-4.0597,-4.1418,-4.2641,-4.4083,-4.4953,-4.5307,-4.5307,-4.5307,-4.5307,-4.5307,-4.5307,-4.5121,-4.491,-4.491,-4.4758,-4.4546,-4.4493,-4.4318,-4.4075,-4.3697,-4.3548,-4.3515,-4.3515,-4.3515,-4.3515,-4.3515,-4.3515,-4.3515,-4.3515,-4.3339,-4.3214,-4.3214,-4.305,-4.2938,-4.2901,-4.2901,-4.2901,-4.2901,-4.2901,-4.2901,-4.2901,-4.2339,-4.156,-4.0601,-3.9967,-3.9224,-3.8281,-3.8209,-3.8209,-3.8209,-3.8209,-3.8209,-3.8209,-3.8209,-3.8209,-3.8209,-3.8209,-3.8209,-3.8209,-3.8209,-3.8209,-3.8209,-3.8209,-3.8209,-2.7205,-2.7025,-2.7092,-2.7092,0.0,0.0,0.0,0.0,-2.4639,-2.6688,0.0,0.0,0.0,0.0,0.0,0.0,0.0,0.0,0.0,0.0,0.0,0.0,0.0,0.0,-3.7353,-3.7738,-3.818,-3.8623,-3.9027,-3.9238,-3.9238,-3.9623,-3.9849,-3.9849,-4.0185,-4.0325,-4.0307,-4.0299,-4.0291,-4.0301,-4.0301,-4.0301,-4.0301,-4.0301,-4.0301,-4.0301,-4.0301,-4.0301,-4.0358,-4.117,-4.1991,-4.2889,-4.415,-4.4914,-4.5286,-4.5109,-4.5045,-4.5034,-4.4887,-4.4733,-4.4599,-4.4599,-4.4506,-4.4388,-4.425,-4.3983,-4.3716,-4.3566,-4.3515,-4.3515,-4.3515,-4.3515,-4.3515,-4.3515,-4.3515,-4.3515,-4.3515,-4.3339,-4.3214,-4.3214,-4.305,-4.2901,-4.2901,-4.2901,-4.2901,-4.2901,-4.2901,-4.2901,-4.2901,-4.2212,-4.1397,-4.0583,-3.984,-3.9078,-3.8281,-3.8209,-3.8209,-3.8209,-3.8209,-3.8209,-3.8209,-3.8209,-3.8209,-3.8209,-3.8209,-3.8209,-3.8209,-3.8209,-3.8209,-3.8209,-3.8209,-3.8071,0.0,0.0,0.0,0.0,0.0,-2.6751,0.0,0.0,0.0,-2.6402,0.0,0.0,0.0,0.0,0.0,0.0,0.0,0.0,0.0,0.0,0.0,0.0,0.0,0.0,-3.5962,-3.6603,-3.7219,-3.7719,-3.7603,-3.7661,-3.7988,-3.8589,-3.9026,-3.918,-3.9749,-4.0136,-4.0289,-4.031,-4.0301,-4.0301,-4.0301,-4.0301,-4.0301,-4.0301,-4.0301,-4.0301,-4.0301,-4.0263,-4.0263,-4.0921,-4.1245,-4.15,-4.3116,-4.4253,-4.4944,-4.4664,-4.4631,-4.4688,-4.4465,-4.4374,-4.4318,-4.4318,-4.4289,-4.4188,-4.3971,-4.3716,-4.3515,-4.3515,-4.3515,-4.3515,-4.3515,-4.3515,-4.3515,-4.3515,-4.3515,-4.3497,-4.348,-4.334,-4.3196,-4.3178,-4.3031,-4.2901,-4.2901,-4.2901,-4.2901,-4.2901,-4.2901,-4.2901,-4.2901,-4.2067,-4.1216,-4.0564,-3.9695,-3.8915,-3.8263,-3.8209,-3.8209,-3.8209,-3.8209,-3.8209,-3.8209,-3.8209,-3.8209,-3.8209,-3.8209,-3.8209,-3.8209,-3.8209,-3.8209,-3.8209,-3.8106,-3.7862,0.0,0.0,0.0,0.0,-3.0119,0.0,0.0,0.0,-2.5656,-2.4467,0.0,0.0,0.0,0.0,0.0,0.0,0.0,0.0,0.0,0.0,0.0,0.0,0.0,0.0,0.0,-3.343,-3.443,-3.6673,-3.6192,-3.6423,-3.7911,-3.8028,-3.8364,-3.9101,-3.9122,-3.9517,-4.0291,-4.031,-4.0301,-4.0301,-4.0301,-4.0301,-4.0301,-4.0301,-4.0301,-4.0301,-4.0301,-4.0166,-3.9954,-4.004,-4.0363,-4.0928,-4.2364,-4.3281,-4.3793,-4.3739,-4.4046,-4.4438,-4.4397,-4.425,-4.4048,-4.4048,-4.3844,-4.3599,-4.3565,-4.3513,-4.3515,-4.3515,-4.3515,-4.3515,-4.3515,-4.3515,-4.3515,-4.3515,-4.3515,-4.348,-4.3411,-4.3286,-4.3178,-4.3105,-4.2994,-4.2901,-4.2901,-4.2901,-4.2901,-4.2901,-4.2901,-4.2901,-4.2901,-4.1578,-4.0601,-4.051,-3.9206,-3.8299,-3.8209,-3.8209,-3.8209,-3.8209,-3.8209,-3.8209,-3.8209,-3.8209,-3.8209,-3.8209,-3.8209,-3.8209,-3.8209,-3.8209,-3.8209,-3.8192,-3.7774,-3.7542,0.0,0.0,0.0,0.0,0.0,0.0,-2.6624,0.0,-2.4822,0.0,0.0,0.0,0.0,0.0,0.0,0.0,0.0,0.0,0.0,0.0,0.0,0.0,0.0,0.0,0.0,0.0,0.0,0.0,-3.418,-3.4493,-3.5671,-3.6631,-3.7282,-3.7584,-3.8512,-3.9183,-3.9546,-4.0053,-4.0301,-4.0301,-4.0301,-4.0301,-4.0301,-4.0301,-4.0301,-4.0301,-4.0147,-4.0007,-3.9892,-3.9728,-3.9799,-4.0065,-4.0658,-4.1626,-4.2693,-4.2975,-4.3212,-4.3457,-4.3763,-4.3793,-4.3716,-4.3716,-4.3615,-4.3515,-4.3515,-4.3515,-4.3515,-4.3515,-4.3515,-4.3515,-4.3515,-4.3515,-4.3515,-4.3515,-4.3515,-4.348,-4.3411,-4.3286,-4.3178,-4.3123,-4.2994,-4.2901,-4.2901,-4.2901,-4.2901,-4.2901,-4.2901,-4.2719,-4.2266,-4.1198,-4.0329,-3.9912,-3.8844,-3.8209,-3.8209,-3.8209,-3.8209,-3.8209,-3.8209,-3.8209,-3.8209,-3.8209,-3.8209,-3.8209,-3.8209,-3.8209,-3.8209,-3.7933,-3.7792,-3.7792,-3.7578,-3.7359,-3.375,0.0,0.0,0.0,0.0,0.0,0.0,0.0,0.0,0.0,0.0,0.0,0.0,0.0,0.0,0.0,0.0,0.0,0.0,0.0,0.0,0.0,0.0,0.0,0.0,0.0,0.0,0.0,0.0,-3.25,-3.4017,-3.5234,-3.6078,-3.6487,-3.7891,-3.8763,-3.9011,-3.9862,-4.0301,-4.0301,-4.0301,-4.0253,-4.0186,-4.0186,-4.0157,-4.0067,-3.9881,-3.9751,-3.967,-3.9458,-3.935,-3.9285,-3.9285,-4.0026,-4.1203,-4.2058,-4.2455,-4.268,-4.3287,-4.3515,-4.3515,-4.3515,-4.3515,-4.3515,-4.3515,-4.3515,-4.3515,-4.3515,-4.3515,-4.3515,-4.3515,-4.3515,-4.3515,-4.3515,-4.348,-4.3445,-4.3358,-4.3251,-4.3142,-4.3068,-4.2975,-4.2901,-4.2901,-4.2901,-4.2901,-4.2901,-4.2901,-4.2683,-4.2103,-4.1325,-4.0528,-3.9786,-3.8989,-3.8444,-3.8227,-3.8209,-3.8209,-3.8209,-3.8209,-3.8209,-3.8209,-3.8089,-3.802,-3.802,-3.7898,-3.7845,-3.7845,-3.7505,-3.7339,-3.7322,-3.7209,-3.7017,0.0,0.0,0.0,-3.1153,0.0,0.0,0.0,0.0,-2.7789,0.0,0.0,0.0,0.0,0.0,0.0,0.0,0.0,0.0,0.0,0.0,0.0,0.0,0.0,0.0,0.0,0.0,0.0,0.0,-3.0188,0.0,-3.3941,-3.4093,-3.4841,-3.6449,-3.7318,-3.8151,-3.8992,-3.9862,-4.0301,-4.0301,-4.0301,-4.0166,-3.9914,-3.9914,-3.9773,-3.9539,-3.9526,-3.9376,-3.911,-3.9129,-3.8964,-3.8738,-3.8738,-3.8756,-3.9026,-4.0863,-4.1862,-4.2431,-4.3221,-4.3515,-4.3515,-4.3515,-4.3515,-4.3515,-4.3515,-4.3515,-4.3515,-4.3515,-4.3515,-4.3515,-4.3515,-4.3515,-4.3515,-4.3515,-4.3464,-4.3358,-4.3233,-4.316,-4.3049,-4.2938,-4.2901,-4.2901,-4.2901,-4.2901,-4.2901,-4.2901,-4.2901,-4.2901,-4.2846,-4.2158,-4.1343,-4.0546,-3.9804,-3.906,-3.8281,-3.8209,-3.8209,-3.8209,-3.8209,-3.8209,-3.8209,-3.7756,-3.7523,-3.7523,-3.7151,-3.6939,-3.6939,-3.6919,-3.6919,-3.69,-3.6533,-3.6343,0.0,0.0,-3.721,-3.3325,0.0,0.0,0.0,0.0,0.0,0.0,0.0,0.0,0.0,0.0,0.0,0.0,0.0,0.0,0.0,0.0,0.0,0.0,0.0,0.0,0.0,0.0,0.0,0.0,-2.9063,0.0,-3.2253,-3.3412,-3.4251,-3.484,-3.6192,-3.7311,-3.8132,-3.9011,-3.9728,-4.0301,-4.0118,-3.9996,-3.9903,-3.9717,-3.9599,-3.9483,-3.9311,-3.9178,-3.9087,-3.8925,-3.878,-3.8707,-3.8707,-3.8707,-3.8851,-4.0007,-4.0896,-4.1699,-4.3039,-4.3515,-4.3515,-4.3515,-4.3515,-4.3515,-4.3515,-4.3515,-4.3515,-4.3515,-4.3515,-4.3515,-4.3515,-4.3515,-4.3497,-4.3446,-4.3429,-4.3358,-4.3233,-4.3142,-4.3086,-4.303,-4.2957,-4.2901,-4.2901,-4.2901,-4.2901,-4.2901,-4.2901,-4.2701,-4.2176,-4.1868,-4.1397,-4.0583,-4.0275,-3.9822,-3.9061,-3.8517,-3.8054,-3.7756,-3.7739,-3.7632,-3.7339,-3.7189,-3.7113,-3.7113,-3.6978,-3.69,-3.69,-3.6638,-3.6512,-3.6492,-3.6028,-3.6002,-3.8218,-3.8395,0.0,-3.4766,-3.3545,0.0,-2.8805,0.0,0.0,0.0,0.0,0.0,0.0,0.0,0.0,0.0,0.0,0.0,0.0,0.0,0.0,0.0,0.0,0.0,0.0,0.0,-2.5503,-2.7215,-2.7537,0.0,0.0,-3.2637,-3.3674,-3.3995,-3.563,-3.6882,-3.7693,-3.8553,-3.9395,-4.0157,-3.9986,-3.9796,-3.9611,-3.9439,-3.9311,-3.9205,-3.9031,-3.8964,-3.895,-3.8765,-3.8707,-3.8707,-3.8707,-3.8707,-3.8799,-3.9588,-4.0598,-4.1735,-4.3039,-4.3515,-4.3515,-4.3515,-4.3515,-4.3515,-4.3515,-4.3515,-4.3515,-4.3515,-4.3515,-4.3515,-4.3515,-4.3515,-4.348,-4.3429,-4.3358,-4.3305,-4.3196,-4.3087,-4.303,-4.303,-4.2957,-4.2901,-4.2901,-4.2901,-4.2901,-4.2901,-4.2901,-4.2701,-4.2194,-4.214,-4.1832,-4.0999,-4.0926,-4.0438,-3.9247,-3.8671,-3.808,-3.7321,-3.7302,-3.717,-3.69,-3.6761,-3.6698,-3.6698,-3.6519,-3.6437,-3.6437,-3.6178,-3.6045,-3.6045,-3.5739,-3.5761]},{"header":{"parameterUnit":"m.s-1","parameterCategory":1,"la1":30.6,"la2":29.2853,"lo1":-89.7004,"lo2":-87.6739,"dy":0.0162,"dx":0.0183,"nx":112,"ny":82,"refTime":"2026-05-02T12:00:00:Z","depth":0,"parameterNumber":3,"parameterNumberName":"V-component_of_WINDS"},"data":[0.0,0.0,0.0,0.0,0.0,0.0,0.0,0.0,0.0,0.0,0.0,0.0,0.0,0.0,0.0,0.0,0.0,0.0,0.0,0.0,0.0,0.0,0.0,0.0,0.0,0.0,0.0,0.0,0.0,0.0,0.0,0.0,0.0,0.0,0.0,0.0,0.0,0.0,0.0,0.0,0.0,0.0,0.0,0.0,0.0,0.0,0.0,0.0,0.0,0.0,0.0,0.0,0.0,0.0,0.0,0.0,0.0,0.0,0.0,0.0,0.0,0.0,0.0,0.0,0.0,0.0,0.0,0.0,0.0,0.0,0.0,0.0,0.0,0.0,0.0,0.0,0.0,0.0,0.0,0.0,0.0,0.0,0.0,0.0,0.0,0.0,0.0,0.0,0.0,0.0,0.0,0.3914,0.4913,0.5707,0.615,0.6468,0.6319,0.551,0.0,0.0,0.0,0.0,0.0,0.0,0.0,0.0,0.0,0.0,0.0,0.0,0.0,0.0,0.0,0.0,0.0,0.0,0.0,0.0,0.0,0.0,0.0,0.0,0.0,0.0,0.0,0.0,0.0,0.0,0.0,0.0,0.0,0.0,0.0,0.0,0.0,0.0,0.0,0.0,0.0,0.0,0.0,0.0,0.0,0.0,0.0,0.0,0.0,0.0,0.0,0.0,0.0,0.0,0.0,0.0,0.0,0.0,0.0,0.0,0.0,0.0,0.0,0.0,0.0,0.0,0.0,0.0,0.0,0.0,0.0,0.0,0.0,0.0,0.0,0.0,0.0,0.0,0.0,0.0,0.0,0.0,0.0,0.0,0.0,0.0,0.0,0.0,0.0,0.0,0.0,0.0,0.0,0.0,0.0,0.0,0.0,0.0,0.0,0.0,0.0,0.0,0.0,0.0,0.2909,0.4409,0.4895,0.5397,0.6132,0.6359,0.6094,0.5291,0.0,0.0,0.0,0.0,0.0,0.0,0.0,0.0,0.0,0.0,0.0,0.0,0.0,0.0,0.0,0.0,0.0,0.0,0.0,0.0,0.0,0.0,0.0,0.0,0.0,0.0,0.0,0.0,0.0,0.0,0.0,0.0,0.0,0.0,0.0,0.0,0.0,0.0,0.0,0.0,0.0,0.0,0.0,0.0,0.0,0.0,0.0,0.0,0.0,0.0,0.0,0.0,0.0,0.0,0.0,0.0,0.0,0.0,0.0,0.0,0.0,0.0,0.0,0.0,0.0,0.0,0.0,0.0,0.0,0.0,0.0,0.0,0.0,0.0,0.0,0.0,0.0,0.0,0.0,0.0,0.0,0.0,0.0,0.0,0.0,0.0,0.0,0.0,0.0,0.0,0.0,0.0,0.0,0.0,0.0,0.0,0.0,0.0,0.0,0.0,0.0,0.0,0.0,0.2099,0.2718,0.3981,0.449,0.4983,0.565,0.6059,0.5971,0.5247,0.5162,0.0,0.0,0.0,0.0,0.0,0.0,0.0,0.0,0.0,0.0,0.0,0.0,0.0,0.0,0.0,0.0,0.0,0.0,0.0,0.0,0.0,0.0,0.0,0.0,0.0,0.0,0.0,0.0,0.0,0.0,0.0,0.0,0.0,0.0,0.0,0.0,0.0,0.0,0.0,0.0,0.0,0.0,0.0,0.0,0.0,0.0,0.0,0.0,0.0,0.0,0.0,0.0,0.0,0.0,0.0,0.0,0.0,0.0,0.0,0.0,0.0,0.0,0.0,0.0,0.0,0.0,0.0,0.0,0.0,0.0,0.0,0.0,0.0,0.0,0.0,0.0,0.0,0.0,0.0,0.0,0.0,0.0,0.0,0.0,0.0,0.0,0.0,0.0,0.0,0.0,0.0,0.0,0.0,0.0,0.0,0.0,0.0,0.0,0.0,0.0,0.0,0.0,0.2199,0.2514,0.3408,0.4061,0.4667,0.5282,0.5779,0.5813,0.5272,0.4931,0.0,0.0,0.0,0.0,0.0,0.0,0.0,0.0,0.0,0.0,0.0,0.0,0.0,0.0,0.0,0.0,0.0,0.0,0.0,0.0,0.0,0.0,0.0,0.0,0.0,0.0,0.0,0.0,0.0,0.0,0.0,0.0,0.0,0.0,0.0,0.0,0.0,0.0,0.0,0.0,0.0,0.0,0.0,0.0,0.0,0.0,0.0,0.0,0.0,0.0,0.0,0.0,0.0,0.0,0.0,0.0,0.0,0.0,0.0,0.0,0.0,0.0,0.0,0.0,0.0,0.0,0.0,0.0,0.0,0.0,0.0,0.0,0.0,0.0,0.0,0.0,0.0,0.0,0.0,0.0,0.0,0.0,0.0,0.0,0.0,0.0,0.0,0.0,0.0,0.0,0.0,0.0,0.0,0.0,0.0,0.0,0.0,0.0,0.0,0.0,0.0,0.0,0.2026,0.2385,0.3158,0.3829,0.4539,0.5339,0.5558,0.5567,0.5403,0.4663,0.0,0.0,0.0,0.0,0.0,0.0,0.0,0.0,0.0,0.0,0.0,0.0,0.0,0.0,0.0,0.0,0.0,0.0,0.0,0.0,0.0,0.0,0.0,0.0,0.0,0.0,0.0,0.0,0.0,0.0,0.0,0.0,0.0,0.0,0.0,0.0,0.0,0.0,0.0,0.0,0.0,0.0,0.0,0.0,0.0,0.0,0.0,0.0,0.0,0.0,0.0,0.0,0.0,0.0,0.0,0.0,0.0,0.0,0.0,0.0,0.0,0.0,0.0,0.0,0.0,0.0,0.0,0.0,0.0,0.0,0.0,0.0,0.0,0.0,0.0,0.0,0.0,0.0,0.0,0.0,0.0,0.0,0.0,0.0,0.0,0.0,0.0,0.0,0.0,0.0,0.0,0.0,0.0,0.0,0.0,0.0,0.0,0.0,0.0,0.0,0.0,0.0,0.1696,0.2114,0.0,0.3649,0.4394,0.5154,0.5667,0.5741,0.5186,0.0,0.0,0.0,0.0,0.0,0.0,0.0,0.0,0.0,0.0,0.0,0.0,0.0,0.0,0.0,0.0,0.0,0.0,0.0,0.0,0.0,0.0,0.0,0.0,0.0,0.0,0.0,0.0,0.0,0.0,0.0,0.0,0.0,0.0,0.0,0.0,0.0,0.0,0.0,0.0,0.0,0.0,0.0,0.0,0.0,0.0,0.0,0.0,0.0,0.0,0.0,0.0,0.0,0.0,0.0,0.0,0.0,0.0,0.0,0.0,0.0,0.0,0.0,0.0,0.0,0.0,0.0,0.0,0.0,0.0,0.0,0.0,0.0,0.0,0.0,0.0,0.0,0.0,0.0,0.0,0.0,0.0,0.0,0.0,0.0,0.0,0.0,0.0,0.0,0.0,0.0,0.0,0.0,0.0,0.0,0.0,0.0,0.0,0.0,0.0,0.0,0.0,0.1412,0.1561,0.1976,0.0,0.3507,0.4233,0.4987,0.5479,0.5541,0.5023,0.0,0.0,0.0,0.0,0.0,0.0,0.0,0.0,0.0,0.0,0.0,0.0,0.0,0.0,0.0,0.0,0.0,0.0,0.0,0.0,0.0,0.0,0.0,0.0,0.0,0.0,0.0,0.0,0.0,0.0,0.0,0.0,0.0,0.0,0.0,0.0,0.0,0.0,0.0,0.0,0.0,0.0,0.0,0.0,0.0,0.0,0.0,0.0,0.0,0.0,0.0,0.0,0.0,0.0,0.0,0.0,0.0,0.0,0.0,0.0,0.0,0.0,0.0,0.0,0.0,0.0,0.0,0.0,0.0,0.0,0.0,0.0,0.0,0.0,0.0,0.0,0.0,0.0,0.0,0.0,0.0,0.0,0.0,0.0,0.0,0.0,0.0,0.0,0.0,0.0,0.0,0.0,0.0,0.0,0.0,0.0,0.0,0.0,0.0,0.0,0.0,0.0,0.1477,0.1683,0.2044,0.272,0.3388,0.4098,0.4842,0.483,0.4854,0.0,0.0,0.0,0.0,0.0,0.0,0.0,0.0,0.0,0.0,0.0,0.0,0.0,0.0,0.0,0.0,0.0,0.0,0.0,0.0,0.0,0.0,0.0,0.0,0.0,0.0,0.0,0.0,0.0,0.0,0.0,0.0,0.0,0.0,0.0,0.0,0.0,0.0,0.0,0.0,0.0,0.0,0.0,0.0,0.0,0.0,0.0,0.0,0.0,0.0,0.0,0.0,0.0,0.0,0.0,0.0,0.0,0.0,0.0,0.0,0.0,0.0,0.0,0.0,0.0,0.0,0.0,0.0,0.0,0.0,0.0,0.0,0.0,0.0,0.0,0.0,0.0,0.0,0.0,0.0,0.0,0.0,0.0,0.0,0.0,0.0,0.0,0.0,0.0,0.0,0.0,0.0,0.0,0.0,0.0,0.0,0.0,0.0,0.0,0.0,0.0,0.0,0.0,0.1415,0.1595,0.2028,0.2798,0.3426,0.4088,0.476,0.5064,0.5089,0.4807,0.0,0.0,0.0,0.0,0.0,0.0,0.0,0.0,0.0,0.0,0.0,0.0,0.0,0.0,0.0,0.0,0.0,0.0,0.0,0.0,0.0,0.0,0.0,0.0,0.0,0.0,0.0,0.0,0.0,0.0,0.0,0.0,0.0,0.0,0.0,0.0,0.0,0.0,0.0,0.0,0.0,0.0,0.0,0.0,0.0,0.0,0.0,0.0,0.0,0.0,0.0,0.0,0.0,0.0,0.0,0.0,0.0,0.0,0.0,0.0,0.0,0.0,0.0,0.0,0.0,0.0,0.0,0.0,0.0,0.0,0.0,0.0,0.0,0.0,0.0,0.0,0.0,0.0,0.0,0.0,0.0,0.0,0.0,0.0,0.0,0.0,0.0,0.0,0.0,0.0,0.0,0.0,0.0,0.0,0.0,0.0,0.0,0.0,0.0,0.0,0.0,0.0,0.1388,0.1568,0.1997,0.2728,0.3183,0.3769,0.4561,0.482,0.4826,0.4598,0.0,0.0,0.0,0.0,0.0,0.0,0.0,0.0,0.0,0.0,0.0,0.0,0.0,0.0,0.0,0.0,0.0,0.0,0.0,0.0,0.0,0.0,0.0,0.0,0.0,0.0,0.0,0.0,0.0,0.0,0.0,0.0,0.0,0.0,0.0,0.0,0.0,0.0,0.0,0.0,0.0,0.0,0.0,0.0,0.0,0.0,0.0,0.0,0.0,0.0,0.0,0.0,0.0,0.0,0.0,0.0,0.0,0.0,0.0,0.0,0.0,0.0,0.0,0.0,0.0,0.0,0.0,0.0,0.0,0.0,0.0,0.0,0.0,0.0,0.0,0.0,0.0,0.0,0.0,0.0,0.0,0.0,0.0,0.0,0.0,0.0,0.0,0.0,0.0,0.0,0.0,0.0,0.0,0.0,0.0,0.0,0.0,0.0,0.0,0.0,0.0,0.0,0.1373,0.1566,0.1935,0.2559,0.2792,0.3249,0.4194,0.4206,0.4205,0.4326,0.0,0.0,0.0,0.0,0.0,0.0,0.0,0.0,0.0,0.0,0.0,0.0,0.0,0.0,0.0,0.0,0.0,0.0,0.0,0.0,0.0,0.0,0.0,0.0,0.0,0.0,0.0,0.0,0.0,0.0,0.0,0.0,0.0,0.0,0.0,0.0,0.0,0.0,0.0,0.0,0.0,0.0,0.0,0.0,0.0,0.0,0.0,0.0,0.0,0.0,0.0,0.0,0.0,0.0,0.0,0.0,0.0,0.0,0.0,0.0,0.1244,0.0,0.0,0.0,0.0,0.0,0.0,0.0,0.0,0.0,0.0,0.0,0.0,0.0,0.0,0.0,0.0,0.0,0.0,0.0,0.0,0.0,0.0,0.0,0.0,0.0,0.0,0.0,0.0,0.0,0.0,0.0,0.0,0.0,0.0,0.0,0.0,0.0,0.0,0.0,0.0,0.0,0.1447,0.1556,0.1753,0.2112,0.2514,0.2893,0.3271,0.3667,0.3867,0.3842,0.3659,0.0,0.0,0.0,0.0,0.0,0.0,0.0,0.0,0.0,0.0,0.0,0.0,0.0,0.0,0.0,0.0,0.0,0.0,0.0,0.0,0.0,0.0,0.0,0.0,0.0,0.0,0.0,0.0,0.0,0.0,0.0,0.0,0.0,0.0,0.0,0.0,0.0,0.0,0.0,0.0,0.0,0.0,0.0,0.0,0.0,0.0,0.0,0.0,0.0,0.0,0.0,0.0,0.0,0.0,0.0,0.0,0.0,0.0,0.0,0.0,0.1203,0.0,0.0,0.0,0.0,0.0,0.0,0.0,0.0,0.0,0.0,0.0,0.0,0.0,0.0,0.0,0.0,0.0,0.0,0.0,0.0,0.0,0.0,0.0,0.0,0.0,0.0,0.0,0.0,0.0,0.0,0.0,0.0,0.0,0.0,0.0,0.0,0.0,0.0,0.0,0.0,0.1377,0.1554,0.172,0.1896,0.2183,0.2496,0.2834,0.3307,0.3657,0.3748,0.3679,0.0,0.0,0.0,0.0,0.0,0.0,0.0,0.0,0.0,0.0,0.0,0.0,0.0,0.0,0.0,0.0,0.0,0.0,0.0,0.0,0.0,0.0,0.0,0.0,0.0,0.0,0.0,0.0,0.0,0.0,0.0,0.0,0.0,0.0,0.0,0.0,0.0,0.0,0.0,0.0,0.0,0.0,0.0,0.0,0.0,0.0,0.0,0.0,0.0,0.0,0.0,0.0,0.0,0.1024,0.103,0.1036,0.1061,0.1042,0.1044,0.0995,0.0973,0.1028,0.1233,0.0,0.0,0.0,0.0,0.0,0.0,0.0,0.0,0.0,0.0,0.0,0.0,0.0,0.0,0.0,0.0,0.0,0.0,0.0,0.0,0.0,0.0,0.0,0.0,0.1331,0.1307,0.0,0.0,0.0,0.0,0.0,0.0,0.0,0.0,0.0,0.0,0.0,0.0,0.1327,0.1561,0.1729,0.179,0.1906,0.2127,0.2541,0.3002,0.3381,0.3637,0.3691,0.3751,0.0,0.0,0.0,0.0,0.0,0.0,0.0,0.0,0.0,0.0,0.0,0.0,0.0,0.0,0.0,0.0,0.0,0.0,0.0,0.0,0.0,0.0,0.0,0.0,0.0,0.0,0.0,0.0,0.0,0.0,0.0,0.0,0.0616,0.0668,0.0,0.0,0.0,0.0,0.0,0.0,0.0,0.0,0.0,0.0,0.0,0.0,0.0,0.0981,0.0984,0.1044,0.112,0.1179,0.117,0.1196,0.126,0.1264,0.1242,0.1266,0.1258,0.0,0.1094,0.1056,0.0,0.0,0.0,0.0,0.0,0.0,0.0,0.0,0.0,0.0,0.0,0.0,0.0,0.0,0.0,0.0,0.0,0.0,0.0,0.0,0.0,0.0,0.1378,0.1317,0.1314,0.131,0.0,0.1052,0.0868,0.0898,0.0752,0.0,0.0,0.0,0.0,0.0,0.0,0.0,0.1531,0.1638,0.1729,0.179,0.1825,0.1906,0.2071,0.2456,0.282,0.3097,0.3481,0.3759,0.3896,0.3707,0.0,0.0,0.0,0.0,0.0,0.0,0.0,0.0,0.0,0.0,0.0,0.0,0.0,0.0,0.0,0.0,0.0,0.0,0.0,0.0,0.0,0.0,0.0,0.0,0.0,0.0,0.0,0.0,0.0,0.0637,0.0715,0.0742,0.0761,0.0765,0.0,0.0,0.0,0.0,0.0,0.0,0.0,0.0,0.0,0.1022,0.1065,0.1119,0.1184,0.1197,0.1225,0.1269,0.1242,0.1255,0.1309,0.1342,0.1346,0.1289,0.1381,0.1337,0.1224,0.1124,0.1223,0.136,0.0,0.0,0.0,0.0,0.1786,0.2098,0.2259,0.2465,0.0,0.2351,0.0,0.0,0.0,0.0,0.0,0.0,0.0,0.0,0.0,0.0,0.1391,0.1308,0.1337,0.1331,0.1309,0.1096,0.0922,0.0,0.0905,0.0838,0.069,0.0,0.0,0.0,0.0,0.1431,0.1486,0.1631,0.1779,0.1838,0.1816,0.1825,0.1878,0.2253,0.2549,0.271,0.3052,0.3442,0.3882,0.3562,0.3435,0.0,0.0,0.0,0.0,0.0,0.0,0.0,0.0,0.0,0.0,0.0,0.0,0.0,0.0,0.0,0.0,0.0,0.0,0.0,0.0,0.0,0.0,0.0,0.0,0.0,0.0,0.0,0.0,0.072,0.08,0.0833,0.0851,0.0842,0.0,0.0,0.0,0.0,0.0,0.0,0.0967,0.1018,0.1072,0.1166,0.1197,0.1245,0.1313,0.1322,0.134,0.1327,0.1335,0.1342,0.1352,0.1394,0.139,0.1353,0.1455,0.1439,0.1321,0.1241,0.1198,0.1154,0.1091,0.1061,0.1037,0.1035,0.1348,0.1729,0.1917,0.2271,0.2542,0.2068,0.1885,0.1732,0.1147,0.0,0.0,0.0,0.0,0.1059,0.1214,0.1299,0.1345,0.1274,0.131,0.1338,0.1277,0.1144,0.1045,0.0,0.1048,0.0977,0.0794,0.0,0.0,0.0,0.0,0.1529,0.1469,0.169,0.1852,0.1908,0.1843,0.1812,0.1798,0.2109,0.2353,0.2451,0.2668,0.3055,0.3638,0.3286,0.32,0.3499,0.0,0.0,0.0,0.0,0.0,0.0,0.0,0.0,0.0,0.0,0.0,0.0,0.0,0.0,0.0,0.0,0.0,0.0,0.0,0.0,0.0,0.0,0.0,0.0,0.0,0.0,0.0,0.0,0.0,0.0897,0.0955,0.0,0.0,0.0,0.0,0.0988,0.0993,0.1065,0.1187,0.1185,0.123,0.1292,0.1282,0.1299,0.1304,0.1372,0.1401,0.1386,0.146,0.1489,0.147,0.1473,0.1473,0.1468,0.1491,0.1462,0.1381,0.1323,0.1304,0.1284,0.1215,0.1184,0.1197,0.1191,0.1202,0.1245,0.1317,0.1367,0.1367,0.1364,0.126,0.1148,0.1109,0.1035,0.0,0.0,0.1089,0.108,0.1116,0.1176,0.1201,0.1201,0.1201,0.12,0.1198,0.1138,0.1115,0.0,0.1025,0.0898,0.0892,0.0,0.0944,0.1055,0.1259,0.1465,0.1588,0.1809,0.1972,0.1916,0.1908,0.1856,0.1801,0.193,0.2116,0.2301,0.2434,0.2687,0.3021,0.3014,0.2991,0.2947,0.2978,0.0,0.0,0.0,0.0,0.0,0.0,0.0,0.0,0.0,0.0,0.0,0.0,0.0,0.0,0.0,0.0,0.0,0.0,0.0,0.0,0.0,0.0,0.0,0.0,0.0,0.0,0.0,0.0,0.0965,0.1048,0.0,0.1033,0.1074,0.1142,0.1118,0.1155,0.12,0.1251,0.1283,0.1285,0.1342,0.1355,0.1379,0.1416,0.1472,0.1483,0.1447,0.1505,0.1515,0.1479,0.1547,0.1545,0.1478,0.1535,0.1522,0.1445,0.1425,0.136,0.1314,0.1263,0.1253,0.1244,0.1255,0.1259,0.126,0.1312,0.1316,0.1312,0.1293,0.1251,0.1246,0.1246,0.1181,0.1155,0.1221,0.1186,0.1184,0.1203,0.1255,0.1263,0.1263,0.1248,0.1196,0.1196,0.1172,0.1173,0.1198,0.1073,0.0955,0.0906,0.1002,0.1098,0.1162,0.1398,0.1618,0.1714,0.1891,0.201,0.2027,0.1958,0.1903,0.1853,0.1874,0.1907,0.1977,0.2017,0.2192,0.2533,0.2415,0.246,0.2701,0.2517,0.2409,0.0,0.0,0.0,0.0,0.0,0.0,0.0,0.0,0.0,0.0,0.0,0.0,0.0,0.0,0.0,0.0,0.0,0.0,0.0,0.0,0.0,0.0,0.0,0.0,0.0,0.0,0.1014,0.1044,0.1136,0.1214,0.1127,0.1186,0.1232,0.128,0.1271,0.1309,0.136,0.1329,0.136,0.1418,0.142,0.1439,0.1478,0.1536,0.1541,0.1541,0.1552,0.1557,0.1558,0.1578,0.1576,0.1557,0.1567,0.156,0.154,0.153,0.1433,0.1363,0.1353,0.1349,0.1348,0.1338,0.1334,0.1334,0.1334,0.1328,0.1316,0.1339,0.1312,0.1288,0.1288,0.1273,0.1262,0.1282,0.1273,0.126,0.127,0.1312,0.131,0.1299,0.1281,0.1227,0.1227,0.1203,0.1182,0.1182,0.1117,0.1018,0.0979,0.1075,0.1169,0.1177,0.138,0.1599,0.1728,0.1865,0.2009,0.2094,0.2002,0.1933,0.1912,0.183,0.1772,0.1725,0.1742,0.1829,0.2064,0.193,0.2021,0.2316,0.2149,0.2171,0.2367,0.0,0.0,0.0,0.0,0.0,0.0,0.0,0.0,0.0,0.0,0.0,0.0,0.0,0.0,0.0,0.0,0.0,0.0,0.0,0.0,0.0,0.0,0.0,0.0903,0.095,0.1016,0.1113,0.1225,0.1288,0.1219,0.1257,0.1319,0.1389,0.1323,0.1346,0.1478,0.1454,0.142,0.1478,0.148,0.148,0.1481,0.1558,0.1622,0.1622,0.1603,0.1617,0.1617,0.1617,0.1617,0.1615,0.1585,0.1622,0.157,0.1541,0.1481,0.1525,0.1494,0.1482,0.1478,0.1449,0.1393,0.1392,0.1392,0.1416,0.1392,0.1393,0.1373,0.1309,0.1309,0.1308,0.1307,0.1307,0.1306,0.13,0.1311,0.1303,0.1295,0.1305,0.1297,0.1296,0.1296,0.1234,0.1213,0.1213,0.1165,0.1088,0.1086,0.1097,0.1111,0.1109,0.121,0.0,0.158,0.1783,0.1965,0.2072,0.2042,0.1981,0.1918,0.1832,0.1747,0.1597,0.1592,0.1611,0.1596,0.1591,0.1658,0.1791,0.1909,0.2143,0.2483,0.0,0.0,0.0,0.0,0.0,0.0,0.0,0.0,0.0,0.0,0.0,0.0,0.0,0.0,0.0,0.0,0.0,0.0,0.0,0.0,0.0,0.0,0.1059,0.1059,0.1086,0.1157,0.1231,0.1307,0.1342,0.1272,0.1329,0.137,0.1378,0.1372,0.1396,0.151,0.1506,0.1519,0.1558,0.1559,0.157,0.1592,0.16,0.1605,0.1605,0.1613,0.1617,0.1617,0.1617,0.1617,0.1616,0.1608,0.1605,0.1604,0.1595,0.1592,0.1587,0.1534,0.1513,0.1513,0.1457,0.1487,0.1468,0.1468,0.1448,0.1427,0.1448,0.1436,0.1367,0.1367,0.1352,0.1378,0.1378,0.1321,0.1304,0.1296,0.1319,0.1301,0.1292,0.1313,0.1296,0.1296,0.129,0.1284,0.1284,0.1213,0.1172,0.1094,0.1114,0.1135,0.1214,0.1277,0.0,0.158,0.1783,0.1911,0.1963,0.2009,0.2045,0.1983,0.1922,0.1789,0.16,0.1657,0.1606,0.1463,0.1456,0.1501,0.1583,0.1621,0.1756,0.0,0.0,0.0,0.0,0.0,0.0,0.0,0.0,0.0,0.0,0.0,0.0,0.0,0.0,0.0,0.0,0.0,0.0,0.0,0.0,0.0,0.0,0.106,0.1167,0.1183,0.1209,0.1248,0.1313,0.1362,0.1388,0.1342,0.1382,0.1454,0.1454,0.142,0.1494,0.1543,0.1545,0.1559,0.159,0.159,0.1599,0.1617,0.1617,0.1617,0.1617,0.1617,0.1617,0.1617,0.1617,0.1617,0.1617,0.1617,0.1617,0.1617,0.1617,0.1617,0.0,0.0,0.0,0.0,0.0,0.1515,0.15,0.15,0.1488,0.143,0.1494,0.1479,0.1454,0.1454,0.1433,0.1409,0.1409,0.1354,0.1339,0.1326,0.1352,0.1333,0.1309,0.1289,0.1312,0.1299,0.1296,0.1296,0.1296,0.1281,0.0,0.1168,0.1102,0.1115,0.12,0.1253,0.1379,0.158,0.1783,0.1918,0.2018,0.2067,0.207,0.2008,0.1945,0.0,0.0,0.0,0.1609,0.1455,0.1424,0.0,0.0,0.0,0.0,0.0,0.0,0.0,0.0,0.2287,0.1967,0.0,0.0,0.0,0.0,0.0,0.0,0.0,0.0,0.0,0.0,0.0,0.0,0.0,0.0,0.0,0.0,0.1162,0.1226,0.1296,0.1335,0.1331,0.1313,0.1383,0.1411,0.1393,0.1468,0.1487,0.1491,0.1516,0.1545,0.1575,0.0,0.0,0.0,0.0,0.1617,0.1617,0.1617,0.1619,0.1622,0.1622,0.1622,0.1622,0.1622,0.162,0.1617,0.1617,0.1617,0.1617,0.1617,0.1617,0.1614,0.1587,0.1577,0.1573,0.1543,0.1531,0.1531,0.1531,0.0,0.0,0.153,0.151,0.1486,0.1486,0.1465,0.1395,0.1395,0.1393,0.1384,0.1402,0.1393,0.1377,0.1325,0.1307,0.1295,0.1307,0.1299,0.1296,0.1296,0.1296,0.1288,0.126,0.1169,0.1094,0.1087,0.1235,0.1383,0.1547,0.1749,0.1951,0.2154,0.0,0.0,0.2019,0.1957,0.1841,0.1723,0.1703,0.165,0.1525,0.1463,0.1431,0.1431,0.1539,0.1684,0.1878,0.2005,0.224,0.2585,0.1995,0.1677,0.0,0.0,0.0,0.0,0.0,0.0,0.0,0.0,0.0,0.0,0.0,0.0,0.0,0.0,0.0,0.1181,0.1222,0.1288,0.1375,0.1419,0.144,0.1376,0.1444,0.1466,0.1471,0.15,0.1528,0.1601,0.156,0.1576,0.1607,0.1608,0.1611,0.1616,0.1617,0.1617,0.1617,0.1617,0.1629,0.1705,0.0,0.0,0.1705,0.1705,0.164,0.1617,0.1617,0.1617,0.1617,0.1617,0.1617,0.1616,0.161,0.1608,0.1605,0.1574,0.1563,0.1563,0.1563,0.1547,0.153,0.1555,0.1542,0.1517,0.1517,0.1496,0.0,0.1472,0.1454,0.1389,0.1383,0.1408,0.1387,0.1376,0.1337,0.1301,0.1295,0.1314,0.1296,0.1296,0.1296,0.1334,0.1484,0.1333,0.1177,0.1093,0.1256,0.1379,0.1349,0.1681,0.1918,0.1951,0.2076,0.2145,0.2082,0.202,0.1934,0.1786,0.1687,0.1644,0.167,0.1588,0.1556,0.1556,0.1533,0.1595,0.1746,0.1769,0.1847,0.1973,0.1949,0.1978,0.0,0.0,0.0,0.0,0.0,0.0,0.0,0.0,0.0,0.0,0.0,0.1036,0.1099,0.0,0.1213,0.1288,0.1339,0.1384,0.1429,0.1475,0.1492,0.1461,0.1471,0.1487,0.1502,0.1517,0.1538,0.1618,0.1585,0.16,0.1616,0.1617,0.1617,0.1617,0.1617,0.1624,0.1639,0.1639,0.1654,0.1683,0.1683,0.1683,0.1683,0.1683,0.1675,0.166,0.166,0.166,0.1659,0.1645,0.163,0.1617,0.1617,0.1617,0.1615,0.16,0.1594,0.1594,0.1594,0.1584,0.1574,0.159,0.1573,0.1549,0.1549,0.1528,0.15,0.1485,0.147,0.1455,0.1394,0.1379,0.1409,0.1393,0.1356,0.128,0.1306,0.1319,0.1296,0.1296,0.1375,0.1493,0.1572,0.1556,0.1524,0.1467,0.1604,0.1674,0.1652,0.1901,0.2052,0.2052,0.2154,0.2163,0.21,0.201,0.1932,0.1842,0.1728,0.1674,0.1704,0.1647,0.1591,0.1591,0.156,0.1594,0.1644,0.1644,0.1685,0.174,0.1821,0.1903,0.0,0.0,0.0,0.0,0.0,0.0,0.0,0.0,0.095,0.0952,0.1061,0.117,0.1221,0.1281,0.135,0.1386,0.1403,0.1429,0.149,0.1519,0.1525,0.1501,0.1493,0.1501,0.1532,0.153,0.1541,0.1577,0.1603,0.1617,0.1617,0.1617,0.1617,0.1617,0.1622,0.1637,0.1714,0.172,0.1684,0.1713,0.1713,0.1713,0.1713,0.1713,0.171,0.1704,0.1704,0.1704,0.1703,0.168,0.1653,0.1626,0.1626,0.1622,0.1617,0.1617,0.1617,0.1617,0.1617,0.1617,0.1617,0.1617,0.16,0.158,0.158,0.1559,0.1528,0.1498,0.1485,0.1474,0.1398,0.1391,0.1384,0.1405,0.1377,0.1305,0.1318,0.1288,0.1304,0.1298,0.1415,0.1572,0.165,0.1807,0.1871,0.1826,0.1931,0.201,0.2,0.2122,0.2188,0.2188,0.2188,0.2163,0.21,0.2004,0.1941,0.1929,0.18,0.174,0.174,0.1683,0.1701,0.1803,0.1727,0.1727,0.1803,0.1727,0.1701,0.1723,0.1723,0.1751,0.0813,0.0842,0.087,0.0871,0.0872,0.0921,0.0,0.0,0.1108,0.1169,0.1232,0.1279,0.1286,0.1335,0.1387,0.1379,0.1453,0.1492,0.1601,0.1613,0.1565,0.161,0.1538,0.1533,0.1564,0.1542,0.155,0.1607,0.1615,0.1617,0.1617,0.1617,0.1617,0.1617,0.1643,0.1711,0.1714,0.1687,0.1714,0.1799,0.1799,0.1799,0.1799,0.1799,0.173,0.1704,0.1704,0.1704,0.1704,0.1701,0.1683,0.1709,0.1709,0.1641,0.1617,0.1617,0.1617,0.1617,0.1617,0.1617,0.1617,0.1617,0.1614,0.1611,0.1611,0.1591,0.156,0.153,0.1502,0.1474,0.1398,0.1391,0.139,0.1386,0.1407,0.1378,0.1307,0.1319,0.129,0.1302,0.1335,0.1454,0.1808,0.1887,0.1871,0.1826,0.1923,0.2016,0.2005,0.2122,0.2188,0.2188,0.2188,0.2163,0.21,0.2082,0.2051,0.1995,0.1929,0.189,0.189,0.1807,0.2023,0.2567,0.2158,0.2158,0.2567,0.2158,0.1887,0.1786,0.1786,0.1783,0.0919,0.0935,0.0,0.0,0.1037,0.1091,0.1158,0.1187,0.1213,0.1256,0.1312,0.1353,0.1353,0.1388,0.1426,0.0,0.1487,0.1522,0.1615,0.162,0.162,0.162,0.1545,0.1538,0.1568,0.156,0.157,0.1613,0.1617,0.1617,0.1617,0.1634,0.1643,0.1643,0.1671,0.1695,0.1766,0.1778,0.1746,0.1776,0.1776,0.1776,0.1776,0.1776,0.1769,0.1757,0.1757,0.1747,0.1785,0.1785,0.1713,0.1685,0.1721,0.1706,0.1641,0.1624,0.1617,0.1617,0.1617,0.1617,0.1617,0.1617,0.1617,0.1617,0.1617,0.1608,0.1592,0.1561,0.153,0.15,0.147,0.1448,0.1391,0.1391,0.1412,0.1386,0.1375,0.1336,0.1299,0.1286,0.1388,0.1533,0.169,0.1924,0.2073,0.2052,0.2158,0.2215,0.2196,0.2174,0.2194,0.2192,0.2188,0.2177,0.2152,0.2116,0.2084,0.2059,0.2366,0.2385,0.2086,0.2636,0.2934,0.2877,0.2906,0.3014,0.3236,0.3014,0.2905,0.2852,0.2852,0.2852,0.0988,0.0,0.0,0.1127,0.1189,0.121,0.1232,0.1266,0.134,0.1322,0.1367,0.1402,0.1402,0.1421,0.1403,0.1487,0.1505,0.153,0.1577,0.1569,0.1562,0.162,0.1545,0.1538,0.1568,0.162,0.1584,0.1614,0.1617,0.1617,0.1617,0.1646,0.1714,0.1714,0.1697,0.1727,0.1804,0.1813,0.1774,0.1795,0.1795,0.1795,0.1795,0.1795,0.1795,0.1795,0.1795,0.1782,0.1817,0.1817,0.1744,0.1714,0.1747,0.1729,0.1712,0.1637,0.1624,0.1617,0.1617,0.1617,0.1617,0.1617,0.1617,0.1617,0.1617,0.1617,0.1609,0.157,0.1543,0.1517,0.1478,0.1452,0.1391,0.1391,0.1418,0.14,0.1392,0.1356,0.1322,0.1306,0.1445,0.1623,0.1691,0.1962,0.2235,0.2275,0.2356,0.2381,0.2308,0.2232,0.2203,0.2193,0.2188,0.2188,0.2188,0.2309,0.2411,0.2411,0.2977,0.3146,0.2774,0.3475,0.3771,0.3564,0.3713,0.3869,0.3983,0.3869,0.3783,0.3724,0.3724,0.3724,0.0,0.0,0.1125,0.1192,0.1232,0.1299,0.13,0.1344,0.1386,0.1387,0.1412,0.1389,0.1389,0.139,0.1409,0.1467,0.15,0.1513,0.1603,0.1565,0.1538,0.1568,0.1545,0.1538,0.0,0.162,0.1584,0.1614,0.1617,0.1617,0.1617,0.1646,0.1714,0.1714,0.1772,0.1803,0.1804,0.1779,0.1794,0.1795,0.1795,0.1795,0.1795,0.1795,0.1795,0.1795,0.1795,0.1794,0.1793,0.1793,0.1776,0.1803,0.1802,0.1766,0.1714,0.1713,0.1642,0.1617,0.1617,0.1617,0.1617,0.1617,0.1617,0.1617,0.1617,0.1617,0.1605,0.1544,0.1479,0.1465,0.1407,0.1391,0.1391,0.1391,0.139,0.1381,0.1396,0.1388,0.137,0.1313,0.1465,0.1656,0.1855,0.208,0.2275,0.247,0.2508,0.2466,0.2314,0.223,0.219,0.2188,0.2188,0.2188,0.2188,0.2783,0.318,0.318,0.3808,0.4165,0.4131,0.4109,0.4345,0.4928,0.4497,0.4494,0.4951,0.4494,0.4221,0.4096,0.4096,0.4096,0.0,0.0,0.1198,0.1269,0.1324,0.1366,0.1386,0.1406,0.1414,0.1394,0.1398,0.1399,0.1338,0.1349,0.1425,0.1486,0.1487,0.1513,0.1604,0.1564,0.153,0.154,0.155,0.0,0.0,0.0,0.0,0.1614,0.1617,0.1626,0.1646,0.1675,0.1699,0.1773,0.1814,0.178,0.178,0.179,0.1795,0.1795,0.1795,0.1795,0.1795,0.1795,0.1795,0.1795,0.1795,0.1795,0.1795,0.1795,0.1789,0.1778,0.1813,0.1792,0.1769,0.1729,0.1707,0.1644,0.1624,0.1617,0.1617,0.1617,0.1617,0.1617,0.1617,0.1617,0.1609,0.1568,0.1542,0.1517,0.1476,0.1451,0.1391,0.1391,0.1391,0.1433,0.1645,0.1668,0.1687,0.1792,0.1868,0.1906,0.1971,0.2101,0.2275,0.247,0.2476,0.2385,0.2308,0.2229,0.2199,0.2192,0.2586,0.2852,0.2852,0.352,0.3918,0.3918,0.4608,0.4846,0.4492,0.5131,0.5428,0.5279,0.533,0.5427,0.5608,0.5427,0.5336,0.5302,0.5302,0.5302,0.1156,0.1213,0.1264,0.1301,0.1384,0.1411,0.1386,0.1382,0.1414,0.1394,0.1373,0.1353,0.1294,0.1337,0.1369,0.1451,0.1447,0.1476,0.1599,0.1555,0.1518,0.154,0.155,0.1552,0.0,0.0,0.0,0.1614,0.1617,0.163,0.1712,0.1689,0.1718,0.1803,0.1779,0.1795,0.1795,0.1795,0.1795,0.1795,0.1795,0.1795,0.1795,0.1795,0.1795,0.1795,0.1795,0.1795,0.1795,0.1795,0.1795,0.1793,0.1774,0.1814,0.1799,0.1761,0.1733,0.171,0.1627,0.1617,0.1617,0.1617,0.1617,0.1617,0.1617,0.1617,0.1611,0.158,0.1558,0.1533,0.1491,0.1466,0.1449,0.1393,0.148,0.157,0.1749,0.1864,0.1973,0.2089,0.2109,0.2093,0.2115,0.2231,0.2353,0.247,0.2477,0.2394,0.2336,0.2472,0.2608,0.2596,0.3204,0.3582,0.3582,0.4284,0.4683,0.4683,0.5348,0.5617,0.5256,0.5914,0.6117,0.5764,0.5978,0.6079,0.6079,0.6079,0.6079,0.6079,0.6079,0.6079,0.1202,0.1262,0.1321,0.1378,0.1414,0.139,0.1388,0.141,0.1386,0.1384,0.1337,0.1295,0.0,0.0,0.1333,0.1366,0.1342,0.137,0.159,0.154,0.1507,0.0,0.0,0.0,0.0,0.0,0.0,0.1617,0.0,0.1633,0.1715,0.1691,0.172,0.1806,0.178,0.1795,0.1795,0.1795,0.1795,0.1795,0.1795,0.1795,0.1795,0.1795,0.1795,0.1795,0.1795,0.1795,0.1795,0.1795,0.1795,0.1795,0.1795,0.1777,0.1807,0.1805,0.1767,0.1712,0.163,0.1618,0.1617,0.1617,0.1617,0.1617,0.1617,0.1617,0.1611,0.158,0.162,0.1606,0.1496,0.1527,0.1519,0.1442,0.1615,0.1839,0.1839,0.2019,0.2186,0.2141,0.2222,0.2337,0.2325,0.2431,0.2511,0.2511,0.2511,0.2489,0.2426,0.2932,0.3328,0.3285,0.3956,0.4361,0.4353,0.5014,0.5444,0.5444,0.605,0.6387,0.6387,0.6387,0.6387,0.6387,0.6387,0.6387,0.6387,0.6387,0.6387,0.6387,0.6387,0.6387,0.125,0.134,0.1377,0.1414,0.1385,0.1385,0.1407,0.138,0.1346,0.1341,0.1282,0.1194,0.0,0.0,0.0,0.1324,0.1337,0.0,0.1567,0.1563,0.0,0.0,0.0,0.1588,0.1622,0.1592,0.0,0.0,0.1651,0.1663,0.1692,0.1722,0.1807,0.1782,0.1791,0.1795,0.1795,0.1795,0.1795,0.1795,0.1795,0.1795,0.1795,0.1795,0.1795,0.1795,0.1795,0.1795,0.1795,0.1795,0.1795,0.1795,0.1795,0.179,0.178,0.1813,0.178,0.169,0.166,0.1636,0.1617,0.1617,0.1617,0.1617,0.1617,0.1617,0.1611,0.158,0.162,0.1606,0.1496,0.1619,0.1703,0.1713,0.1885,0.2154,0.2289,0.2379,0.2465,0.2675,0.2635,0.2588,0.253,0.2511,0.2511,0.2511,0.2511,0.2489,0.2426,0.3101,0.3505,0.3332,0.4471,0.5234,0.5123,0.5749,0.6148,0.6148,0.6317,0.6387,0.6387,0.6387,0.6387,0.6387,0.6387,0.6387,0.6387,0.6387,0.6387,0.6387,0.6387,0.6387,0.1307,0.1388,0.1414,0.1386,0.1381,0.1404,0.1361,0.1318,0.1231,0.121,0.115,0.0,0.0,0.0,0.0,0.0,0.0,0.0,0.1555,0.162,0.1577,0.0,0.1607,0.0,0.1593,0.1607,0.1629,0.0,0.1714,0.1733,0.1722,0.1795,0.1818,0.1794,0.1795,0.1795,0.1795,0.1795,0.1795,0.1795,0.1795,0.1795,0.1795,0.1795,0.1795,0.1795,0.0,0.1795,0.1795,0.1795,0.1795,0.1795,0.1795,0.1795,0.1793,0.1776,0.1742,0.1702,0.1686,0.1652,0.1617,0.1617,0.1626,0.1635,0.1621,0.1617,0.1613,0.1596,0.1691,0.1778,0.1725,0.19,0.2028,0.197,0.2183,0.2406,0.2473,0.2915,0.3309,0.3456,0.3166,0.283,0.2616,0.2852,0.3053,0.3059,0.3134,0.3272,0.3498,0.3873,0.4214,0.4452,0.544,0.6059,0.5966,0.6228,0.6387,0.6387,0.6387,0.6387,0.6387,0.6387,0.6387,0.6387,0.6387,0.6387,0.6387,0.6387,0.6387,0.6387,0.6387,0.6387,0.1388,0.1415,0.1391,0.1391,0.1412,0.1373,0.1311,0.1249,0.1186,0.1117,0.0,0.0984,0.0984,0.0,0.1138,0.1264,0.0,0.1354,0.1539,0.1615,0.1581,0.1608,0.1614,0.1617,0.1617,0.162,0.1635,0.1717,0.1724,0.1749,0.1802,0.1808,0.1823,0.1794,0.1795,0.1795,0.1795,0.1795,0.1795,0.1795,0.1795,0.1795,0.1795,0.1795,0.1795,0.1795,0.1795,0.1795,0.1795,0.1795,0.1795,0.1795,0.1795,0.1795,0.1795,0.1795,0.1757,0.1704,0.1704,0.1669,0.1623,0.1623,0.1638,0.1704,0.163,0.162,0.1617,0.1617,0.1768,0.2013,0.2024,0.2208,0.243,0.2484,0.2597,0.2764,0.2939,0.3771,0.4452,0.4413,0.3866,0.3343,0.3054,0.3541,0.3981,0.4019,0.4114,0.4457,0.5079,0.4947,0.5098,0.5902,0.6476,0.6757,0.6733,0.6583,0.6477,0.6457,0.6457,0.6444,0.6387,0.6387,0.6387,0.6387,0.6387,0.6387,0.6387,0.6387,0.6387,0.6387,0.6387,0.6387,0.1419,0.1386,0.1391,0.1391,0.1412,0.1368,0.1324,0.1256,0.0,0.0,0.0,0.0921,0.0921,0.0967,0.0,0.1199,0.0,0.0,0.0,0.0,0.1623,0.0,0.0,0.0,0.0,0.0,0.0,0.0,0.0,0.1793,0.1804,0.1774,0.1789,0.1795,0.1795,0.1795,0.1795,0.1795,0.1795,0.1795,0.1795,0.1795,0.1795,0.1795,0.1795,0.1795,0.1795,0.0,0.1795,0.1795,0.1795,0.1795,0.1795,0.1795,0.1795,0.1795,0.1757,0.1704,0.1704,0.1682,0.1706,0.1706,0.1641,0.1628,0.1648,0.1637,0.1617,0.1617,0.1768,0.2013,0.2024,0.2307,0.2875,0.371,0.3553,0.36,0.5091,0.5428,0.5447,0.5427,0.5303,0.5137,0.5099,0.5061,0.5047,0.5026,0.4943,0.5118,0.5893,0.552,0.5387,0.5952,0.6681,0.707,0.6955,0.6914,0.6829,0.6639,0.6639,0.6578,0.6391,0.6387,0.6387,0.6387,0.6387,0.6387,0.6387,0.6387,0.6387,0.6387,0.6387,0.6387,0.2138,0.1793,0.1391,0.1391,0.1389,0.1403,0.1652,0.0,0.0,0.0,0.0,0.1143,0.0904,0.0,0.0,0.0,0.0,0.0,0.0,0.0,0.0,0.0,0.0,0.0,0.0,0.0,0.0,0.0,0.0,0.174,0.1772,0.1787,0.1795,0.1795,0.1795,0.1795,0.1795,0.1795,0.1795,0.1795,0.1795,0.1795,0.1795,0.1795,0.1795,0.1795,0.1795,0.0,0.1795,0.1795,0.1795,0.1795,0.1795,0.1795,0.1795,0.1795,0.1757,0.1704,0.1704,0.1675,0.1746,0.2406,0.2183,0.1643,0.171,0.1744,0.192,0.247,0.2923,0.337,0.3934,0.4369,0.4738,0.5229,0.4996,0.5055,0.631,0.6204,0.6027,0.634,0.6113,0.5785,0.5634,0.5906,0.6106,0.5966,0.5927,0.6172,0.6795,0.6356,0.6175,0.6711,0.7049,0.7192,0.7102,0.7045,0.6951,0.6861,0.6771,0.6647,0.6566,0.6469,0.6387,0.6387,0.6387,0.6387,0.6387,0.6387,0.6387,0.6387,0.6387,0.6387,0.2791,0.2144,0.1389,0.1383,0.1364,0.1436,0.1949,0.1867,0.0,0.0,0.0,0.1544,0.117,0.0,0.0,0.0,0.0,0.0,0.0,0.0,0.0,0.0,0.0,0.0,0.0,0.0,0.0,0.0,0.0,0.0,0.1793,0.1795,0.1795,0.1795,0.1795,0.1795,0.1795,0.1795,0.1795,0.1795,0.1795,0.1795,0.1795,0.1795,0.1795,0.1795,0.1795,0.0,0.1795,0.1795,0.1795,0.1795,0.1795,0.1795,0.1795,0.1795,0.1757,0.1757,0.197,0.2034,0.2195,0.3423,0.3043,0.2067,0.2343,0.2568,0.2875,0.3723,0.4325,0.4929,0.5779,0.6176,0.6388,0.6346,0.6493,0.6761,0.7132,0.6915,0.6782,0.7319,0.7003,0.6568,0.6288,0.6761,0.7119,0.6843,0.6929,0.7126,0.7466,0.7099,0.6984,0.7446,0.7362,0.7281,0.7281,0.7188,0.7086,0.7049,0.691,0.6781,0.6753,0.657,0.6473,0.6477,0.6407,0.6387,0.6387,0.6387,0.6387,0.6387,0.6387,0.6387,0.2608,0.2032,0.1384,0.1401,0.1348,0.143,0.1905,0.0,0.0,0.0,0.2234,0.2126,0.2078,0.2084,0.0,0.0,0.0,0.0,0.0,0.0,0.0,0.0,0.0,0.0,0.0,0.0,0.0,0.0,0.0,0.0,0.1795,0.1795,0.1795,0.1795,0.1795,0.1795,0.1795,0.1795,0.1795,0.1795,0.1795,0.1795,0.1795,0.1795,0.1795,0.1795,0.1795,0.0,0.0,0.1795,0.1795,0.1795,0.1795,0.1795,0.1795,0.1795,0.1757,0.1864,0.282,0.3205,0.3421,0.4592,0.4102,0.3303,0.4461,0.4862,0.4929,0.5029,0.5429,0.5879,0.5979,0.6176,0.6415,0.6384,0.7634,0.8555,0.7642,0.794,0.8388,0.8432,0.8432,0.838,0.8321,0.8225,0.8092,0.7896,0.7777,0.7652,0.7504,0.7446,0.7446,0.7484,0.7468,0.746,0.746,0.7443,0.7366,0.7212,0.7151,0.7102,0.6971,0.6784,0.666,0.6672,0.6505,0.6387,0.6387,0.6387,0.6387,0.6387,0.6387,0.6387,0.3442,0.2908,0.214,0.1572,0.2119,0.2759,0.2567,0.0,0.2772,0.2903,0.2778,0.2516,0.2197,0.2178,0.2303,0.0,0.0,0.0,0.0,0.0,0.0,0.0,0.0,0.0,0.0,0.0,0.0,0.0,0.0,0.0,0.2813,0.2174,0.1795,0.1795,0.1795,0.1795,0.1795,0.1795,0.1795,0.1795,0.1795,0.1795,0.1795,0.1795,0.1795,0.1795,0.1795,0.0,0.0,0.1795,0.1795,0.1851,0.2576,0.2465,0.1905,0.2547,0.277,0.271,0.3154,0.3802,0.4608,0.573,0.5843,0.5546,0.5372,0.5379,0.5625,0.642,0.6921,0.7375,0.7975,0.8226,0.8297,0.8084,0.8578,0.8906,0.8282,0.8388,0.8612,0.8612,0.8612,0.8612,0.8612,0.8551,0.8357,0.8057,0.7955,0.7809,0.7521,0.7484,0.7484,0.7484,0.7484,0.7484,0.7484,0.7484,0.7452,0.7382,0.7285,0.7192,0.7123,0.6975,0.6882,0.6886,0.6676,0.6587,0.6587,0.6473,0.6387,0.642,0.663,0.6751,0.4246,0.374,0.3017,0.2267,0.2922,0.3644,0.0,0.0,0.342,0.3495,0.3286,0.299,0.2613,0.261,0.2752,0.2968,0.0,0.2989,0.0,0.0,0.0,0.0,0.0,0.0,0.0,0.0,0.0,0.0,0.0,0.0,0.3895,0.3177,0.2606,0.2353,0.1963,0.1963,0.2353,0.1963,0.1963,0.2353,0.1963,0.1795,0.1795,0.1795,0.1795,0.1795,0.1795,0.0,0.0,0.212,0.2059,0.1947,0.3425,0.3253,0.2371,0.348,0.3854,0.3844,0.4159,0.4808,0.5786,0.6916,0.7434,0.7455,0.6859,0.6686,0.6874,0.7819,0.8273,0.8623,0.9426,0.9579,0.9551,0.9246,0.9133,0.9015,0.871,0.8649,0.8612,0.8612,0.8612,0.8612,0.8612,0.8612,0.8506,0.8142,0.8048,0.7906,0.7645,0.7555,0.7484,0.7484,0.7484,0.7484,0.7484,0.7484,0.7484,0.7484,0.737,0.7301,0.7301,0.7131,0.7069,0.7069,0.6894,0.6804,0.6804,0.6707,0.6676,0.668,0.7018,0.7181,0.474,0.4293,0.3796,0.3792,0.364,0.3591,0.0,0.3729,0.3501,0.3903,0.3785,0.36,0.3578,0.3697,0.3866,0.4147,0.3847,0.0,0.0,0.0,0.0,0.0,0.0,0.0,0.0,0.0,0.0,0.0,0.0,0.0,0.4884,0.4886,0.448,0.3632,0.2409,0.2353,0.358,0.2409,0.2409,0.358,0.2353,0.1795,0.1795,0.1795,0.1795,0.1795,0.0,0.0,0.0,0.2972,0.2732,0.202,0.4066,0.4252,0.3406,0.4515,0.4882,0.5012,0.61,0.6562,0.6916,0.8262,0.8674,0.8776,0.9282,0.9318,0.9183,0.9187,0.9381,0.9579,0.9579,0.9579,0.9579,0.9445,0.9222,0.9047,0.8861,0.8686,0.8612,0.8612,0.8612,0.8612,0.8612,0.8612,0.8547,0.8316,0.813,0.7951,0.782,0.7637,0.7484,0.7484,0.7484,0.7484,0.7484,0.7484,0.7484,0.7484,0.748,0.748,0.748,0.7313,0.7187,0.7187,0.7077,0.6988,0.6988,0.7193,0.7296,0.7296,0.7486,0.7664,0.4349,0.4309,0.4051,0.3358,0.4004,0.4625,0.398,0.3883,0.3966,0.3984,0.3785,0.3604,0.3604,0.3638,0.3836,0.4314,0.4389,0.0,0.0,0.0,0.0,0.0,0.0,0.0,0.0,0.0,0.0,0.0,0.0,0.0,0.6093,0.5324,0.483,0.4614,0.4234,0.4312,0.4804,0.4472,0.4472,0.4804,0.4416,0.4249,0.4247,0.4145,0.4069,0.0,0.0,0.0,0.3942,0.4295,0.4233,0.4068,0.553,0.5413,0.4561,0.5704,0.6073,0.6036,0.6518,0.7307,0.8139,0.8593,0.8985,0.9259,0.9299,0.9226,0.9236,0.943,0.9529,0.9579,0.9579,0.9579,0.9579,0.9445,0.9222,0.9047,0.8861,0.8686,0.8612,0.8612,0.8612,0.8612,0.8612,0.8612,0.8547,0.8316,0.8134,0.7951,0.782,0.7637,0.7484,0.7484,0.7484,0.7484,0.7484,0.7484,0.7484,0.7484,0.7484,0.7484,0.7484,0.7431,0.7403,0.7403,0.7228,0.7212,0.7354,0.7332,0.748,0.7833,0.7906,0.8125,0.0,0.466,0.4633,0.4003,0.4576,0.5067,0.4254,0.4132,0.4137,0.3954,0.3744,0.3604,0.3604,0.3648,0.3822,0.4252,0.4518,0.0,0.0,0.0,0.0,0.0,0.0,0.0,0.0,0.0,0.0,0.0,0.0,0.0,0.7155,0.6459,0.6135,0.63,0.5485,0.5331,0.5973,0.5533,0.5533,0.5973,0.5478,0.5239,0.5204,0.5098,0.502,0.0,0.0,0.4884,0.0,0.5324,0.5256,0.5041,0.6567,0.6497,0.5615,0.6827,0.7334,0.7331,0.7547,0.8123,0.886,0.9006,0.9299,0.9519,0.9413,0.9331,0.9381,0.9529,0.9579,0.9579,0.9579,0.9579,0.9579,0.9445,0.9222,0.9047,0.8861,0.8686,0.8612,0.8612,0.8612,0.8612,0.8612,0.8612,0.8571,0.841,0.8235,0.8052,0.7878,0.7739,0.76,0.7492,0.7484,0.7484,0.7484,0.7484,0.7484,0.7484,0.7484,0.7484,0.7484,0.7484,0.7484,0.7484,0.7458,0.7476,0.7622,0.7684,0.7909,0.8333,0.8333,0.8473,0.0,0.5155,0.53,0.53,0.5159,0.4948,0.4704,0.4395,0.0,0.3849,0.3703,0.361,0.3631,0.3733,0.386,0.4041,0.446,0.0,0.0,0.0,0.0,0.0,0.0,0.0,0.0,0.0,0.0,0.0,0.0,0.0,0.7988,0.7988,0.8106,0.8248,0.6237,0.5709,0.701,0.5926,0.5926,0.701,0.5872,0.5287,0.5149,0.5142,0.514,0.0,0.0,0.5128,0.5177,0.6181,0.6036,0.5302,0.7234,0.7394,0.6665,0.7858,0.848,0.871,0.89,0.9006,0.9176,0.9419,0.9558,0.9579,0.9579,0.9579,0.9579,0.9579,0.9579,0.9579,0.9579,0.9579,0.9587,0.9461,0.9234,0.9051,0.8877,0.8694,0.8612,0.8612,0.8612,0.8612,0.8612,0.8612,0.8612,0.8612,0.841,0.8227,0.8057,0.7874,0.7735,0.7559,0.7492,0.7484,0.7484,0.7484,0.7484,0.7484,0.7484,0.7484,0.7484,0.7484,0.7522,0.7522,0.7723,0.7842,0.7842,0.8217,0.8513,0.8703,0.8703,0.8703,0.4176,0.0,0.4334,0.4334,0.4281,0.4237,0.0,0.4033,0.3877,0.0,0.0,0.3672,0.3877,0.3846,0.4026,0.4722,0.5057,0.0,0.0,0.0,0.0,0.0,0.0,0.0,0.0,0.0,0.0,0.0,0.0,0.7988,0.7988,0.7988,0.8005,0.8092,0.7566,0.7545,0.8107,0.784,0.784,0.8107,0.784,0.7666,0.7629,0.7535,0.7489,0.0,0.7325,0.7279,0.7276,0.755,0.7485,0.7328,0.7802,0.7962,0.7913,0.8207,0.8543,0.8904,0.91,0.9268,0.9411,0.9534,0.9561,0.9579,0.9579,0.9579,0.9579,0.9579,0.9579,0.9579,0.9579,0.9579,0.9567,0.9571,0.9324,0.9084,0.9043,0.8787,0.8612,0.8612,0.8612,0.8612,0.8612,0.8612,0.8612,0.8612,0.841,0.8276,0.8231,0.7992,0.7784,0.7739,0.7608,0.7484,0.7484,0.7484,0.7484,0.7484,0.7484,0.7484,0.7484,0.7484,0.7561,0.7723,0.8063,0.8255,0.8255,0.8513,0.8665,0.8703,0.8703,0.8703,0.3795,0.4016,0.4222,0.4222,0.4277,0.429,0.4129,0.0,0.0,0.0,0.0,0.0,0.3954,0.0,0.0,0.0,0.0,0.0,0.0,0.0,0.0,0.0,0.0,0.0,0.0,0.0,0.0,0.0,0.0,0.7988,0.7988,0.7988,0.7988,0.7988,0.7988,0.815,0.8384,0.8384,0.8384,0.8384,0.8384,0.8347,0.8275,0.8197,0.8163,0.0,0.8025,0.7988,0.7988,0.7988,0.7988,0.7995,0.8116,0.8197,0.8337,0.863,0.8937,0.9274,0.9542,0.964,0.9657,0.9635,0.9579,0.9579,0.9579,0.9579,0.9579,0.9579,0.9579,0.9579,0.9579,0.9579,0.9608,0.9522,0.9295,0.9076,0.8991,0.8759,0.8612,0.8612,0.8612,0.8612,0.8612,0.8612,0.8612,0.8612,0.8526,0.8385,0.83,0.8122,0.798,0.7816,0.771,0.7612,0.7488,0.7484,0.7484,0.7484,0.7603,0.7642,0.7642,0.7718,0.7872,0.8068,0.8293,0.8437,0.8551,0.8665,0.8703,0.8703,0.8703,0.8703,0.3658,0.4071,0.4474,0.4406,0.4522,0.4551,0.425,0.0,0.0,0.0,0.0,0.0,0.0,0.0,0.0,0.0,0.0,0.0,0.0,0.0,0.0,0.0,0.0,0.0,0.0,0.0,0.0,0.0,0.0,0.7988,0.7988,0.7988,0.7988,0.7988,0.7988,0.8102,0.8235,0.8235,0.8235,0.8235,0.8235,0.8167,0.7988,0.7988,0.7988,0.7992,0.0,0.0,0.8025,0.8049,0.8056,0.8069,0.8252,0.8368,0.8419,0.8991,0.9366,0.965,0.9919,0.9971,0.9892,0.9693,0.9579,0.9579,0.9579,0.9579,0.9579,0.9579,0.9579,0.9579,0.9579,0.9579,0.9587,0.9482,0.9242,0.9056,0.8897,0.8706,0.8612,0.8612,0.8612,0.8612,0.8612,0.8612,0.8612,0.8612,0.8612,0.8555,0.8353,0.8308,0.8174,0.7914,0.7833,0.7735,0.7575,0.75,0.7522,0.7561,0.7723,0.7804,0.7842,0.803,0.8217,0.8403,0.8441,0.8513,0.8703,0.8703,0.8703,0.8703,0.8703,0.8703,0.3883,0.4202,0.4399,0.4013,0.4107,0.4244,0.4068,0.0,0.0,0.0,0.0,0.0,0.0,0.0,0.0,0.0,0.0,0.0,0.0,0.0,0.0,0.0,0.0,0.0,0.0,0.0,0.0,0.0,0.0,0.7988,0.7988,0.7988,0.7988,0.7988,0.7988,0.8002,0.8025,0.8025,0.8025,0.8025,0.8025,0.8012,0.7988,0.7988,0.7988,0.7995,0.0,0.8235,0.8245,0.8364,0.8414,0.8418,0.8438,0.853,0.8702,0.9069,0.9439,0.9793,1.0095,1.0164,1.0067,0.9734,0.9579,0.9579,0.9579,0.9579,0.9579,0.9579,0.9579,0.9579,0.9579,0.9579,0.9571,0.9592,0.9336,0.9088,0.906,0.88,0.8612,0.8612,0.8612,0.8612,0.8612,0.8612,0.8612,0.8612,0.8612,0.86,0.8571,0.839,0.8268,0.8215,0.798,0.7788,0.7759,0.7612,0.7561,0.7723,0.7765,0.7876,0.803,0.8255,0.8365,0.8403,0.8551,0.8665,0.8703,0.8703,0.8703,0.8703,0.8703,0.8703,0.3744,0.406,0.4297,0.4065,0.4358,0.4658,0.4513,0.0,0.0,0.0,0.0,0.0,0.0,0.0,0.0,0.0,0.0,0.0,0.0,0.0,0.0,0.0,0.0,0.0,0.0,0.0,0.0,0.0,0.0,0.0,0.7988,0.7988,0.7988,0.7988,0.7988,0.7988,0.7988,0.7988,0.7988,0.7992,0.8126,0.8163,0.8163,0.8163,0.8208,0.8282,0.0,0.8391,0.8327,0.8391,0.8316,0.8258,0.8421,0.8584,0.8752,0.9396,0.9774,1.001,1.0168,1.0034,0.9847,0.9681,0.9579,0.9579,0.9579,0.9579,0.9579,0.9579,0.9579,0.9579,0.9579,0.9579,0.9579,0.9579,0.9356,0.9096,0.9096,0.8816,0.8612,0.8612,0.8612,0.8612,0.8612,0.8612,0.8612,0.8612,0.8612,0.8612,0.8612,0.8535,0.8402,0.83,0.8142,0.8008,0.7816,0.7797,0.7862,0.7961,0.8063,0.8217,0.8403,0.8513,0.8551,0.8551,0.8665,0.8703,0.8703,0.8703,0.8703,0.8703,0.8703,0.8703,0.3686,0.3937,0.421,0.4308,0.0,0.4985,0.4945,0.0,0.0,0.0,0.0,0.0,0.0,0.0,0.0,0.0,0.0,0.0,0.0,0.0,0.0,0.0,0.0,0.0,0.0,0.0,0.0,0.0,0.0,0.0,0.7988,0.7988,0.7988,0.7988,0.7988,0.7988,0.7988,0.8025,0.8025,0.7992,0.816,0.8218,0.8218,0.8218,0.8275,0.8381,0.8418,0.837,0.8323,0.8357,0.8252,0.8167,0.8446,0.8727,0.9017,0.9724,1.0099,1.0212,1.0212,0.9953,0.9681,0.9591,0.9579,0.9579,0.9579,0.9579,0.9579,0.9579,0.9579,0.9579,0.9579,0.9579,0.9579,0.9579,0.9384,0.9145,0.9104,0.8848,0.8617,0.862,0.8612,0.8612,0.8612,0.8612,0.8612,0.8612,0.8612,0.8612,0.8612,0.8612,0.8555,0.8369,0.8316,0.8204,0.797,0.81,0.8208,0.8219,0.8354,0.8475,0.8699,0.8703,0.8703,0.8703,0.8703,0.8703,0.8703,0.8703,0.8703,0.8703,0.8703,0.8703,0.3914,0.4089,0.4287,0.4589,0.4691,0.0,0.5022,0.5083,0.0,0.5467,0.0,0.0,0.0,0.0,0.0,0.0,0.0,0.0,0.0,0.0,0.0,0.0,0.0,0.0,0.0,0.0,0.0,0.0,0.0,0.0,0.7988,0.7988,0.7988,0.7988,0.7988,0.7988,0.7988,0.818,0.818,0.7988,0.8002,0.8005,0.8005,0.8005,0.8012,0.8029,0.8225,0.833,0.8333,0.8414,0.8462,0.8504,0.8745,0.9167,0.9642,0.9926,1.0099,1.0212,1.0212,1.0082,0.9839,0.9681,0.9579,0.9579,0.9579,0.9579,0.9579,0.9579,0.9579,0.9579,0.9579,0.9579,0.9579,0.9579,0.9478,0.9339,0.9133,0.8942,0.8755,0.8641,0.8612,0.8612,0.8612,0.8612,0.8612,0.8612,0.8612,0.8612,0.8612,0.8612,0.8608,0.8592,0.8394,0.8299,0.8357,0.8372,0.8458,0.8655,0.8508,0.8475,0.8699,0.8703,0.8703,0.8703,0.8703,0.8703,0.8703,0.8703,0.8703,0.8703,0.8703,0.8703,0.3717,0.4056,0.4409,0.4549,0.4859,0.0,0.0,0.5484,0.5637,0.0,0.0,0.0,0.0,0.0,0.0,0.0,0.0,0.0,0.0,0.0,0.0,0.0,0.0,0.0,0.0,0.0,0.0,0.0,0.0,0.0,0.7988,0.7988,0.7988,0.7988,0.7988,0.7988,0.7988,0.8099,0.8099,0.7992,0.8136,0.8184,0.8184,0.8184,0.8231,0.8316,0.8377,0.835,0.8327,0.8381,0.8292,0.8208,0.8661,0.9193,0.9739,0.99,0.9991,0.9989,0.9989,0.9872,0.9713,0.9648,0.9579,0.9579,0.9579,0.9579,0.9579,0.9579,0.9579,0.9579,0.9579,0.9579,0.9579,0.9579,0.9486,0.9384,0.9318,0.9027,0.88,0.8739,0.8637,0.8612,0.8612,0.8612,0.8612,0.8612,0.8612,0.8612,0.8612,0.8612,0.8612,0.8612,0.8527,0.8556,0.8694,0.8759,0.8796,0.8876,0.8706,0.8627,0.8703,0.8703,0.8703,0.8703,0.8703,0.8703,0.8703,0.8703,0.8703,0.8703,0.8703,0.8965,0.3668,0.4012,0.4416,0.4539,0.0,0.0,0.5771,0.5911,0.6115,0.0,0.0,0.0,0.0,0.0,0.0,0.0,0.0,0.0,0.0,0.0,0.0,0.0,0.0,0.0,0.0,0.0,0.0,0.0,0.0,0.0,0.0,0.7988,0.7988,0.7988,0.7988,0.7988,0.7988,0.7988,0.7988,0.7992,0.8147,0.8197,0.8197,0.8197,0.8252,0.8343,0.8343,0.8289,0.8197,0.8197,0.8234,0.8287,0.873,0.9222,0.9674,0.9861,0.9851,0.9811,0.9864,0.977,0.9579,0.9579,0.9579,0.9579,0.9579,0.9579,0.9579,0.9579,0.9579,0.9579,0.9579,0.9579,0.9579,0.9579,0.9531,0.9413,0.9347,0.908,0.8873,0.8763,0.8649,0.8612,0.8612,0.8612,0.8612,0.8612,0.8612,0.8612,0.8696,0.8696,0.874,0.8828,0.8836,0.8884,0.9089,0.9089,0.9124,0.9188,0.8959,0.8774,0.8703,0.8703,0.8703,0.8703,0.8703,0.8703,0.8703,0.8703,0.8703,0.8703,0.8703,0.9122,0.3792,0.3994,0.4297,0.0,0.0,0.0,0.0,0.0,0.0,0.0,0.0,0.0,0.0,0.0,0.0,0.0,0.0,0.0,0.0,0.0,0.0,0.0,0.0,0.0,0.0,0.0,0.0,0.0,0.0,0.0,0.0,0.7988,0.7988,0.7988,0.7988,0.7988,0.7988,0.7988,0.7988,0.7988,0.7988,0.7988,0.7988,0.7988,0.7988,0.7988,0.7988,0.7988,0.7988,0.7988,0.8333,0.8825,0.9084,0.9381,0.9599,0.9819,0.9774,0.9652,0.9823,0.977,0.9579,0.9579,0.9579,0.9579,0.9579,0.9579,0.9579,0.9579,0.9579,0.9579,0.9579,0.9579,0.9579,0.9579,0.9579,0.9531,0.9177,0.91,0.8995,0.8686,0.8612,0.8612,0.8612,0.8612,0.8612,0.8612,0.8612,0.8656,0.8867,0.8911,0.8999,0.9262,0.9305,0.9388,0.9602,0.9429,0.94,0.9606,0.9261,0.8935,0.8713,0.8703,0.8703,0.8703,0.8703,0.8703,0.8703,0.8703,0.8703,0.8703,0.8703,0.916,0.3822,0.4246,0.0,0.0,0.0,0.0,0.0,0.0,0.0,0.0,0.0,0.0,0.0,0.0,0.0,0.0,0.0,0.0,0.0,0.0,0.0,0.0,0.0,0.0,0.0,0.0,0.0,0.0,0.0,0.0,0.0,0.7988,0.7988,0.7988,0.7988,0.7988,0.7988,0.7988,0.7988,0.7988,0.7988,0.7988,0.7988,0.7988,0.7988,0.7988,0.7988,0.7988,0.8041,0.8187,0.8482,0.8825,0.9084,0.9381,0.9583,0.9685,0.9669,0.9583,0.9685,0.9669,0.9579,0.9579,0.9579,0.9579,0.9579,0.9579,0.9579,0.9579,0.9579,0.9579,0.9579,0.9579,0.9579,0.9579,0.9579,0.9563,0.9375,0.9181,0.9027,0.8792,0.8649,0.8612,0.8612,0.8612,0.8652,0.8784,0.8696,0.8656,0.8867,0.9087,0.9218,0.9305,0.9432,0.982,1.0511,1.024,1.0431,1.1519,1.0996,1.0135,0.894,0.8784,0.8703,0.8703,0.8703,0.8703,0.8703,0.8703,0.9008,0.9539,0.9539,1.0288,0.4075,0.0,0.0,0.0,0.0,0.0,0.0,0.0,0.0,0.0,0.0,0.0,0.0,0.0,0.0,0.0,0.0,0.0,0.0,0.0,0.0,0.0,0.0,0.0,0.0,0.0,0.0,0.0,0.0,0.0,0.0,0.7988,0.7988,0.7988,0.7988,0.7988,0.7988,0.7988,0.7988,0.7988,0.7988,0.7988,0.7988,0.7988,0.7988,0.7988,0.8137,0.8137,0.8187,0.8584,0.8832,0.8981,0.9232,0.948,0.9579,0.9579,0.9579,0.9579,0.9579,0.9579,0.9579,0.9579,0.9579,0.9579,0.9579,0.9579,0.9579,0.9579,0.9579,0.9579,0.9579,0.9579,0.9579,0.9579,0.9579,0.9559,0.9307,0.9169,0.9023,0.8767,0.8637,0.8612,0.8612,0.8612,0.8656,0.8867,0.8955,0.9043,0.9174,0.9432,0.9689,1.0077,1.0207,1.0679,1.1617,1.1402,1.1636,1.2457,1.2058,1.1372,1.0396,1.0158,1.0036,1.0036,1.0064,1.0064,1.0036,1.0064,1.0302,1.0777,1.0777,1.1464,0.4412,0.0,0.0,0.0,0.0,0.0,0.0,0.0,0.0,0.0,0.0,0.0,0.0,0.0,0.0,0.0,0.0,0.0,0.0,0.0,0.0,0.0,0.0,0.0,0.0,0.0,0.0,0.0,0.0,0.0,0.0,0.7988,0.7988,0.7988,0.7988,0.7988,0.7988,0.7988,0.7988,0.7988,0.7988,0.7988,0.7988,0.7988,0.7988,0.8038,0.8283,0.8432,0.8482,0.8985,0.9187,0.9232,0.948,0.9579,0.9579,0.9579,0.9579,0.9579,0.9579,0.9579,0.9579,0.9579,0.9579,0.9579,0.9579,0.9579,0.9579,0.9579,0.9579,0.9579,0.9579,0.9579,0.9579,0.9579,0.9579,0.9535,0.9194,0.9108,0.8999,0.8702,0.862,0.8612,0.8612,0.8608,0.8696,0.8911,0.9345,0.9646,0.9733,0.9951,1.0467,1.1322,1.1451,1.1789,1.276,1.2766,1.2802,1.293,1.2708,1.262,1.2661,1.2302,1.2108,1.2114,1.2095,1.2095,1.2114,1.2089,1.2129,1.2194,1.2194,1.2632,0.0,0.0,0.0,0.0,0.0,0.0,0.0,0.0,0.0,0.0,0.0,0.0,0.0,0.0,0.0,0.0,0.0,0.0,0.0,0.0,0.0,0.0,0.0,0.0,0.0,0.0,0.0,0.0,0.0,0.0,0.7988,0.7988,0.7988,0.7988,0.7988,0.7988,0.7988,0.7988,0.7988,0.7988,0.7988,0.7988,0.7988,0.7988,0.8137,0.8333,0.8382,0.8531,0.8726,0.9084,0.9187,0.9232,0.948,0.9579,0.9579,0.9579,0.9579,0.9579,0.9579,0.9579,0.9579,0.9579,0.9579,0.9579,0.9579,0.9579,0.9579,0.9579,0.9579,0.9579,0.9579,0.9579,0.9579,0.9579,0.9579,0.9567,0.9396,0.9194,0.9031,0.8808,0.8658,0.8612,0.8612,0.874,0.8911,0.9174,0.9607,1.0077,1.0641,1.0895,1.1365,1.2297,1.2382,1.2766,1.3711,1.3288,1.3464,1.4741,1.4295,1.4219,1.4726,1.3043,1.2095,1.2114,1.2108,1.2108,1.2114,1.2089,1.2414,1.3028,1.3028,1.347,0.0,0.0,0.0,0.0,0.0,0.0,0.0,0.0,0.0,0.0,0.0,0.0,0.0,0.0,0.0,0.0,0.0,0.0,0.0,0.0,0.0,0.0,0.0,0.0,0.0,0.0,0.0,0.0,0.0,0.7988,0.7988,0.7988,0.7988,0.7988,0.7988,0.7988,0.7988,0.7988,0.7988,0.7988,0.7988,0.7988,0.7988,0.8137,0.8283,0.8432,0.8684,0.8882,0.9031,0.9282,0.9381,0.9381,0.9529,0.9579,0.9579,0.9579,0.9579,0.9579,0.9579,0.9579,0.9579,0.9579,0.9579,0.9579,0.9579,0.9579,0.9579,0.9579,0.9579,0.9579,0.9579,0.9579,0.9579,0.9579,0.9579,0.9575,0.9441,0.9218,0.9043,0.8857,0.8682,0.8612,0.8612,0.8872,0.913,0.9262,1.0038,1.0766,1.1111,1.1617,1.2339,1.3275,1.3366,1.3753,1.4657,1.4363,1.4496,1.5347,1.5082,1.5041,1.5389,1.4303,1.3682,1.3696,1.3696,1.3696,1.3696,1.3682,1.3886,1.4312,1.4312,1.4515,0.0,0.0,0.0,0.0,0.0,0.0,0.0,0.0,0.0,0.0,0.0,0.0,0.0,0.0,0.0,0.0,0.0,0.0,0.0,0.0,0.0,0.0,0.0,0.0,0.0,0.0,0.0,0.0,0.0,0.7951,0.7951,0.7951,0.7938,0.7914,0.7914,0.7928,0.7948,0.7951,0.7965,0.7988,0.7988,0.8038,0.8088,0.8333,0.8482,0.8482,0.8985,0.9232,0.9286,0.9529,0.9579,0.9579,0.9579,0.9579,0.9579,0.9579,0.9579,0.9579,0.9579,0.9579,0.9579,0.9579,0.9579,0.9579,0.9579,0.9579,0.9579,0.9579,0.9579,0.9579,0.9579,0.9579,0.9579,0.9579,0.9579,0.9587,0.9433,0.9263,0.9088,0.8905,0.8706,0.8612,0.8696,0.9043,0.9393,0.9607,1.0593,1.1408,1.1752,1.2467,1.3317,1.4223,1.4314,1.4615,1.5347,1.5389,1.5389,1.5389,1.5389,1.5389,1.5389,1.5389,1.5389,1.5389,1.5389,1.5389,1.5389,1.5389,1.5389,1.5389,1.5389,1.5389,0.0,0.0,0.0,0.0,0.0,0.0,0.0,0.0,0.0,0.0,0.0,0.0,0.0,0.0,0.0,0.0,0.0,0.0,0.0,0.0,0.0,0.0,0.0,0.0,0.0,0.0,0.0,0.0,0.7841,0.7841,0.7841,0.7841,0.7784,0.7662,0.7658,0.7719,0.7841,0.7841,0.7909,0.7988,0.7988,0.8137,0.8333,0.8627,0.8726,0.8775,0.908,0.9335,0.9529,0.9579,0.9579,0.9579,0.9579,0.9579,0.9579,0.9579,0.9579,0.9579,0.9579,0.9579,0.9579,0.9579,0.9579,0.9579,0.9579,0.9579,0.9579,0.9579,0.9579,0.9579,0.9579,0.9579,0.9579,0.9579,0.9579,0.9571,0.9596,0.9449,0.9318,0.9092,0.8796,0.874,0.913,0.9262,0.9689,1.0852,1.1192,1.188,1.3499,1.3837,1.4265,1.5124,1.5215,1.5257,1.5389,1.5389,1.5389,1.5389,1.5389,1.5389,1.5389,1.5389,1.5389,1.5389,1.5389,1.5389,1.5389,1.5389,1.5389,1.5389,1.5389,1.5389,0.4426,0.5081,0.0,0.0,0.0,0.0,0.0,0.0,0.0,0.0,0.0,0.0,0.0,0.0,0.0,0.0,0.0,0.0,0.0,0.0,0.0,0.0,0.0,0.0,0.0,0.0,0.0,0.0,0.7692,0.7692,0.7692,0.7692,0.7665,0.76,0.76,0.7631,0.7692,0.7692,0.7726,0.7794,0.7887,0.8073,0.8307,0.8743,0.8939,0.9031,0.9331,0.948,0.9579,0.9579,0.9579,0.9579,0.9579,0.9579,0.9579,0.9579,0.9579,0.9579,0.9579,0.9579,0.9579,0.9579,0.9579,0.9579,0.9579,0.9579,0.9579,0.9579,0.9579,0.9579,0.9579,0.9579,0.9772,1.035,1.0498,1.0645,1.1228,1.0299,0.9461,0.9677,1.0064,1.0436,1.0608,1.0717,1.1063,1.174,1.2431,1.316,1.4013,1.4524,1.4999,1.5347,1.5389,1.5389,1.5389,1.5389,1.5389,1.5389,1.5389,1.5389,1.5389,1.5389,1.5389,1.5389,1.5389,1.5389,1.5389,1.5389,1.5389,1.5389,1.5389,1.5389,0.4449,0.4908,0.532,0.0,0.0,0.0,0.0,0.0,0.0,0.0,0.0,0.0,0.0,0.0,0.0,0.0,0.0,0.0,0.0,0.0,0.0,0.0,0.0,0.0,0.0,0.0,0.0,0.0,0.7543,0.7543,0.7543,0.7543,0.7522,0.7485,0.7482,0.7502,0.7543,0.758,0.76,0.76,0.7782,0.803,0.8243,0.8764,0.9094,0.9268,0.9509,0.9579,0.9579,0.9579,0.9579,0.9579,0.9579,0.9579,0.9579,0.9579,0.9579,0.9579,0.9579,0.9579,0.9579,0.9579,0.9579,0.9579,0.9579,0.9579,0.9579,0.9579,0.9579,0.9677,0.9916,1.0015,1.0256,1.1317,1.156,1.1804,1.2533,1.1394,1.0306,1.069,1.1441,1.1999,1.1875,1.2051,1.2336,1.2681,1.3535,1.4181,1.4398,1.4999,1.5389,1.5389,1.5389,1.5389,1.5389,1.5389,1.5389,1.5389,1.5389,1.5389,1.5389,1.5389,1.5389,1.5389,1.5389,1.5389,1.5389,1.5389,1.5389,1.5389,1.5389,1.5389,0.3913,0.4284,0.0,0.0,0.0,0.0,0.0,0.0,0.0,0.0,0.0,0.0,0.0,0.0,0.0,0.0,0.0,0.0,0.0,0.0,0.0,0.0,0.0,0.0,0.0,0.0,0.0,0.0,0.7429,0.7429,0.7429,0.7429,0.7316,0.7125,0.7122,0.7234,0.7429,0.7529,0.76,0.76,0.7782,0.8016,0.8308,0.8802,0.912,0.938,0.9551,0.9579,0.9579,0.9579,0.9579,0.9579,0.9579,0.9579,0.9579,0.9579,0.9579,0.9579,0.9579,0.9579,0.9579,0.9579,0.9579,0.9579,0.9579,0.9579,0.9579,0.9579,0.9579,0.9821,1.0837,1.1126,1.1365,1.2387,1.263,1.2635,1.2678,1.2491,1.2366,1.2386,1.2474,1.2507,1.2403,1.2572,1.3051,1.3877,1.4055,1.4398,1.5215,1.5389,1.5389,1.5389,1.5389,1.5389,1.5389,1.5389,1.5389,1.5389,1.5389,1.5389,1.5389,1.5389,1.5389,1.5389,1.5389,1.5389,1.5389,1.5389,1.5389,1.5389,1.5389,1.5389,0.3778,0.4094,0.0,0.0,0.0,0.0,0.0,0.0,0.0,0.0,0.0,0.0,0.0,0.0,0.0,0.0,0.0,0.0,0.0,0.0,0.0,0.0,0.0,0.0,0.0,0.0,0.0,0.0,0.0,0.7224,0.7224,0.7224,0.7152,0.7098,0.7095,0.7122,0.7221,0.7417,0.7538,0.7538,0.7892,0.8216,0.8417,0.8752,0.9043,0.9408,0.9473,0.9518,0.9579,0.9579,0.9579,0.9579,0.9579,0.9579,0.9579,0.9579,0.9579,0.9579,0.9579,0.9579,0.9579,0.9579,0.9579,0.9579,0.9579,0.9579,0.9579,0.9579,1.0113,1.0739,1.1126,1.1658,1.2441,1.3463,1.4238,1.4711,1.4711,1.416,1.3613,1.3385,1.4035,1.4624,1.4518,1.4688,1.5001,1.551,1.5583,1.5669,1.5987,1.5862,1.5695,1.5695,1.5513,1.5389,1.5389,1.5389,1.5389,1.5389,1.5389,1.5389,1.5389,1.5389,1.5389,1.5389,1.5389,1.5389,1.5389,1.5389,1.5389,1.5389,1.5389,1.5389,0.3588,0.0,0.0,0.0,0.0,0.0,0.0,0.0,0.0,0.0,0.0,0.0,0.0,0.0,0.0,0.0,0.0,0.0,0.0,0.0,0.0,0.0,0.0,0.0,0.0,0.0,0.0,0.0,0.0,0.0,0.7095,0.7095,0.7095,0.7095,0.7095,0.7095,0.7095,0.737,0.7507,0.7507,0.7981,0.8259,0.8421,0.866,0.895,0.9177,0.929,0.9405,0.9579,0.9579,0.9579,0.9579,0.9579,0.9579,0.9579,0.9579,0.9579,0.9579,0.9579,0.9579,0.9579,0.9579,0.9579,0.9579,0.9579,0.9579,0.9677,1.0064,1.0641,1.1365,1.2052,1.2974,1.3938,1.4627,1.5302,1.5784,1.5784,1.5302,1.4762,1.4615,1.5391,1.6058,1.5972,1.6133,1.632,1.6382,1.6411,1.6411,1.6411,1.6191,1.6023,1.5928,1.5681,1.5506,1.5396,1.5389,1.5389,1.5389,1.5389,1.5389,1.5389,1.5389,1.5389,1.5389,1.5389,1.5389,1.5389,1.5389,1.5389,1.5389,1.5389,1.5389,0.0,0.0,0.0,0.0,0.0,0.0,0.0,0.0,0.0,0.0,0.0,0.0,0.0,0.0,0.0,0.0,0.0,0.0,0.0,0.0,0.0,0.0,0.0,0.0,0.0,0.0,0.0,0.0,0.7095,0.7095,0.7095,0.7095,0.7095,0.7095,0.7095,0.7095,0.7095,0.737,0.7507,0.7507,0.7984,0.8201,0.8204,0.86,0.8816,0.8832,0.9011,0.9287,0.9562,0.9567,0.9575,0.9579,0.9579,0.9579,0.9579,0.9579,0.9579,0.9579,0.9579,0.9579,0.9579,0.9579,0.9579,0.9579,0.9579,0.9628,0.9871,1.093,1.1219,1.1755,1.3806,1.5064,1.5784,1.5784,1.5784,1.5784,1.5784,1.5832,1.5879,1.617,1.6407,1.6584,1.6525,1.6735,1.6807,1.6492,1.6441,1.6441,1.6441,1.6433,1.6309,1.5965,1.5921,1.5739,1.5418,1.5389,1.5389,1.5389,1.5389,1.5389,1.5389,1.5389,1.5389,1.5389,1.5389,1.5389,1.5389,1.5389,1.5389,1.5389,1.5389,1.5389,0.3544,0.0,0.0,0.0,0.0,0.0,0.0,0.0,0.0,0.0,0.0,0.0,0.0,0.0,0.0,0.0,0.0,0.0,0.0,0.0,0.0,0.0,0.0,0.0,0.0,0.0,0.0,0.0,0.7095,0.7095,0.7095,0.7095,0.7095,0.7095,0.7095,0.7187,0.737,0.7635,0.7852,0.8025,0.834,0.8476,0.8476,0.8613,0.8706,0.8824,0.8873,0.9027,0.9254,0.938,0.9506,0.9579,0.9579,0.9579,0.9579,0.9579,0.9579,0.9579,0.9579,0.9579,0.9579,0.9579,0.9579,0.9579,0.9579,1.0158,1.0837,1.1126,1.2296,1.3752,1.5057,1.5588,1.5784,1.5784,1.5784,1.5784,1.5784,1.5927,1.6123,1.6177,1.6548,1.6904,1.6865,1.7022,1.7165,1.7077,1.7062,1.7062,1.7062,1.6865,1.6646,1.6323,1.6045,1.5739,1.5418,1.5389,1.5389,1.5389,1.5389,1.5389,1.5389,1.5389,1.5389,1.5389,1.5389,1.5389,1.5389,1.5389,1.5389,1.5389,1.5389,1.5389,0.3727,0.0,0.0,0.0,0.0,0.0,0.0,0.4911,0.0,0.0,0.0,0.0,0.0,0.0,0.0,0.0,0.0,0.0,0.0,0.0,0.0,0.0,0.0,0.0,0.0,0.7095,0.7095,0.7095,0.7095,0.7095,0.7095,0.7095,0.7095,0.7095,0.7187,0.7323,0.7507,0.7856,0.8069,0.8201,0.8472,0.8612,0.8612,0.8612,0.8621,0.8714,0.8714,0.8816,0.8995,0.9173,0.9352,0.9518,0.96,0.9579,0.9579,0.9579,0.9579,0.9579,0.9579,0.9579,0.9579,0.9579,0.9579,0.9673,1.0109,1.069,1.1365,1.2247,1.3655,1.5064,1.5635,1.5784,1.5784,1.5784,1.5784,1.5784,1.5784,1.6116,1.6359,1.6359,1.6697,1.7026,1.7113,1.7239,1.7279,1.7279,1.7279,1.7279,1.7279,1.7165,1.6925,1.6463,1.6213,1.5921,1.5425,1.5389,1.5389,1.5389,1.5389,1.5389,1.5389,1.5389,1.5389,1.5389,1.5389,1.5389,1.5389,1.5389,1.5389,1.5389,1.5389,1.5389,0.3965,0.4065,0.0,0.0,0.0,0.0,0.4837,0.483,0.0,0.0,0.0,0.0,0.0,0.0,0.0,0.0,0.0,0.0,0.0,0.0,0.0,0.0,0.0,0.0,0.7048,0.7048,0.7055,0.7071,0.7088,0.7095,0.7095,0.7139,0.7143,0.7143,0.7411,0.7551,0.7595,0.7984,0.8201,0.8245,0.8476,0.8612,0.8612,0.8612,0.8612,0.8612,0.8612,0.8653,0.8804,0.8991,0.9181,0.942,0.9555,0.9579,0.9579,0.9579,0.9579,0.9579,0.9579,0.9677,0.9772,0.9772,0.9871,1.0113,1.1077,1.1463,1.195,1.3902,1.5112,1.5784,1.5784,1.5784,1.5784,1.5784,1.5784,1.5784,1.5784,1.6204,1.6588,1.6588,1.6824,1.7113,1.7286,1.7279,1.7279,1.7279,1.7279,1.7279,1.7279,1.725,1.704,1.6477,1.6382,1.6082,1.5433,1.5389,1.5389,1.5389,1.5389,1.5389,1.5389,1.5389,1.5389,1.5389,1.5389,1.5389,1.5389,1.5389,1.5389,1.5389,1.5389,1.5389,0.4531,0.4558,0.4589,0.4552,0.0,0.0,0.426,0.4375,0.4593,0.0,0.0,0.0,0.0,0.0,0.0,0.0,0.0,0.0,0.0,0.0,0.0,0.0,0.0,0.0,0.6787,0.6787,0.6837,0.6916,0.7031,0.7095,0.7095,0.7323,0.7415,0.7415,0.768,0.7896,0.8069,0.8157,0.8292,0.852,0.8568,0.8612,0.8612,0.8612,0.8612,0.8612,0.8612,0.8629,0.8629,0.8804,0.9064,0.942,0.9555,0.9579,0.9579,0.9579,0.9579,0.9579,0.9579,1.0158,1.0886,1.0886,1.1419,1.2145,1.2339,1.3022,1.395,1.5153,1.5635,1.5784,1.5784,1.5784,1.5784,1.5784,1.5784,1.5784,1.5784,1.6204,1.6588,1.6588,1.6958,1.7239,1.7279,1.7279,1.7279,1.7279,1.7279,1.7279,1.7279,1.7106,1.6844,1.6455,1.6148,1.5848,1.5418,1.5389,1.5389,1.5389,1.5389,1.5389,1.5389,1.5389,1.5389,1.5389,1.5389,1.5389,1.5389,1.5389,1.5389,1.5389,1.5389,1.5389,0.5783,0.5591,0.5358,0.5358,0.0,0.0,0.0,0.0,0.4456,0.5188,0.0,0.0,0.0,0.0,0.0,0.0,0.0,0.0,0.0,0.0,0.0,0.0,0.0,0.0,0.6586,0.6654,0.6732,0.681,0.6881,0.6919,0.6919,0.721,0.7386,0.7386,0.7811,0.8113,0.8201,0.8336,0.8472,0.8612,0.8612,0.8612,0.8612,0.8612,0.8612,0.8612,0.8612,0.8612,0.8624,0.8751,0.8926,0.9116,0.9384,0.9547,0.9677,1.0207,1.04,1.0449,1.0984,1.1517,1.195,1.195,1.229,1.278,1.3318,1.4238,1.5159,1.5642,1.5784,1.5784,1.5784,1.5784,1.5784,1.5784,1.5784,1.5784,1.5784,1.6204,1.6588,1.6588,1.6958,1.7279,1.7279,1.7279,1.7279,1.7279,1.7279,1.7279,1.7279,1.7055,1.6778,1.6448,1.6096,1.5739,1.5418,1.5389,1.5389,1.5389,1.5389,1.5389,1.5389,1.5389,1.5389,1.5389,1.5389,1.5389,1.5389,1.5389,1.5389,1.5389,1.5389,1.5624,0.0,0.0,0.0,0.0,0.0,0.517,0.0,0.0,0.0,0.5612,0.0,0.0,0.0,0.0,0.0,0.0,0.0,0.0,0.0,0.0,0.0,0.0,0.0,0.0,0.6381,0.6454,0.6563,0.6651,0.663,0.6641,0.6698,0.7109,0.7321,0.735,0.7906,0.8257,0.8288,0.8476,0.8612,0.8612,0.8612,0.8612,0.8612,0.8612,0.8612,0.8612,0.8612,0.8696,0.888,0.8978,0.9144,0.9343,0.9361,0.9558,0.9964,1.0826,1.1283,1.1609,1.2436,1.2829,1.3022,1.3022,1.3119,1.3457,1.434,1.5159,1.5784,1.5784,1.5784,1.5784,1.5784,1.5784,1.5784,1.5784,1.5784,1.5832,1.5879,1.6258,1.6636,1.6683,1.7005,1.7279,1.7279,1.7279,1.7279,1.7279,1.7279,1.7279,1.7279,1.6996,1.6705,1.6441,1.6038,1.5673,1.5411,1.5389,1.5389,1.5389,1.5389,1.5389,1.5389,1.5389,1.5389,1.5389,1.5389,1.5389,1.5389,1.5389,1.5389,1.5389,1.559,1.6023,0.0,0.0,0.0,0.0,0.7405,0.0,0.0,0.0,0.5366,0.5229,0.0,0.0,0.0,0.0,0.0,0.0,0.0,0.0,0.0,0.0,0.0,0.0,0.0,0.0,0.0,0.5895,0.6071,0.6508,0.6422,0.6463,0.6685,0.7134,0.7457,0.7556,0.8048,0.8355,0.8564,0.8568,0.8612,0.8612,0.8612,0.8612,0.8612,0.8612,0.8612,0.8612,0.8612,0.9043,0.9777,0.9752,1.0392,1.1158,0.9683,0.9793,1.0767,1.0905,1.1596,1.2533,1.2678,1.3318,1.41,1.41,1.4723,1.5493,1.5588,1.573,1.5784,1.5784,1.5784,1.5784,1.5784,1.5784,1.5784,1.5784,1.5784,1.5879,1.6123,1.64,1.6683,1.6925,1.7153,1.7279,1.7279,1.7279,1.7279,1.7279,1.7279,1.7279,1.7279,1.6799,1.6455,1.6419,1.584,1.5425,1.5389,1.5389,1.5389,1.5389,1.5389,1.5389,1.5389,1.5389,1.5389,1.5389,1.5389,1.5389,1.5389,1.5389,1.5389,1.5431,1.618,1.6617,0.0,0.0,0.0,0.0,0.0,0.0,0.6484,0.0,0.5959,0.0,0.0,0.0,0.0,0.0,0.0,0.0,0.0,0.0,0.0,0.0,0.0,0.0,0.0,0.0,0.0,0.0,0.0,0.0,0.6027,0.616,0.645,0.6955,0.7289,0.7476,0.801,0.8329,0.8406,0.8559,0.8612,0.8612,0.8612,0.8612,0.8612,0.8612,0.8612,0.8612,0.913,0.9559,0.9946,1.0506,1.0991,1.1347,1.0657,1.0814,1.1589,1.2323,1.2903,1.3442,1.422,1.4813,1.5159,1.5159,1.5445,1.5784,1.5784,1.5784,1.5784,1.5784,1.5784,1.5784,1.5784,1.5784,1.5784,1.5784,1.5784,1.5879,1.6123,1.64,1.6683,1.6932,1.7153,1.7279,1.7279,1.7279,1.7279,1.7279,1.7279,1.726,1.7077,1.6697,1.6345,1.6126,1.5694,1.5389,1.5389,1.5389,1.5389,1.5389,1.5389,1.5389,1.5389,1.5389,1.5389,1.5389,1.5389,1.5389,1.5389,1.5906,1.6139,1.6139,1.6535,1.6976,0.7753,0.0,0.0,0.0,0.0,0.0,0.0,0.0,0.0,0.0,0.0,0.0,0.0,0.0,0.0,0.0,0.0,0.0,0.0,0.0,0.0,0.0,0.0,0.0,0.0,0.0,0.0,0.0,0.0,0.5877,0.6266,0.6769,0.7136,0.7382,0.7924,0.8239,0.8292,0.8518,0.8612,0.8612,0.8612,0.874,0.8955,0.8955,0.9087,0.9388,0.999,1.0419,1.0722,1.1408,1.1843,1.2057,1.2057,1.2237,1.2597,1.3463,1.3948,1.4384,1.5435,1.5784,1.5784,1.5784,1.5784,1.5784,1.5784,1.5784,1.5784,1.5784,1.5784,1.5784,1.5784,1.5784,1.5784,1.5784,1.5879,1.5974,1.6265,1.6494,1.6777,1.7019,1.72,1.7279,1.7279,1.7279,1.7279,1.7279,1.7279,1.7245,1.7011,1.6749,1.6426,1.6074,1.5752,1.5484,1.5396,1.5389,1.5389,1.5389,1.5389,1.5389,1.5389,1.5631,1.5748,1.5748,1.5989,1.6113,1.6113,1.6747,1.7066,1.7058,1.7302,1.7755,0.0,0.0,0.0,0.7695,0.0,0.0,0.0,0.0,0.81,0.0,0.0,0.0,0.0,0.0,0.0,0.0,0.0,0.0,0.0,0.0,0.0,0.0,0.0,0.0,0.0,0.0,0.0,0.0,0.5493,0.0,0.6252,0.6704,0.7049,0.7374,0.7805,0.8109,0.8288,0.8518,0.8612,0.8612,0.8612,0.9043,0.9859,0.9859,1.0332,1.1198,1.1241,1.1757,1.2613,1.2619,1.3179,1.4004,1.4004,1.401,1.4012,1.3722,1.4363,1.5391,1.5678,1.5784,1.5784,1.5784,1.5784,1.5784,1.5784,1.5784,1.5784,1.5784,1.5784,1.5784,1.5784,1.5784,1.5784,1.5784,1.5981,1.6265,1.6541,1.6784,1.7066,1.7239,1.7279,1.7279,1.7279,1.7279,1.7279,1.7279,1.7279,1.7279,1.7311,1.7033,1.6756,1.6433,1.6082,1.5732,1.5418,1.5389,1.5389,1.5389,1.5389,1.5389,1.5389,1.6221,1.6657,1.6657,1.7472,1.7917,1.7917,1.7957,1.7957,1.7997,1.8816,1.9222,0.0,0.0,0.9321,0.827,0.0,0.0,0.0,0.0,0.0,0.0,0.0,0.0,0.0,0.0,0.0,0.0,0.0,0.0,0.0,0.0,0.0,0.0,0.0,0.0,0.0,0.0,0.0,0.0,0.5452,0.0,0.6342,0.6722,0.7007,0.7247,0.7652,0.7931,0.8105,0.8292,0.849,0.8612,0.917,0.9602,0.9903,1.0549,1.0982,1.1322,1.1972,1.24,1.2747,1.3355,1.3828,1.4088,1.4088,1.4088,1.4093,1.4167,1.4582,1.5177,1.5665,1.5784,1.5784,1.5784,1.5784,1.5784,1.5784,1.5784,1.5784,1.5784,1.5784,1.5784,1.5784,1.5784,1.5832,1.6028,1.613,1.6265,1.6541,1.6831,1.7026,1.7113,1.7192,1.7279,1.7279,1.7279,1.7279,1.7279,1.7279,1.7252,1.704,1.6969,1.6778,1.6448,1.6323,1.6089,1.5782,1.5513,1.5665,1.6221,1.6263,1.6509,1.7115,1.7391,1.7553,1.7553,1.7836,1.7997,1.7997,1.8567,1.8856,1.8895,1.9766,1.9854,0.808,0.8732,0.0,0.8789,0.8753,0.0,0.7954,0.0,0.0,0.0,0.0,0.0,0.0,0.0,0.0,0.0,0.0,0.0,0.0,0.0,0.0,0.0,0.0,0.0,0.0,0.0,0.4727,0.5136,0.5322,0.0,0.0,0.6714,0.7004,0.7187,0.7573,0.7882,0.8012,0.8195,0.8553,0.9087,0.9646,1.0246,1.0939,1.1542,1.1972,1.2314,1.2918,1.3179,1.3222,1.387,1.4088,1.4088,1.4088,1.4088,1.4122,1.4409,1.4776,1.519,1.5665,1.5784,1.5784,1.5784,1.5784,1.5784,1.5784,1.5784,1.5784,1.5784,1.5784,1.5784,1.5784,1.5784,1.5879,1.613,1.6265,1.6407,1.669,1.6918,1.7113,1.7113,1.7192,1.7279,1.7279,1.7279,1.7279,1.7279,1.7279,1.7252,1.7047,1.7026,1.6901,1.6617,1.6587,1.6544,1.6357,1.6166,1.636,1.7107,1.7147,1.7432,1.7997,1.8278,1.8447,1.8447,1.8758,1.8917,1.8917,1.949,1.9775,1.9775,2.0323,2.0284]}]]